GFSNGP_250_spd_000.txt.gz
Wind_Speed
43 46 47 47 47 47 45 37 40 42 46 43 46 51 53 56 58 60 62 64 66 68 72 77 80 84 88 92 96 99 102 105 108 113 117 120 121 123 126 128 131 134 136 138
40 45 32 33 40 40 39 39 44 44 49 45 50 52 51 54 58 61 65 69 73 75 78 81 86 90 93 95 99 103 107 111 113 113 117 118 122 127 131 134 139 142 144 143
38 40 40 37 38 40 41 42 43 45 46 48 53 55 57 60 63 67 70 73 76 79 84 88 90 93 96 100 105 107 106 108 111 114 120 126 131 135 139 141 144 149 149 146
31 33 35 36 34 37 40 41 46 50 55 57 57 59 62 63 65 69 73 75 81 85 88 90 94 98 101 100 101 105 110 115 119 122 128 133 138 141 147 149 148 144 144 140
29 30 32 35 39 42 44 46 50 53 55 56 58 60 65 68 72 73 77 82 84 87 91 94 94 95 95 100 106 111 115 119 125 128 132 135 140 145 146 141 145 139 137 129
31 33 37 38 41 45 48 49 53 54 57 60 63 65 69 71 74 79 79 84 88 88 87 89 93 98 102 107 109 114 118 122 127 132 134 134 139 143 146 141 132 124 115 112
38 40 41 44 48 50 52 55 57 58 61 63 66 68 70 72 75 80 83 80 82 84 89 92 97 96 101 106 112 119 123 127 129 131 132 139 141 132 127 122 115 107 104 100
45 46 50 52 54 55 56 57 59 60 62 63 65 69 73 75 73 71 76 80 84 89 92 96 101 105 110 117 122 125 128 129 129 132 137 134 125 120 115 107 101 95 91 87
50 52 54 56 58 60 60 60 62 62 64 68 67 61 63 66 70 74 76 81 89 90 97 104 106 114 120 125 128 130 127 127 129 126 123 118 112 106 102 97 93 89 85 80
51 54 56 58 60 61 62 62 61 60 55 58 62 65 68 71 74 76 81 82 92 100 104 110 114 120 124 131 132 127 124 124 124 119 115 111 106 100 96 94 89 84 79 76
57 55 53 54 53 54 52 50 51 55 58 61 66 68 73 76 79 81 89 96 102 107 111 116 121 127 132 129 125 125 125 122 118 114 107 101 98 96 94 92 87 82 79 77
39 40 42 44 44 46 50 52 55 59 62 67 72 78 81 82 86 91 97 102 106 109 116 121 125 131 127 126 126 124 120 118 114 106 99 95 93 90 92 91 90 86 82 77
41 43 45 47 49 50 54 57 60 65 71 76 78 80 85 87 92 96 101 107 109 116 121 125 129 129 127 126 123 118 116 112 104 98 93 91 88 84 81 87 93 89 83 79
44 46 48 51 55 58 59 63 68 72 75 77 82 86 90 93 98 102 108 110 116 121 128 128 128 129 125 122 117 115 111 103 96 92 90 87 86 85 85 85 85 87 85 76
53 54 56 58 61 65 69 71 74 77 82 85 89 92 95 100 104 108 111 116 121 126 130 127 128 126 121 115 113 109 101 96 91 90 87 86 85 85 85 84 83 79 74 70
60 62 64 67 70 73 75 78 82 85 89 91 95 99 103 107 111 116 119 123 125 131 130 126 125 121 115 113 107 101 95 92 88 85 83 83 83 82 81 79 76 72 65 60
67 70 74 77 79 81 84 86 89 92 95 100 103 105 109 114 118 121 122 128 132 131 127 123 121 115 112 106 100 93 90 88 85 84 82 80 80 78 74 71 68 65 59 54
76 80 82 85 87 88 90 93 97 100 103 105 108 111 117 120 124 125 128 134 132 126 122 120 114 110 107 101 95 91 88 84 82 81 80 78 76 71 66 63 61 58 54 48
85 88 88 90 93 94 98 100 103 104 106 110 114 119 124 126 129 132 135 131 126 120 117 114 110 107 103 98 94 90 85 83 83 82 79 75 69 65 60 58 56 54 48 43
91 93 95 97 99 100 103 104 106 108 113 117 121 124 127 131 134 132 125 122 118 112 109 108 106 102 98 95 93 87 84 82 81 78 74 68 63 60 58 55 52 50 46 38
98 100 99 101 103 105 106 109 112 115 121 124 127 129 133 136 126 123 123 118 113 107 105 105 101 97 95 93 90 86 83 81 79 75 69 64 61 57 55 52 49 44 41 35
98 100 103 105 107 109 112 116 119 123 125 129 132 133 129 124 124 121 118 111 106 103 102 100 96 94 92 91 88 84 82 80 75 70 64 61 57 54 51 47 42 38 35 29
103 106 109 111 114 117 120 123 126 128 131 133 133 128 126 123 118 113 110 106 102 101 99 95 93 91 89 87 84 82 79 75 70 64 60 57 54 51 48 43 35 32 29 24
111 113 116 117 120 123 125 127 129 131 130 127 124 122 118 113 112 107 104 101 99 95 92 90 89 88 87 84 80 77 74 70 63 59 56 53 49 46 43 38 30 27 25 17
116 118 120 123 126 128 128 130 130 128 127 125 121 118 113 108 103 103 101 97 92 88 87 87 86 84 82 79 77 73 69 62 57 55 52 48 46 44 37 31 24 21 18 8
123 125 127 128 129 129 131 130 128 122 119 118 115 111 106 101 101 98 92 88 86 84 84 83 83 80 78 75 72 68 62 57 53 50 45 42 42 37 29 21 18 16 8 8
128 129 130 131 129 127 123 121 119 116 114 110 108 102 100 99 95 90 88 85 82 81 81 80 78 76 73 70 67 61 56 52 46 43 41 39 34 25 19 16 12 7 9 11

GFSNGP_250_spd_003.txt.gz
Wind_Speed
55 57 57 60 59 58 58 59 54 56 50 49 51 50 49 49 51 54 57 59 60 60 62 63 66 71 76 79 83 86 90 96 99 103 107 109 111 113 117 120 126 129 132 137
54 55 56 56 57 57 55 53 56 55 46 44 49 48 48 49 50 52 54 56 58 60 65 69 73 77 80 85 87 92 96 101 105 103 102 109 113 116 119 123 129 131 134 139
54 53 52 52 55 57 59 57 51 46 48 50 51 52 51 51 53 55 56 59 63 65 68 72 77 82 85 88 93 97 100 98 99 104 107 112 115 121 125 129 134 136 137 141
55 57 55 47 47 49 46 45 47 49 51 53 50 50 50 53 55 58 60 62 64 68 73 78 81 85 89 92 95 96 99 101 103 107 114 119 123 127 130 132 135 135 137 146
37 39 40 41 42 36 40 39 39 42 48 46 47 50 52 55 57 58 61 66 71 75 78 81 85 89 92 92 93 96 100 103 113 116 120 125 130 130 130 131 133 139 140 129
30 32 31 34 34 35 37 38 43 43 45 47 50 52 55 57 60 64 68 72 74 77 81 83 86 87 88 93 95 99 108 112 114 121 123 130 129 129 131 142 140 126 120 118
30 32 31 30 32 34 34 42 42 44 47 50 51 55 59 63 65 68 71 74 78 78 76 81 84 89 93 98 100 107 114 118 122 125 128 129 129 131 134 127 120 115 113 109
28 30 33 37 39 39 42 45 47 49 52 55 59 62 64 66 68 70 73 73 74 76 77 82 89 94 95 101 106 112 119 122 123 126 128 128 128 128 122 118 114 110 105 100
40 39 40 42 45 45 48 52 56 59 61 62 63 65 68 69 72 68 68 72 74 78 83 89 92 94 99 103 110 117 120 122 126 128 126 128 123 117 116 115 108 101 96 92
46 48 51 52 52 55 58 60 62 63 65 66 67 68 68 60 62 67 71 75 79 85 88 90 95 101 105 111 116 122 126 126 129 125 124 120 115 116 112 107 99 95 90 86
50 54 53 53 54 55 57 59 61 63 66 64 60 57 60 64 68 72 75 80 85 88 92 96 104 110 113 118 123 126 129 129 125 122 118 112 112 110 103 98 95 87 84 82
50 50 49 52 54 57 60 61 58 56 53 54 58 62 66 69 72 76 82 85 90 94 99 105 112 116 119 124 127 130 128 123 121 117 112 109 105 98 100 95 94 91 86 82
42 40 42 45 48 48 47 47 48 52 56 60 64 68 71 75 79 82 86 90 96 100 105 112 115 119 124 129 131 129 124 122 117 112 108 104 98 93 88 90 93 95 90 84
36 37 39 41 42 44 47 49 53 56 62 66 70 73 77 81 84 88 94 99 105 110 113 115 120 126 131 131 131 126 124 119 110 107 105 98 94 90 88 87 86 89 90 83
41 44 46 47 50 52 53 57 61 67 72 75 78 81 85 88 92 96 99 105 108 112 115 119 126 130 131 128 124 122 120 113 107 104 100 94 90 87 86 85 84 82 79 75
47 48 52 55 57 59 63 67 72 76 78 81 85 89 92 94 97 101 103 106 112 116 121 126 130 129 127 123 123 122 116 109 104 99 93 88 86 84 83 82 81 77 72 64
53 56 59 62 64 66 69 74 77 81 84 88 92 94 95 98 102 104 109 114 118 122 126 130 129 128 125 123 120 114 108 104 99 93 89 86 83 82 81 78 76 72 66 60
64 67 69 70 72 75 78 81 84 88 91 95 97 100 103 104 108 112 116 121 125 128 131 131 129 126 123 118 113 107 104 99 91 88 86 84 82 80 77 73 70 64 61 57
72 75 76 79 81 83 87 90 94 97 99 100 102 104 107 110 113 117 122 127 129 132 132 131 127 122 117 113 107 105 99 91 87 86 84 81 78 77 74 70 65 58 56 51
79 82 84 87 89 92 94 96 98 100 101 104 107 110 113 117 120 123 127 131 133 130 131 125 119 115 112 106 104 99 92 87 85 83 81 78 75 74 71 66 60 55 47 42
87 89 90 92 94 95 97 101 104 105 108 110 113 116 120 123 125 129 131 133 132 127 122 117 112 108 104 103 97 91 87 85 82 80 77 74 73 71 67 61 55 46 39 36
92 93 95 96 99 103 105 107 109 112 114 117 119 123 125 128 130 132 132 126 124 119 115 110 106 102 101 96 92 89 85 82 81 78 73 71 68 65 59 55 47 39 34 31
98 99 100 102 104 107 110 113 116 119 122 125 129 129 129 131 131 128 125 122 115 111 108 103 102 98 93 89 88 84 81 81 78 73 70 67 62 57 54 48 39 32 28 24
103 104 107 109 112 115 118 121 124 127 129 130 130 129 127 126 123 121 116 112 108 103 102 99 94 90 88 86 82 80 78 76 72 69 66 61 54 50 47 41 31 26 24 17
110 113 116 118 121 124 126 128 129 130 128 126 125 123 119 118 115 113 109 104 101 98 94 90 88 87 84 80 78 76 73 69 66 63 59 54 49 46 41 33 28 24 19 13
118 120 123 125 127 128 128 129 128 125 123 120 117 114 113 110 107 104 101 97 93 90 88 87 85 81 78 76 73 70 67 64 60 57 52 47 44 40 36 29 26 20 14 11
124 126 127 128 128 128 126 123 118 115 113 110 109 106 105 103 102 97 94 91 88 86 84 82 79 76 74 71 67 64 62 58 53 50 47 43 38 34 30 26 19 13 12 9

GFSNGP_250_spd_006.txt.gz
Wind_Speed
67 68 67 67 67 65 63 64 60 62 59 57 57 60 60 60 61 59 58 60 55 56 61 62 60 60 63 67 71 74 77 81 85 89 93 97 99 99 102 105 108 113 119 123
63 66 66 66 65 63 63 63 62 62 60 58 58 60 61 62 63 61 56 60 59 60 59 58 61 64 69 72 75 78 82 87 90 93 94 96 100 105 106 110 115 119 125 126
51 54 55 54 56 57 59 60 60 59 60 58 59 61 63 64 61 60 61 60 60 58 58 60 64 68 73 76 80 85 88 91 91 92 97 101 103 104 111 113 118 124 128 131
43 45 44 48 49 51 52 54 54 57 59 60 60 63 64 62 60 62 61 63 58 60 62 65 68 72 78 82 85 88 91 90 92 94 98 101 106 113 115 120 127 129 130 134
46 45 46 48 50 52 54 54 56 60 63 62 60 62 61 62 62 64 62 62 64 64 65 69 74 78 82 85 88 89 89 91 94 97 102 108 115 119 122 128 132 130 131 138
49 50 51 52 53 55 59 61 65 65 65 58 58 59 56 52 51 54 56 59 61 65 70 74 77 81 85 87 88 90 89 96 101 105 110 115 120 123 130 134 130 130 132 132
38 40 45 49 51 52 53 53 55 55 52 52 49 47 49 50 50 54 58 62 67 70 74 78 81 83 83 87 88 90 97 102 107 112 116 118 126 131 132 130 129 129 125 122
29 30 32 34 35 39 43 46 48 48 46 44 45 46 49 52 55 61 65 69 72 76 78 78 79 81 83 86 91 96 102 107 113 114 121 123 129 131 133 130 128 125 118 111
34 33 33 37 39 42 41 40 41 42 45 47 48 51 55 59 65 69 71 74 76 75 76 77 78 82 85 91 97 104 109 112 111 119 125 129 131 132 130 129 124 115 108 106
36 38 37 37 39 40 43 45 46 47 49 51 55 60 65 68 70 71 72 70 71 71 74 77 82 86 92 98 104 108 109 111 119 124 128 130 132 130 128 125 116 110 103 100
43 43 44 46 47 48 50 51 53 55 56 59 62 65 67 67 69 66 65 68 72 75 79 83 89 94 98 103 106 106 111 118 123 128 129 131 132 127 123 118 112 105 98 94
45 49 49 50 50 51 52 55 57 58 61 63 63 63 64 59 60 65 69 72 75 81 86 92 97 100 103 106 108 113 118 123 127 130 132 131 123 118 116 111 109 105 99 94
51 53 52 51 51 50 49 52 55 58 59 58 54 54 57 62 66 70 75 80 85 90 93 97 102 105 108 111 113 118 123 127 130 133 130 122 116 110 105 104 102 98 97 93
44 47 48 43 46 47 44 43 43 45 48 52 56 61 65 68 72 78 82 87 91 95 98 102 107 108 111 115 120 124 128 132 132 128 120 113 109 104 102 96 90 91 94 90
36 37 39 40 41 42 43 45 49 52 56 59 63 67 70 74 78 83 88 93 97 100 103 107 110 112 117 121 126 130 132 130 123 119 113 108 102 100 95 90 88 87 86 85
34 36 40 43 46 48 51 52 54 56 60 64 67 72 76 81 86 90 95 99 103 104 106 110 114 118 122 127 132 133 128 121 118 112 107 101 99 93 88 85 84 85 83 79
41 44 47 50 52 52 52 56 61 66 69 72 76 80 86 89 93 98 101 103 106 109 112 116 120 125 130 132 130 123 118 114 109 103 100 97 91 87 83 80 80 81 78 75
47 49 52 54 56 59 63 66 69 73 78 82 86 90 94 98 100 103 105 108 110 115 119 123 127 130 130 125 121 117 112 107 102 99 94 88 85 80 77 77 77 75 73 70
54 57 59 61 64 66 70 74 78 82 86 91 94 96 99 102 104 107 110 114 118 122 127 130 132 129 124 122 118 114 107 101 97 92 86 83 78 75 74 74 73 71 68 63
63 65 68 71 74 77 80 83 87 90 93 96 98 101 105 108 110 113 117 122 125 128 131 132 129 125 121 118 113 106 99 95 90 85 82 77 73 71 71 70 69 66 62 55
73 75 77 80 83 86 88 91 93 95 98 102 105 108 111 113 116 121 125 129 132 131 130 127 122 117 114 108 102 97 93 87 83 80 76 72 70 69 68 67 64 61 54 49
81 83 86 88 91 93 94 97 100 103 104 107 110 114 118 121 124 128 131 130 128 125 122 119 115 110 104 99 93 89 86 82 78 75 72 70 67 66 64 62 59 54 47 43
89 91 93 95 97 100 101 102 104 107 111 115 118 122 125 128 131 131 127 123 118 116 114 109 105 100 95 91 87 84 80 77 74 71 69 67 64 62 59 57 51 46 40 37
97 98 100 100 100 102 104 107 111 115 118 121 126 129 131 129 125 120 115 112 109 106 103 99 94 91 88 84 81 77 74 72 70 68 66 64 60 56 54 50 44 41 35 29
100 101 101 103 106 108 111 115 118 121 125 129 132 130 125 120 114 111 106 103 101 99 97 92 89 85 83 79 75 72 70 68 66 64 63 60 54 51 48 42 38 33 26 21
104 105 108 110 113 116 119 122 125 128 130 130 125 118 113 109 104 101 100 98 97 94 90 87 84 80 76 73 70 68 66 64 62 60 56 52 49 45 41 36 29 22 18 13
110 112 115 117 119 121 123 124 126 125 123 117 109 103 100 99 98 97 96 93 91 87 83 81 77 74 71 69 66 64 63 60 57 53 50 48 43 38 34 27 21 17 12 5

GFSNGP_250_spd_009.txt.gz
Wind_Speed
80 80 77 76 74 71 65 66 63 68 65 64 63 62 63 63 61 60 60 60 60 63 65 68 70 70 71 71 70 68 67 69 73 77 81 86 89 94 98 98 102 104 104 106
82 83 81 79 76 72 70 68 69 70 69 67 65 66 65 62 61 61 61 64 64 65 69 71 73 72 70 69 65 65 70 75 79 82 87 91 95 98 100 102 103 104 105 112
67 75 78 77 77 76 74 71 70 69 71 66 66 64 63 61 61 63 64 64 67 69 71 74 74 70 66 67 68 72 77 80 84 88 93 96 98 98 99 100 101 107 114 118
52 57 61 67 68 68 67 68 67 66 66 63 62 62 63 63 64 62 64 67 69 71 73 73 68 64 68 71 75 77 81 86 90 93 95 95 95 97 99 102 111 116 118 122
42 46 53 58 60 61 62 62 62 62 62 61 60 59 58 57 59 64 66 67 71 72 71 69 68 66 67 73 78 83 86 91 93 93 91 93 96 100 107 113 117 121 123 127
36 39 43 49 51 52 52 53 55 55 55 57 59 59 59 61 62 65 69 71 68 60 57 59 63 68 73 79 84 89 92 92 87 88 92 97 103 108 114 118 121 123 126 131
33 36 37 42 43 45 46 49 51 52 53 54 55 58 61 65 68 66 64 56 57 58 61 64 69 75 80 85 88 89 83 84 88 94 98 102 109 113 117 120 122 128 131 135
42 42 44 43 43 44 48 51 51 53 55 58 59 59 59 58 58 57 58 53 56 59 64 70 77 82 83 84 80 79 83 90 96 101 105 110 113 117 121 126 130 134 135 135
26 26 32 33 36 39 40 43 44 46 49 50 50 52 53 52 51 52 53 57 62 68 73 77 78 80 78 75 79 85 91 97 103 107 110 114 118 122 128 133 135 134 132 128
32 35 34 34 34 36 37 39 39 40 42 46 48 48 50 53 54 56 61 65 70 73 74 76 73 72 76 81 87 92 99 104 106 109 114 118 123 128 133 135 132 129 126 123
37 37 37 39 39 40 41 42 46 50 51 53 55 55 54 58 60 62 66 69 71 72 69 68 73 77 83 89 94 100 104 106 108 114 118 122 128 133 134 133 128 125 118 111
38 37 38 41 42 42 45 46 46 48 51 52 53 54 57 60 62 64 66 65 62 66 70 76 81 86 90 95 99 102 107 110 114 117 123 128 131 132 131 126 123 117 112 108
45 48 47 47 47 49 52 53 54 55 54 52 53 56 56 54 54 53 58 62 67 72 77 82 87 90 95 99 103 108 111 114 117 123 127 130 130 123 118 115 112 109 107 103
43 47 48 50 51 53 53 55 55 55 52 50 50 49 51 53 55 60 64 69 73 78 83 89 93 96 101 106 110 112 115 120 123 129 130 127 120 115 111 107 103 102 100 96
44 44 45 45 45 46 44 42 43 45 45 45 49 52 54 58 62 67 72 77 81 85 90 96 100 103 107 110 113 117 120 125 130 130 126 119 113 108 105 101 98 94 92 92
34 33 35 37 37 36 37 38 40 43 46 51 53 57 61 65 70 76 80 85 89 93 98 103 106 109 112 113 118 123 129 130 126 123 117 110 104 102 100 97 93 90 88 83
30 31 34 36 37 39 41 43 46 48 51 55 60 64 69 73 79 83 87 92 97 101 105 108 111 112 116 119 124 129 127 123 120 113 105 103 101 97 94 91 88 84 81 77
31 33 36 39 40 42 45 49 52 55 59 63 67 72 77 82 86 90 95 100 104 107 109 111 113 116 121 125 127 124 119 114 108 104 103 99 95 92 88 84 80 76 74 72
39 40 42 43 45 49 52 56 59 63 68 72 76 81 85 90 94 98 102 105 107 110 114 116 118 120 124 126 121 114 110 105 103 100 97 93 90 86 81 76 73 70 67 64
44 47 49 53 55 59 63 67 70 73 77 81 85 89 93 98 101 104 107 109 111 115 120 120 120 123 124 120 114 109 105 102 99 94 91 87 82 77 73 70 67 63 61 56
56 58 60 63 67 70 73 75 78 81 85 89 93 97 101 104 106 108 110 115 119 120 122 122 123 120 116 110 105 102 99 95 91 86 82 78 73 70 67 64 61 58 54 48
66 68 71 73 75 78 81 83 86 89 93 97 100 103 105 107 110 114 118 121 124 123 123 124 117 112 106 102 99 96 92 88 82 78 74 70 67 64 61 59 56 51 46 41
75 77 79 81 84 86 87 90 93 96 99 102 104 106 110 113 117 121 124 125 124 122 118 112 107 102 98 95 91 89 85 80 76 72 68 65 61 58 56 53 48 42 37 31
84 85 87 89 91 93 94 95 97 100 104 106 108 112 116 120 122 124 124 123 119 112 108 103 99 95 91 88 86 81 77 74 69 66 63 59 55 53 51 45 40 34 28 23
88 90 91 92 94 96 99 102 104 107 109 112 114 117 119 118 119 119 117 114 107 102 99 95 92 88 85 82 79 76 71 67 64 60 57 54 51 48 43 37 31 25 21 17
95 96 97 99 101 102 105 107 110 112 114 115 115 115 117 115 113 112 109 102 98 96 93 90 87 83 80 77 73 69 66 61 58 55 52 49 44 40 35 28 23 19 14 8
100 101 103 105 108 110 113 113 112 111 111 111 110 109 110 110 107 102 97 94 92 89 86 85 82 77 74 70 67 64 59 56 53 51 47 42 36 31 25 21 16 11 5 1

GFSNGP_250_spd_012.txt.gz
Wind_Speed
74 73 71 69 66 64 59 65 62 65 61 63 59 61 61 62 63 64 64 64 63 63 66 67 66 67 69 71 72 72 73 76 78 77 75 76 78 85 90 92 95 100 102 98
74 72 70 69 68 64 62 62 61 65 67 68 64 64 64 65 67 67 67 68 67 69 70 68 69 70 73 74 74 74 76 77 75 75 78 85 88 87 93 98 101 97 94 98
72 71 69 65 66 67 68 67 69 66 74 66 68 68 68 68 69 70 70 71 71 71 70 70 71 74 74 74 74 76 75 74 76 80 81 84 89 94 97 94 89 94 96 101
73 71 69 71 70 69 69 69 70 74 75 72 70 71 71 71 71 71 71 71 72 71 71 72 73 72 72 74 77 73 69 71 75 82 86 90 93 90 85 89 94 97 103 110
68 73 76 77 76 75 74 75 75 76 76 76 75 74 73 73 71 70 71 71 71 71 70 69 69 70 73 73 67 69 72 79 81 85 90 89 84 84 90 94 101 106 114 119
48 55 64 72 75 76 76 78 78 78 78 77 75 71 69 68 68 68 70 68 65 64 66 67 69 70 67 69 71 73 77 81 86 87 85 81 87 91 97 103 108 115 120 125
35 39 44 48 52 56 59 62 63 65 66 65 64 63 63 62 60 59 59 60 63 65 65 66 65 67 65 69 75 79 82 84 86 82 84 88 93 99 105 109 116 120 123 129
27 28 29 31 31 30 34 39 41 44 46 48 49 51 52 53 56 58 60 59 59 61 64 63 62 64 70 76 80 82 83 83 81 86 90 95 100 106 112 116 119 124 129 133
31 33 32 33 35 36 39 40 41 43 45 48 50 53 56 57 53 54 57 59 60 58 57 63 67 72 77 79 80 81 78 82 85 91 96 102 108 114 117 122 126 130 133 136
35 35 35 38 41 42 43 43 44 43 42 42 44 45 47 50 52 53 54 56 58 61 67 70 74 75 76 75 73 78 81 86 91 97 104 110 115 118 123 127 131 134 135 134
28 30 30 30 31 32 33 34 36 36 37 39 42 45 47 50 53 55 59 60 62 66 69 70 69 68 68 74 78 83 88 93 99 105 111 116 120 123 127 133 135 135 132 125
29 32 34 32 33 37 39 41 42 42 43 45 49 51 53 52 53 56 58 59 62 64 62 61 65 69 74 79 84 89 95 101 107 112 116 119 122 127 132 134 133 129 123 114
36 36 36 38 42 44 46 49 50 51 51 51 53 55 55 56 56 58 60 62 59 59 62 65 71 76 81 86 92 97 102 107 111 115 117 121 126 128 127 127 122 115 111 109
42 43 43 45 45 48 48 48 49 52 55 55 55 57 59 60 60 58 56 56 58 63 68 73 77 83 89 94 99 104 108 112 115 117 122 124 125 124 122 114 107 107 108 104
45 43 48 46 46 49 50 52 54 56 56 55 51 46 47 48 49 51 55 59 65 70 75 81 86 91 96 101 107 110 113 115 119 122 122 122 120 117 110 106 105 103 100 97
45 47 46 43 40 42 45 45 43 41 40 39 40 42 45 49 54 58 62 66 72 77 83 89 94 99 103 109 111 113 116 120 121 122 119 115 110 106 104 102 100 96 91 86
29 31 36 40 40 37 36 35 35 36 37 40 44 49 53 56 61 65 70 75 80 86 91 96 102 106 110 111 114 118 120 120 120 114 111 107 104 102 98 95 90 87 84 80
25 27 28 29 30 31 32 34 37 39 43 47 51 55 60 65 70 74 79 84 89 93 98 103 107 110 113 117 119 120 118 116 110 107 103 101 98 93 90 85 81 79 77 73
25 26 28 31 33 36 39 42 44 48 52 55 59 64 69 74 78 83 87 91 96 101 104 107 111 115 118 120 120 118 113 108 106 102 98 95 90 87 82 79 77 73 69 64
30 32 34 37 41 43 45 49 53 57 61 65 69 74 78 82 87 91 94 98 102 105 108 113 117 120 122 121 116 110 108 103 99 96 92 88 84 81 78 73 70 65 60 56
41 43 45 47 49 53 56 60 63 67 71 74 77 81 86 90 94 97 100 103 106 110 113 118 121 122 119 114 109 107 101 98 94 89 86 82 79 76 71 67 62 57 53 49
51 52 54 56 59 62 65 68 71 75 79 82 85 90 93 95 98 101 106 109 111 115 119 122 121 117 112 108 104 99 97 92 86 83 79 76 72 69 64 61 56 50 46 43
60 61 63 65 68 71 73 76 80 83 85 88 91 94 97 101 105 108 111 113 118 120 120 118 115 112 106 102 97 95 89 83 80 77 74 70 66 62 59 53 48 43 40 36
68 70 72 75 77 78 80 83 85 88 91 94 97 101 104 107 110 113 116 118 118 117 115 113 110 105 99 94 92 86 81 77 74 72 69 62 58 55 52 45 41 37 33 27
76 77 79 81 83 85 87 90 92 95 98 101 104 107 110 112 115 116 117 115 113 112 111 106 102 95 92 88 82 78 73 71 69 66 61 57 53 48 43 38 35 31 24 18
82 84 86 88 90 92 93 96 99 101 104 107 109 110 112 113 114 114 112 111 108 106 102 98 92 88 85 80 76 72 69 65 63 59 55 50 46 42 36 32 28 21 16 10
90 92 94 95 96 98 100 102 104 106 107 107 108 109 109 108 108 106 104 102 100 97 93 89 85 81 76 73 69 65 62 59 56 53 48 43 38 34 30 24 19 14 9 7

GFSNGP_250_spd_015.txt.gz
Wind_Speed
74 71 72 75 75 69 62 65 59 62 57 58 50 51 52 54 55 56 57 58 60 61 64 65 67 70 72 75 77 78 79 79 80 79 79 78 80 82 82 83 86 89 92 95
77 76 73 71 69 63 60 58 57 61 62 63 62 59 60 60 62 64 64 64 65 67 68 70 72 74 77 79 80 79 81 82 80 79 78 81 82 83 83 86 90 92 96 95
75 74 70 65 63 63 66 64 65 62 70 65 61 62 64 64 66 66 66 66 68 70 72 75 77 79 81 81 81 81 81 79 77 78 81 80 82 85 87 90 93 95 93 91
71 71 67 65 67 66 64 64 63 65 68 63 63 62 65 65 66 67 68 70 73 75 76 79 81 82 81 81 80 78 76 77 79 80 81 82 84 87 91 95 92 90 94 99
69 69 68 70 68 66 65 67 66 68 67 68 66 67 66 69 71 72 74 76 76 78 82 83 82 80 78 76 74 75 75 77 79 81 82 84 88 92 92 88 90 95 100 106
66 68 69 69 67 66 66 68 68 68 69 70 70 69 71 73 74 76 77 80 81 81 78 76 75 74 72 73 74 75 76 78 78 79 84 89 91 88 87 92 95 101 107 115
56 61 65 67 67 67 68 70 69 70 71 72 72 73 75 76 78 78 77 75 74 72 70 69 69 70 70 72 74 75 74 76 81 86 88 88 84 88 92 96 102 109 115 121
36 43 52 58 62 64 68 69 69 70 72 73 72 72 72 70 66 67 66 64 62 62 64 67 67 69 70 70 71 74 79 83 85 85 81 83 89 93 99 104 110 116 122 127
30 31 35 38 42 46 49 49 49 53 54 53 56 56 54 55 55 56 58 60 62 63 63 66 66 65 68 73 76 79 81 81 78 80 85 90 95 99 105 111 118 124 127 130
28 30 31 33 35 37 38 39 41 43 43 43 45 48 50 52 55 58 57 56 58 60 60 63 66 69 71 74 77 77 74 76 80 86 92 98 103 108 113 119 124 128 132 136
30 31 33 35 36 37 38 40 43 45 46 48 49 50 50 48 47 49 52 55 57 59 64 66 68 70 71 74 73 72 76 82 87 93 99 104 110 116 120 124 128 133 136 136
23 25 29 32 33 34 37 37 38 37 37 38 39 42 46 49 51 53 55 59 61 64 66 67 68 70 68 69 73 78 83 89 95 101 106 112 116 120 124 128 131 132 130 121
27 27 27 29 30 32 35 35 36 39 42 45 47 50 53 54 57 59 61 62 65 66 67 62 60 63 68 74 79 84 90 96 102 108 113 118 120 122 125 128 127 123 116 109
32 31 33 34 36 38 40 41 44 46 48 51 53 55 57 58 58 61 63 63 60 54 56 59 64 70 75 80 86 92 98 103 108 114 118 120 124 127 125 118 113 109 106 103
40 41 44 44 46 45 47 47 50 52 52 54 56 57 59 59 58 57 53 51 52 56 61 66 71 76 82 88 94 99 105 110 114 119 121 125 126 121 113 110 106 102 99 96
50 50 48 47 49 52 53 54 55 56 54 50 50 51 50 48 47 47 50 53 58 64 68 73 79 85 90 95 100 106 110 115 119 122 124 123 116 110 108 102 100 98 93 88
42 44 44 45 46 46 46 48 47 46 45 45 44 43 43 44 47 51 56 61 67 71 76 82 87 92 97 102 106 110 115 119 122 124 119 112 107 105 100 99 95 91 86 81
35 35 33 31 31 34 35 35 35 36 37 38 40 44 46 50 54 59 64 69 74 79 84 90 94 99 103 107 111 116 119 121 121 116 109 106 101 99 97 92 87 82 79 76
21 23 22 23 26 28 30 32 33 36 39 43 46 49 53 58 63 68 72 77 82 87 92 96 100 104 108 113 117 120 120 119 113 108 104 99 97 95 90 84 79 76 73 69
24 25 25 27 30 33 34 35 38 42 46 50 54 58 62 66 71 75 80 85 89 94 98 101 105 109 114 117 120 120 117 112 107 103 98 96 93 88 82 76 73 70 67 64
29 31 32 35 37 38 41 44 47 51 55 58 62 65 69 74 79 84 88 91 95 100 103 107 111 115 117 120 119 115 111 107 101 95 93 89 84 79 74 71 68 65 61 57
39 41 42 43 45 48 50 53 57 60 63 66 70 74 78 83 87 90 94 98 102 106 110 113 116 119 118 115 113 109 104 98 93 89 85 80 75 71 69 66 63 59 54 49
48 49 50 52 54 57 59 62 65 68 71 74 78 82 85 89 93 97 101 105 109 112 115 117 117 115 113 112 106 100 96 90 86 82 77 72 68 66 64 60 56 52 47 41
56 57 59 60 62 65 67 70 73 75 78 81 85 89 93 97 100 104 108 111 113 114 114 113 112 111 108 102 96 92 87 81 78 74 70 66 63 61 58 54 49 44 37 31
64 66 67 68 70 72 75 77 80 82 85 89 93 97 100 104 107 108 109 110 110 111 110 109 106 101 96 93 88 84 79 76 71 68 64 62 59 55 51 46 41 34 28 24
72 73 74 75 76 78 81 84 86 90 93 97 101 104 106 107 108 107 107 107 107 106 104 101 96 93 90 85 82 77 73 69 66 62 59 56 52 48 43 38 32 25 21 19
79 80 81 83 85 87 89 92 95 99 101 104 105 105 103 103 103 102 103 102 101 97 94 93 90 86 82 79 76 70 66 64 60 57 54 49 45 40 36 30 23 19 17 12

GFSNGP_250_spd_018.txt.gz
Wind_Speed
83 81 82 81 79 73 70 72 65 62 60 58 57 53 52 51 49 48 49 50 52 54 54 56 59 63 67 70 71 73 75 78 82 85 89 88 89 90 89 88 89 91 93 94
72 74 78 75 69 63 66 63 63 60 60 57 54 53 52 48 51 53 54 56 56 58 61 64 67 70 73 73 74 77 80 83 87 90 90 90 91 89 88 90 92 94 95 94
71 72 72 68 63 63 63 61 62 60 61 51 51 50 52 54 57 56 57 59 60 63 66 69 72 74 75 78 80 83 84 88 91 91 90 89 88 88 91 92 95 93 94 98
68 72 67 62 59 61 58 57 57 58 59 51 51 53 55 55 58 59 62 65 67 69 71 72 74 76 80 82 84 86 89 90 90 89 88 87 88 90 92 92 92 96 97 95
58 62 62 61 59 60 58 58 58 59 58 50 55 59 55 56 60 62 63 66 68 69 72 75 79 81 83 86 88 90 89 88 85 85 85 87 87 89 92 93 96 94 92 96
56 61 64 62 60 58 59 60 61 61 59 57 60 57 61 61 62 64 67 69 72 75 77 80 82 84 86 87 86 83 81 82 81 84 86 87 89 91 93 92 91 93 97 102
52 60 63 65 62 61 63 62 60 60 60 61 61 62 65 65 67 70 72 74 77 79 80 82 85 83 82 80 76 77 78 80 83 84 85 87 90 91 90 91 94 99 104 110
45 54 60 62 63 64 64 62 62 63 63 64 65 67 68 70 71 73 75 76 78 81 82 79 76 73 73 75 75 77 78 79 83 84 86 88 89 89 92 96 102 108 112 116
37 41 47 54 59 62 64 64 65 66 67 68 68 69 71 72 73 74 77 77 75 71 68 67 68 69 71 72 75 76 78 81 83 85 85 85 87 92 98 104 109 113 118 122
34 35 39 44 48 53 56 59 62 63 65 66 68 69 70 72 72 70 67 63 60 62 65 64 64 68 70 72 74 77 80 81 80 78 81 87 93 99 105 111 114 120 124 127
27 29 33 36 38 42 46 49 52 55 56 57 57 59 57 55 53 54 56 58 58 58 60 64 68 69 71 74 76 79 76 74 77 82 88 94 101 107 112 118 122 125 129 131
28 28 29 30 32 34 36 36 38 39 41 42 43 46 49 51 51 51 51 53 56 60 65 68 70 72 74 75 71 68 72 77 82 89 95 101 107 113 120 124 128 132 134 128
24 26 28 29 29 30 31 32 34 35 38 39 41 43 45 47 48 51 55 58 61 64 66 68 70 73 67 64 68 73 78 84 91 97 102 108 113 117 119 126 131 130 124 117
23 25 26 27 29 29 29 30 32 34 36 39 42 45 49 53 56 58 59 61 63 65 67 66 62 60 63 68 73 79 85 92 97 103 109 114 117 122 125 126 120 115 111 104
28 29 29 30 31 31 33 35 37 41 44 47 50 52 54 56 58 58 60 59 57 59 56 56 59 64 69 75 81 87 93 99 105 110 115 119 122 126 125 117 111 104 99 97
35 37 39 40 41 43 43 44 46 49 51 53 57 59 60 61 56 50 53 53 50 53 56 60 65 71 77 82 88 94 100 105 110 115 119 123 125 121 114 108 101 97 94 88
46 47 48 48 48 49 52 51 48 50 53 54 51 48 48 47 47 45 46 49 53 57 62 67 73 78 83 89 95 101 106 111 116 121 123 121 115 112 106 99 95 92 89 83
47 49 50 49 48 49 49 47 47 44 41 38 36 36 37 40 43 46 51 55 59 64 69 75 79 84 90 96 101 106 112 118 120 120 118 113 110 102 97 92 90 85 81 77
42 41 43 43 38 36 35 36 36 35 33 33 35 38 41 45 48 52 57 62 66 72 76 81 87 92 97 102 107 114 118 118 117 115 111 107 100 96 92 88 83 78 73 70
24 24 25 27 27 27 28 29 31 33 36 38 40 43 47 51 56 60 65 70 74 79 84 89 93 99 104 110 115 117 116 115 112 108 104 97 92 90 86 81 76 72 68 64
26 26 26 27 28 29 30 32 35 39 42 45 48 52 55 59 64 69 73 78 81 86 91 96 102 107 111 115 115 114 112 109 106 99 96 91 89 85 79 74 70 67 63 57
30 30 31 32 34 36 38 41 44 47 50 53 56 60 64 68 72 76 80 84 89 93 99 105 109 112 114 112 110 109 106 103 98 94 89 86 82 76 71 68 65 62 55 49
38 38 39 40 42 45 47 49 52 55 58 61 64 68 71 75 80 83 86 91 97 102 106 109 112 111 108 106 106 104 99 97 93 87 85 79 73 68 66 62 59 52 46 41
46 47 48 50 51 53 55 58 60 63 66 69 72 74 78 82 85 90 95 100 104 108 110 111 108 106 104 104 103 98 96 91 86 82 77 71 66 63 60 56 50 43 39 33
55 56 57 58 59 61 64 66 68 70 72 75 77 81 85 89 94 99 103 106 110 109 109 106 103 103 102 100 96 93 89 84 80 73 68 65 61 58 54 47 40 35 30 25
63 64 65 67 68 69 71 73 75 77 80 83 86 89 93 97 102 106 109 109 108 106 103 101 100 99 96 93 90 85 81 77 71 65 62 58 56 52 44 38 33 28 23 20
71 72 73 74 75 76 78 80 83 86 89 91 94 98 102 105 108 107 107 104 102 99 97 97 94 91 90 86 82 78 73 67 62 59 56 54 49 42 36 31 26 21 17 13

GFSNGP_250_spd_021.txt.gz
Wind_Speed
54 57 55 61 54 57 69 75 76 75 70 68 65 62 60 56 54 52 52 54 54 53 51 51 54 57 58 60 63 66 70 74 79 81 84 86 89 92 96 99 99 98 95 96
57 63 57 64 67 71 76 77 77 72 68 65 59 57 54 52 52 52 53 55 55 54 54 56 57 59 62 65 68 72 76 80 82 84 88 91 94 97 100 99 95 94 95 97
63 65 70 71 72 68 70 72 70 66 65 62 56 53 52 49 50 52 54 57 57 56 58 60 61 64 67 70 74 78 80 81 84 89 92 95 98 101 97 93 94 95 96 97
66 66 66 65 59 61 67 65 62 60 59 56 55 53 51 49 48 51 55 56 57 59 61 63 66 68 71 74 77 79 82 86 89 93 96 99 97 91 90 93 94 94 97 98
61 62 61 57 53 58 59 54 53 54 53 55 54 52 51 50 50 52 54 56 58 61 64 66 68 71 73 76 80 84 87 91 93 96 96 90 87 90 91 92 94 95 98 97
51 60 57 46 51 58 54 52 53 50 52 54 55 53 50 51 52 54 56 58 60 62 64 67 70 74 77 81 85 88 90 93 94 88 84 86 87 88 89 91 95 96 94 97
41 44 45 45 50 54 50 50 50 50 52 53 53 53 53 55 55 57 59 61 64 66 68 72 75 78 82 85 88 90 90 85 82 83 84 85 87 89 92 94 92 93 97 103
32 35 39 45 51 52 50 49 51 52 53 53 53 53 55 57 58 60 62 65 67 69 73 76 79 82 85 87 86 81 80 80 80 82 85 85 88 91 90 88 93 98 104 110
27 29 37 46 51 53 52 50 51 51 53 55 56 57 59 60 62 64 67 70 72 74 76 79 81 83 81 76 75 75 76 78 82 84 84 86 87 84 89 93 99 105 111 115
26 28 33 41 48 52 54 55 56 57 58 59 60 61 62 64 67 69 71 73 74 75 77 78 74 70 71 71 72 74 77 79 81 82 84 81 84 89 94 101 107 113 117 121
23 26 30 36 42 48 53 56 58 59 60 61 62 64 65 66 67 68 69 69 67 65 64 65 65 67 68 70 74 75 77 79 79 77 78 84 90 96 103 110 115 118 123 127
22 26 27 30 33 37 40 44 47 50 53 56 58 58 58 57 56 55 56 58 59 59 61 63 65 67 69 70 73 75 74 72 72 77 83 90 97 104 111 116 122 128 131 126
21 22 22 23 23 25 28 30 33 35 39 42 44 46 47 47 48 49 52 55 57 59 63 65 65 65 68 70 68 68 67 72 78 83 90 97 103 108 113 121 129 131 124 116
24 26 27 29 29 32 33 35 36 36 37 37 39 41 44 46 47 50 54 58 61 62 61 62 65 65 62 63 62 67 72 78 85 91 97 102 108 115 120 124 121 117 113 104
19 21 23 24 25 27 29 31 33 34 35 36 38 41 43 47 50 54 57 59 59 61 62 60 58 58 58 62 67 73 79 85 91 97 102 109 115 121 121 117 112 106 101 97
25 26 27 28 29 31 32 34 36 38 40 43 45 47 49 52 55 57 56 54 52 50 49 50 53 57 63 68 74 80 86 91 97 102 109 116 119 117 114 108 103 99 93 90
33 33 34 34 37 40 41 43 44 45 47 49 49 51 53 49 48 44 42 41 41 44 48 53 59 64 69 75 81 87 92 98 104 111 116 116 115 110 105 101 97 92 90 85
37 38 39 42 44 46 47 49 50 51 50 49 48 46 41 37 37 37 39 42 47 50 55 60 66 71 76 82 88 92 98 105 111 115 114 111 107 104 100 96 91 89 84 77
43 43 45 48 49 50 51 49 46 44 42 40 38 36 35 35 38 41 44 49 53 58 62 68 72 78 83 88 93 100 107 112 114 113 108 105 102 99 95 90 87 82 75 70
47 49 48 44 39 34 33 32 31 30 30 30 30 33 36 39 43 47 51 56 60 65 70 74 79 84 89 94 101 108 113 112 109 105 102 99 97 94 88 86 80 73 68 64
45 37 29 25 23 24 24 25 26 28 30 32 36 39 43 47 50 54 59 63 67 72 77 81 86 91 96 103 110 113 110 105 101 100 97 95 92 87 84 78 71 66 62 58
32 28 28 27 28 29 30 31 33 35 37 41 44 47 51 54 58 61 66 70 75 79 83 88 93 98 105 110 112 108 103 101 99 95 93 88 83 81 76 69 64 61 56 51
33 33 33 34 35 36 37 39 41 44 47 49 52 55 59 62 66 70 74 78 82 86 91 95 100 106 111 111 106 99 98 95 93 91 86 82 80 73 67 62 59 55 49 43
40 41 41 41 42 44 46 48 50 52 55 58 61 64 67 71 74 78 81 85 89 93 97 103 108 111 111 105 98 96 93 91 87 82 79 77 71 65 60 57 53 47 41 35
46 46 48 49 50 52 54 56 58 60 63 66 69 72 75 79 82 85 89 93 97 101 105 110 112 112 104 98 95 91 88 84 79 77 75 69 63 59 55 51 45 39 33 25
53 54 55 57 58 60 62 64 66 68 71 73 76 80 83 86 89 92 96 100 103 108 112 113 111 103 98 93 89 85 81 76 74 71 65 60 56 53 49 43 38 31 24 18
61 62 63 64 66 68 70 72 73 75 78 81 84 87 90 92 96 99 102 105 110 113 115 107 100 94 90 88 83 79 74 71 67 61 56 54 51 46 41 36 29 22 17 11

GFSNGP_250_spd_024.txt.gz
Wind_Speed
54 50 42 37 30 43 42 47 54 65 68 68 69 73 69 64 61 59 57 55 54 53 54 54 54 55 56 57 58 60 62 65 69 71 74 78 83 87 91 93 97 101 104 108
57 54 47 40 34 24 37 48 56 66 67 68 69 69 64 62 59 59 56 55 54 53 54 55 56 58 59 60 62 63 67 69 71 75 79 83 87 90 94 98 102 105 107 98
52 52 55 53 45 32 42 38 54 65 69 69 69 66 62 58 57 55 53 52 52 52 55 56 57 59 61 63 65 68 70 73 77 80 83 87 90 94 99 103 106 103 97 97
53 51 55 60 54 51 47 55 60 62 64 67 66 62 59 57 55 54 53 51 51 53 54 56 58 60 62 65 68 72 75 77 80 83 86 90 94 99 103 104 98 96 96 98
51 50 49 54 52 52 54 61 57 58 65 66 62 59 57 55 54 51 52 53 52 54 56 58 59 61 64 67 70 73 77 79 82 86 90 94 99 102 99 94 94 96 97 95
45 49 49 50 49 46 48 56 56 58 62 62 57 56 54 55 53 52 53 54 55 55 56 57 59 61 65 69 73 75 78 82 86 90 94 98 99 93 92 91 94 94 94 92
33 37 39 39 37 41 38 49 53 55 58 58 55 54 55 54 53 52 54 55 57 58 59 60 63 65 69 72 74 78 82 86 90 94 96 92 89 89 91 90 91 90 89 95
26 31 29 28 29 32 36 43 47 54 56 54 53 54 56 56 55 55 55 56 58 59 61 63 66 68 71 75 79 83 86 90 92 90 86 86 87 88 88 86 84 88 94 101
22 25 26 24 27 29 29 42 47 50 51 51 52 53 54 54 54 55 56 57 59 61 63 66 68 72 76 79 83 86 88 86 83 81 82 83 84 84 82 83 89 94 100 107
18 19 20 24 28 31 34 43 48 51 50 49 50 52 53 54 55 56 57 59 61 64 67 70 73 76 80 82 82 81 79 77 77 78 79 80 78 79 84 89 95 101 107 113
18 20 22 22 24 28 33 43 49 52 50 50 50 52 54 55 57 59 61 64 66 69 71 74 76 77 76 75 74 73 73 73 74 75 74 74 79 84 91 97 102 107 113 119
19 18 19 20 22 28 34 40 45 49 51 52 54 56 57 59 61 63 65 67 70 70 70 70 68 67 68 69 69 71 69 70 69 69 72 78 84 92 98 102 108 115 121 121
16 18 18 18 18 20 24 31 38 42 46 50 52 55 57 60 61 60 59 60 60 59 59 60 63 64 66 67 68 66 64 63 65 72 77 84 90 95 100 109 117 122 119 114
15 15 15 17 20 22 24 27 30 34 37 40 41 42 43 45 47 48 49 51 53 55 56 58 60 61 61 57 56 56 60 66 71 77 84 89 95 100 106 114 117 115 110 105
17 16 16 17 19 20 21 23 25 29 31 34 36 38 40 43 46 48 49 50 52 54 57 57 55 50 49 50 54 60 65 72 78 84 89 94 100 107 114 116 110 106 102 95
19 18 19 20 21 21 22 24 25 27 30 33 36 39 41 44 46 48 50 51 52 51 49 46 44 46 51 56 61 67 73 79 84 89 95 101 107 114 114 107 104 100 94 87
23 22 22 22 22 24 26 30 32 35 39 42 45 47 49 49 49 49 48 45 44 42 41 43 47 52 57 62 68 73 79 84 90 96 102 108 114 112 104 102 98 93 86 84
26 27 27 28 28 30 33 36 40 43 46 49 51 51 51 48 46 43 41 39 38 39 43 48 53 58 63 68 74 80 86 92 97 103 109 114 111 102 99 96 91 83 83 82
34 35 35 35 36 37 40 42 45 47 44 38 35 34 34 33 32 32 33 36 40 45 50 55 60 65 69 76 81 87 93 99 104 110 115 107 98 97 93 89 84 81 79 74
41 40 40 41 42 42 44 47 47 36 29 27 25 25 25 27 30 34 38 43 48 52 57 62 66 72 78 84 89 94 100 104 109 113 104 97 93 89 88 84 80 77 71 66
46 45 44 43 44 47 49 41 32 26 25 26 28 30 31 34 38 42 47 51 55 60 64 69 75 81 86 91 95 100 105 109 111 104 96 91 88 86 83 79 76 69 64 60
48 47 46 46 47 40 34 30 29 29 31 33 35 37 40 43 47 51 54 59 63 67 72 77 83 88 93 97 102 105 110 113 107 95 91 88 85 82 78 74 67 62 58 52
46 48 47 40 35 33 32 33 35 36 38 40 42 45 49 52 55 59 63 67 71 75 80 85 90 95 99 104 107 111 114 106 96 92 86 83 81 77 73 66 60 56 50 45
38 35 33 33 34 36 38 40 41 43 46 48 51 54 56 60 63 67 71 75 78 82 87 92 97 101 105 109 113 114 105 96 89 83 80 78 74 70 64 58 54 48 43 38
32 33 35 37 39 42 44 47 49 51 53 56 58 61 64 68 71 75 78 82 86 90 94 98 103 107 111 114 111 102 93 82 77 76 76 73 69 62 56 52 46 42 37 31
40 42 43 45 47 49 52 53 55 58 60 62 65 68 72 75 78 82 85 89 92 96 100 105 108 112 113 108 101 89 78 74 73 72 69 66 60 54 51 45 41 36 30 25
50 51 52 53 55 56 58 61 63 65 67 70 73 75 79 82 85 88 91 94 97 101 106 109 112 111 106 97 86 78 72 69 68 66 63 58 52 49 43 39 34 28 23 18

GFSNGP_250_spd_027.txt.gz
Wind_Speed
44 42 34 28 26 27 30 33 37 42 48 54 51 52 57 63 67 65 68 67 63 58 56 55 54 52 51 51 53 54 56 59 61 64 66 70 73 76 80 83 86 91 95 99
41 38 32 21 22 28 33 39 41 46 50 52 53 55 63 67 66 66 67 64 61 58 55 53 51 50 50 51 54 56 59 62 65 67 71 73 77 80 84 88 92 95 98 103
35 29 20 13 21 18 29 29 25 35 40 48 52 56 62 61 62 65 64 60 57 54 52 50 49 49 50 54 57 60 62 65 68 71 74 77 80 83 88 92 95 99 102 106
29 35 34 27 27 26 19 18 23 32 38 49 53 56 59 58 61 63 59 56 53 51 49 48 49 49 52 55 58 61 63 66 69 72 76 79 82 87 91 95 98 102 107 108
36 39 33 35 38 36 36 32 31 26 37 39 48 53 54 56 59 57 54 53 51 49 48 48 50 52 54 56 59 61 65 68 71 73 77 81 86 90 94 98 102 106 102 101
42 41 38 37 35 37 35 29 25 25 25 43 49 51 54 55 54 54 54 52 50 50 51 51 50 51 54 57 60 63 67 69 73 76 81 85 89 93 98 101 100 97 99 98
41 46 40 37 33 35 35 30 27 26 34 43 47 50 54 56 54 52 51 50 49 49 49 50 53 55 59 61 64 67 70 73 77 81 85 89 93 97 96 93 93 94 93 89
34 35 36 29 29 29 17 20 25 29 35 40 45 50 53 53 51 50 49 49 50 50 50 53 56 58 60 63 67 70 74 76 80 85 89 93 93 90 89 91 90 87 86 92
12 23 15 23 18 16 16 16 19 27 31 38 45 48 51 51 50 49 49 49 50 52 54 56 58 60 63 66 69 72 77 81 85 88 88 85 85 87 87 83 81 84 90 96
17 17 18 17 16 13 14 15 17 20 31 35 42 47 50 50 49 49 49 51 53 56 57 60 61 64 66 69 73 78 81 84 83 79 80 83 82 78 76 78 84 90 96 100
16 17 17 16 14 15 16 17 19 20 25 35 41 46 49 50 49 49 50 52 55 57 59 61 64 67 71 74 76 79 76 73 75 78 78 73 70 72 78 84 90 95 100 105
14 12 13 14 15 16 17 18 17 21 25 33 39 43 46 47 48 49 52 54 56 59 62 66 69 71 73 71 67 68 71 73 72 68 64 66 72 79 84 89 96 101 106 113
9 9 8 8 9 11 13 15 17 18 24 30 35 40 44 47 50 52 55 58 61 64 65 65 64 61 60 62 66 69 68 63 59 61 66 71 77 83 90 99 104 109 114 119
9 9 7 7 8 10 11 13 17 20 24 28 33 39 44 47 49 51 52 52 52 53 54 54 56 57 60 62 64 58 54 56 61 66 72 77 83 89 95 100 106 113 120 113
12 10 8 7 7 7 7 8 11 13 15 19 22 26 30 34 38 41 43 45 47 50 52 54 56 57 58 56 52 52 56 60 66 71 77 83 90 96 101 107 112 115 106 103
15 13 11 10 8 8 10 12 14 16 19 21 25 28 32 35 39 43 46 49 51 53 53 53 54 53 49 49 52 56 61 66 72 78 84 91 96 102 108 113 112 102 101 95
16 16 15 14 15 15 15 15 17 20 23 27 30 34 39 44 48 51 53 52 52 51 51 49 46 45 46 51 56 61 66 72 78 85 91 96 103 108 114 105 98 96 92 87
21 20 19 19 18 19 20 23 25 27 30 33 38 41 45 47 48 46 43 41 38 37 36 37 41 46 51 57 62 68 73 79 86 91 97 103 109 113 98 94 92 88 86 82
27 27 26 26 27 27 28 31 33 35 37 40 41 44 36 29 28 26 26 27 29 32 37 42 47 52 58 64 69 75 80 87 92 97 103 109 112 98 92 90 88 86 82 78
32 32 33 35 36 35 37 38 39 40 41 42 46 38 28 25 25 28 30 33 37 41 46 50 55 60 65 71 76 82 87 93 98 102 109 111 95 90 89 87 84 82 76 70
43 44 45 46 45 44 44 43 42 42 44 48 40 31 29 31 33 36 38 42 46 50 54 58 63 67 73 78 83 89 94 99 103 109 111 97 88 86 87 85 82 75 69 63
43 48 52 55 53 50 48 45 44 47 49 42 35 33 35 38 40 43 46 50 54 58 62 66 71 75 80 85 91 96 100 104 110 109 97 87 83 83 84 81 75 68 61 58
35 38 45 51 48 49 48 46 47 48 40 35 36 39 41 44 47 50 54 57 61 65 69 73 78 83 88 92 97 101 106 111 109 93 85 82 81 81 80 73 67 60 56 51
31 32 32 34 37 41 44 46 43 37 36 37 40 44 47 50 53 56 60 64 68 72 76 81 85 90 94 98 102 107 112 110 97 85 79 78 76 76 71 64 58 54 49 43
31 26 26 29 31 32 33 34 36 38 41 44 47 50 53 56 59 63 67 71 75 79 83 87 92 96 100 104 108 111 110 97 84 79 76 73 73 69 62 56 52 47 41 36
36 35 33 32 33 35 37 39 42 45 48 51 53 56 59 62 66 70 74 78 82 85 90 94 98 103 106 109 111 107 96 85 80 76 72 70 67 59 54 50 46 40 34 31
42 42 42 43 44 45 47 48 51 53 55 57 60 63 66 70 73 76 80 84 88 92 96 100 104 107 110 108 102 93 83 79 75 72 68 63 57 50 47 44 38 33 29 26

GFSNGP_250_spd_030.txt.gz
Wind_Speed
21 23 23 21 18 16 16 11 4 9 16 23 42 65 60 49 51 46 52 57 60 58 65 60 58 57 55 53 52 50 49 50 53 56 59 62 64 67 70 73 78 81 85 88
17 27 24 24 17 21 18 16 11 9 15 21 26 34 40 37 39 48 53 56 54 59 58 57 57 54 52 51 50 49 50 53 55 60 63 65 68 70 74 78 81 84 87 90
17 19 27 27 23 28 25 15 12 12 16 16 24 29 34 41 46 50 50 48 54 57 55 55 52 50 50 48 48 49 51 55 58 61 64 68 71 74 78 80 83 86 89 93
19 23 25 22 25 29 29 25 18 18 24 20 16 23 28 36 41 43 42 46 53 53 54 51 50 49 48 47 47 50 53 56 59 62 65 69 72 76 79 82 85 89 93 97
27 24 22 19 20 15 23 14 22 14 18 25 10 14 27 32 34 39 43 48 51 52 52 50 48 47 47 47 50 53 56 58 60 63 67 70 73 76 80 85 89 93 97 102
26 24 24 20 21 14 15 15 21 18 15 13 9 14 17 22 29 36 41 49 50 50 47 46 45 46 46 48 51 53 55 59 62 65 69 72 77 80 84 88 92 98 103 104
23 23 23 22 18 15 11 6 11 13 12 7 7 13 18 25 32 37 44 47 45 44 43 42 43 45 47 48 51 54 58 61 65 68 72 75 80 83 87 92 97 99 96 95
28 25 25 22 19 18 10 5 3 8 4 1 7 14 25 31 36 40 43 43 42 41 42 43 44 46 48 52 55 58 60 64 68 71 76 80 83 88 93 96 93 90 89 84
28 28 22 20 16 13 14 8 11 5 5 5 13 19 27 30 35 37 41 43 43 44 45 46 48 51 53 55 58 61 64 68 72 76 79 84 89 92 89 86 86 81 79 84
26 25 20 22 20 14 11 9 10 4 3 6 12 21 26 30 35 38 41 43 43 43 45 47 49 51 54 57 61 65 69 73 75 80 84 87 86 82 84 79 74 77 82 88
19 19 18 19 16 10 5 5 9 7 3 7 13 17 24 30 34 40 43 45 45 45 46 48 50 53 57 61 64 68 71 75 80 81 80 79 79 77 71 72 76 81 88 96
14 15 15 14 11 11 9 6 6 7 9 10 12 14 17 22 31 37 41 44 46 48 50 52 55 58 61 64 67 71 75 75 73 74 74 74 69 69 71 77 82 88 96 102
12 12 9 5 5 7 9 9 9 10 10 12 14 15 16 18 22 27 34 41 46 49 52 55 58 61 64 67 68 68 66 68 69 70 67 64 67 72 78 85 91 97 102 109
7 6 4 4 4 4 5 7 9 10 12 14 15 18 20 22 25 28 33 38 43 48 53 57 58 59 61 60 61 63 64 64 64 62 62 66 71 77 83 89 95 103 110 117
6 6 5 4 3 4 3 4 5 6 8 11 13 16 18 20 22 25 29 34 38 43 48 52 55 57 58 59 60 60 60 59 57 60 65 70 77 83 89 96 101 106 115 116
8 9 9 9 8 8 9 7 6 7 8 10 11 14 17 20 24 28 33 39 45 48 52 54 56 57 56 55 54 53 51 54 59 64 70 76 83 89 95 100 105 115 108 103
14 12 9 9 9 10 9 10 11 13 14 15 17 20 23 27 31 36 41 47 48 47 46 44 42 41 42 42 43 48 53 59 65 71 77 84 89 95 100 105 112 101 99 96
13 12 13 14 14 15 15 16 18 20 20 22 24 26 30 33 37 40 42 39 33 32 32 32 33 36 39 44 49 55 60 66 72 78 84 90 95 100 105 111 98 94 91 89
17 18 19 20 22 23 23 24 25 26 28 30 32 33 36 39 40 42 34 31 29 31 33 36 39 43 47 52 57 63 67 73 79 84 90 97 101 107 109 94 90 87 85 82
24 24 26 29 29 30 30 31 34 35 36 37 38 40 40 42 44 41 33 33 34 36 39 42 47 51 55 60 65 69 74 81 87 91 97 103 108 105 91 87 85 84 80 77
31 32 33 34 37 38 40 42 44 45 46 46 46 45 44 44 47 40 36 37 39 42 45 50 54 58 62 67 72 77 82 88 92 98 103 109 103 90 86 83 82 79 74 70
35 34 35 36 39 42 44 47 50 51 52 52 49 45 45 47 46 40 39 41 44 48 52 56 61 64 69 74 79 84 89 93 100 104 109 101 87 83 82 80 77 72 66 58
32 32 34 36 38 42 46 49 50 50 48 43 42 46 47 48 42 41 43 46 50 54 58 62 66 71 76 81 86 91 95 101 105 107 102 87 81 79 78 75 70 63 55 52
33 33 35 33 32 31 32 35 35 35 35 38 39 42 41 39 41 44 48 52 56 60 63 68 73 78 83 87 92 97 102 106 106 100 87 80 77 76 73 67 60 52 49 46
38 38 37 34 32 30 30 28 27 28 30 31 32 35 38 42 46 50 54 58 61 66 70 75 80 84 89 94 98 103 106 103 97 88 79 75 73 72 66 58 49 46 44 39
42 42 40 38 36 36 35 34 34 34 35 37 40 42 45 49 53 56 60 64 68 72 77 81 85 91 95 99 103 102 101 95 86 77 74 71 69 64 56 47 43 41 37 32
45 44 43 43 43 43 42 42 43 43 44 46 48 50 53 56 60 63 67 71 75 80 83 88 93 97 100 101 100 98 92 82 76 73 69 66 61 54 45 41 39 36 31 25

GFSNGP_250_spd_033.txt.gz
Wind_Speed
11 17 18 29 30 37 37 32 19 17 17 20 24 35 48 60 74 78 69 56 51 51 49 50 51 51 51 55 57 57 57 55 54 54 55 56 56 56 58 61 66 70 73 77
18 24 23 27 26 35 37 39 28 17 7 6 17 20 25 39 55 65 59 52 50 50 49 49 50 50 49 54 54 55 54 53 54 54 55 55 56 57 60 64 69 72 77 81
23 23 18 21 27 33 36 36 33 33 32 25 19 16 15 21 29 39 47 47 50 50 50 52 47 43 45 52 52 54 54 54 53 52 54 55 57 58 62 66 70 74 79 83
22 16 17 13 22 34 38 34 42 41 33 33 29 29 30 35 39 39 40 44 48 49 49 45 41 40 46 50 52 52 52 50 50 51 54 55 57 60 65 69 74 77 80 84
9 15 8 17 24 33 32 32 38 39 36 35 24 24 27 32 35 35 37 37 36 36 34 33 37 41 46 48 50 48 48 48 49 51 53 55 59 64 69 73 76 80 83 87
11 10 6 11 16 24 28 31 34 29 27 26 21 19 13 13 20 25 25 22 25 25 27 32 37 40 43 45 44 44 45 47 49 52 55 58 63 67 71 75 79 83 87 93
16 12 6 2 5 11 16 18 24 27 24 25 15 12 13 10 5 8 16 17 20 24 28 32 36 39 41 41 41 43 45 47 50 53 57 61 66 71 74 78 83 88 93 97
16 12 11 11 6 3 5 6 9 15 10 9 2 9 10 9 6 3 6 16 21 24 29 33 36 38 38 39 40 42 45 48 51 55 60 66 70 74 78 83 87 91 97 100
16 15 13 15 10 11 9 7 6 8 4 4 6 6 4 4 3 4 7 15 21 27 32 34 35 37 38 39 41 44 46 50 55 61 66 70 73 77 81 85 91 95 93 92
18 12 14 15 16 17 17 12 2 2 4 5 8 7 3 1 4 11 14 20 24 29 33 35 36 38 40 41 43 47 52 57 61 65 68 72 76 79 84 89 88 88 85 80
19 26 23 26 24 14 9 9 12 11 9 9 9 7 5 6 9 13 19 24 28 32 36 38 39 41 43 46 50 54 57 60 63 68 71 75 80 84 83 82 82 79 77 82
21 17 14 10 6 10 6 4 13 16 13 13 15 14 11 10 12 16 21 26 30 34 38 41 44 46 49 52 55 58 61 64 67 71 76 79 77 76 78 77 74 75 80 87
17 11 10 7 4 5 7 6 8 10 11 14 16 19 19 17 16 15 17 21 26 33 39 44 48 51 54 57 60 62 64 67 72 74 72 70 72 74 71 70 75 80 87 94
8 6 6 6 6 4 5 7 7 7 8 11 14 16 17 18 20 21 22 24 27 30 35 40 45 49 53 56 59 63 66 67 66 65 66 66 63 64 69 75 82 91 97 101
11 8 5 4 6 6 6 6 5 7 7 7 8 9 12 14 16 18 19 22 26 30 35 40 45 48 52 54 57 59 60 59 57 53 53 58 63 69 75 81 87 94 99 107
7 5 5 6 6 6 6 6 5 5 4 4 6 8 9 10 13 17 20 25 28 33 40 44 46 47 47 46 43 41 42 44 48 53 58 64 70 76 81 88 94 98 106 108
10 7 11 12 12 11 11 9 8 8 8 9 12 13 14 16 19 23 28 30 35 38 44 44 42 39 36 37 38 41 45 50 55 60 65 71 77 82 88 94 98 106 105 100
12 14 17 17 17 15 14 14 14 15 16 17 18 20 21 23 26 29 33 35 38 42 42 39 37 36 37 40 44 47 52 57 62 67 73 78 83 89 94 99 104 101 96 93
18 20 19 19 18 17 17 18 19 21 22 24 26 27 29 31 34 37 39 40 42 45 41 37 37 39 42 45 49 54 59 63 69 74 79 85 90 95 100 102 96 92 88 85
20 20 21 20 20 21 23 25 27 28 30 32 34 37 40 42 44 45 46 47 46 47 42 37 38 42 46 50 55 60 65 70 74 80 86 91 96 102 102 95 89 84 81 78
23 22 22 23 24 26 28 31 33 36 38 42 44 46 48 50 51 51 52 51 48 48 40 38 42 46 51 56 61 65 70 75 81 87 93 98 102 99 93 85 81 77 74 69
29 29 29 30 31 34 35 34 34 35 38 42 46 48 49 49 48 47 45 45 46 41 38 42 47 52 57 61 66 71 77 82 88 93 99 100 96 90 84 79 74 70 65 59
36 37 37 36 34 31 29 29 30 33 36 38 36 36 36 36 36 37 40 40 37 39 44 48 53 58 63 67 72 78 84 90 94 100 99 95 87 82 77 72 69 61 56 51
35 33 31 31 30 30 30 31 33 33 33 31 28 28 28 28 28 29 32 37 41 46 51 55 60 65 70 75 80 85 91 96 100 98 93 84 78 75 71 66 59 53 48 45
36 36 36 36 36 37 37 38 38 37 37 35 34 34 34 34 36 38 41 45 49 54 58 63 68 72 77 82 86 91 96 98 96 90 83 76 73 70 64 57 51 46 43 39
44 44 44 44 44 44 43 42 42 42 41 41 40 41 41 42 44 46 50 53 58 62 66 71 76 80 84 88 92 96 97 92 88 83 76 72 69 64 56 50 44 41 37 33
49 48 47 47 46 46 46 46 46 46 46 47 47 48 49 50 53 55 58 62 66 70 74 79 83 86 90 93 95 95 89 88 84 78 72 68 63 55 48 43 39 36 31 27

GFSNGP_250_spd_036.txt.gz
Wind_Speed
3 6 10 19 19 25 30 37 29 22 29 20 16 21 27 36 43 53 60 59 56 56 55 52 50 47 43 43 46 47 48 49 51 57 60 62 63 62 61 60 60 62 65 66
4 6 10 19 22 27 33 38 26 27 21 18 11 8 15 21 30 44 57 54 51 50 49 49 45 42 44 46 47 48 49 48 50 57 60 62 63 61 58 59 61 64 66 69
3 9 7 17 20 26 34 40 43 45 34 22 11 8 11 16 23 40 54 49 47 45 47 46 44 43 45 46 47 48 49 49 50 57 59 59 59 59 58 60 62 65 68 71
7 5 13 15 19 24 36 42 43 44 48 38 32 31 29 29 27 31 51 46 43 41 43 43 44 46 45 47 47 46 47 46 48 54 55 56 57 57 58 60 63 66 69 72
15 4 14 14 19 24 29 42 41 40 42 40 38 32 35 35 31 32 44 48 44 44 45 45 45 46 46 47 45 42 41 41 46 50 52 53 55 56 58 61 64 67 71 76
14 5 3 6 11 19 28 30 38 32 36 37 34 28 33 40 35 14 30 39 42 45 47 46 44 43 43 40 40 38 37 39 43 46 48 50 53 56 59 62 66 71 75 78
15 9 1 4 7 11 16 18 25 29 28 28 27 28 25 23 27 20 4 16 30 35 36 36 34 33 33 33 32 30 32 36 40 41 44 49 53 57 60 64 69 73 77 82
17 16 11 8 7 7 8 14 15 21 22 16 19 16 19 22 21 17 11 8 8 11 16 18 18 17 17 18 21 26 30 34 36 40 46 50 54 58 62 66 71 77 82 87
14 11 12 10 9 9 10 14 14 10 12 11 9 9 11 10 13 14 12 10 8 6 7 8 10 13 16 19 24 28 32 36 39 43 48 53 57 61 66 71 76 81 86 91
19 18 17 15 18 17 15 13 15 12 8 7 6 3 3 6 6 8 8 5 2 4 6 9 12 15 19 23 28 33 36 39 44 48 53 57 61 66 71 76 80 85 90 95
9 21 20 27 27 17 10 5 10 12 10 11 10 9 7 6 7 7 6 5 6 7 9 12 16 21 25 29 33 37 41 46 50 54 59 63 68 72 76 80 84 88 90 90
18 16 28 21 18 14 10 4 9 15 14 14 15 14 12 10 9 8 9 10 12 14 16 19 23 28 32 36 41 45 49 53 57 61 65 69 73 76 79 83 84 83 78 77
17 23 15 10 9 7 5 3 5 9 11 11 12 15 14 11 11 12 14 17 19 21 22 25 29 33 39 44 48 52 56 60 63 65 68 72 74 77 77 72 68 69 75 81
26 14 11 9 9 9 7 7 7 8 10 10 10 11 14 14 14 15 17 20 23 25 26 29 32 37 41 46 50 53 56 59 62 65 67 66 61 58 61 67 73 79 82 87
18 15 13 13 11 10 7 7 8 8 9 8 8 10 10 10 13 15 17 20 21 22 23 27 31 37 42 45 49 52 55 56 54 51 50 52 56 61 66 72 77 82 88 95
19 17 12 9 10 10 8 7 5 4 4 4 4 5 6 9 11 13 15 17 19 22 27 31 34 38 43 45 45 44 41 42 45 49 53 57 62 67 72 78 83 89 94 97
18 12 10 8 8 11 11 11 11 10 8 8 8 8 11 14 15 17 20 23 26 29 32 34 37 39 43 46 44 41 41 44 49 53 57 62 67 73 79 84 89 95 98 102
14 14 12 13 14 16 16 15 15 13 11 11 14 16 18 20 23 26 29 31 34 37 38 41 41 43 44 48 42 41 44 48 52 57 63 68 74 80 85 90 95 98 100 96
18 17 17 21 21 22 21 19 18 18 18 18 19 21 24 28 31 34 38 41 43 45 47 47 47 48 47 47 42 42 46 51 56 63 69 75 81 85 90 96 99 96 89 86
22 22 24 26 27 28 26 23 22 22 22 24 26 30 33 37 40 43 47 49 50 50 49 48 47 45 46 43 42 46 51 57 64 70 76 82 88 91 96 97 92 86 83 79
30 29 27 27 27 27 26 26 26 25 28 31 34 35 34 36 39 41 43 44 44 44 42 41 39 41 39 42 47 53 58 65 71 77 84 88 93 96 95 88 82 78 76 70
29 28 28 27 28 28 29 29 30 32 34 33 31 30 32 34 35 34 32 29 28 28 30 32 34 39 44 50 55 61 66 72 78 84 88 94 95 92 86 78 75 71 67 60
33 33 33 34 34 33 33 34 35 33 30 30 30 31 33 35 35 33 31 31 32 34 37 40 44 48 53 58 63 69 75 80 85 89 95 95 90 82 74 71 69 64 57 50
41 40 41 40 38 39 38 36 33 32 32 32 34 37 38 39 39 38 38 39 40 42 45 48 52 57 61 67 72 77 82 86 91 95 94 90 82 75 70 66 61 54 47 41
45 43 42 41 39 37 35 34 34 34 36 39 42 43 43 43 44 44 45 46 48 50 54 57 61 65 70 75 80 84 88 92 94 92 90 82 74 68 63 58 51 44 40 38
47 45 44 43 42 41 41 41 41 42 44 45 47 47 46 47 48 49 51 53 55 58 61 65 68 73 77 82 86 89 91 91 90 87 81 73 67 62 55 48 42 38 36 32
51 50 49 48 47 47 46 46 47 48 48 48 48 49 49 50 52 54 56 59 62 64 68 72 75 79 84 87 88 88 86 86 84 82 74 68 62 56 48 41 38 35 31 27

GFSNGP_250_spd_042.txt.gz
Wind_Speed
14 17 20 25 16 13 9 12 16 22 22 30 40 44 47 38 33 32 30 28 31 36 36 40 45 44 46 46 51 58 61 58 49 47 47 49 52 56 58 56 55 56 58 57
14 18 18 13 13 1 8 15 21 23 30 30 35 34 28 25 21 16 12 12 13 16 21 28 33 37 37 37 41 49 54 50 47 47 46 49 53 54 55 54 53 57 60 61
17 16 11 14 3 4 13 20 23 25 29 32 27 24 33 27 19 10 8 9 11 14 19 22 24 24 25 32 38 42 41 41 43 44 47 49 50 51 47 53 55 59 63 67
17 9 16 9 2 7 17 22 28 23 33 30 33 26 37 35 30 27 26 27 26 23 21 20 21 23 25 27 29 30 33 37 39 42 43 43 45 46 50 53 58 61 64 66
12 13 15 10 1 7 16 21 27 23 29 27 30 23 28 32 29 30 26 21 19 19 22 24 25 24 23 24 26 29 31 33 34 35 38 43 45 48 55 58 59 62 63 61
14 21 21 12 5 11 14 20 21 22 19 29 24 21 26 21 27 25 25 26 25 23 21 19 17 15 17 20 22 24 26 28 30 34 38 40 49 51 53 57 59 58 53 50
14 18 19 9 8 14 18 16 19 18 15 21 19 17 15 23 22 21 18 18 14 15 14 12 11 9 14 17 17 19 24 25 22 32 41 45 51 55 56 52 49 46 46 48
19 15 16 14 15 17 14 12 21 27 26 10 16 9 9 10 14 18 13 24 8 10 11 3 13 3 5 16 15 14 18 34 33 43 49 51 47 45 42 41 44 47 50 54
19 19 11 12 16 15 14 21 22 19 21 12 3 3 7 6 6 8 7 9 8 8 11 15 15 19 25 24 26 29 34 38 34 31 32 33 35 38 42 45 49 53 57 61
20 13 16 14 14 16 16 19 16 20 19 10 3 6 2 4 10 7 5 5 4 4 5 6 8 11 14 14 13 15 18 21 23 28 34 37 41 44 48 51 56 60 65 69
22 16 17 12 15 17 22 14 13 18 20 11 8 3 3 1 1 3 6 2 4 4 5 7 7 7 9 11 14 17 20 23 27 32 36 41 45 49 54 59 64 68 72 76
22 18 15 14 17 21 17 16 8 11 9 9 10 7 6 6 5 3 4 7 7 7 7 8 9 11 13 15 17 18 21 25 30 35 41 46 51 55 59 63 66 69 72 74
25 22 18 14 17 24 15 15 13 7 8 8 9 9 9 8 8 7 6 6 8 10 11 11 12 13 14 16 20 24 28 33 38 42 46 51 55 57 59 61 64 66 69 71
28 23 17 18 20 19 17 16 15 12 10 9 10 9 9 8 7 7 8 6 7 8 9 10 12 15 19 23 27 31 35 39 43 47 52 55 58 59 62 63 64 63 64 69
27 22 18 21 24 17 16 14 16 11 9 10 10 8 8 7 6 6 6 6 7 8 11 15 20 24 27 31 35 40 44 48 51 53 56 59 61 61 59 59 60 64 70 76
24 24 25 25 20 18 13 16 13 9 6 6 6 6 6 6 8 7 7 8 11 16 20 24 28 32 37 41 46 50 53 56 57 58 58 56 53 53 56 62 68 74 80 85
30 29 28 21 21 19 16 16 15 12 10 8 7 6 7 8 9 12 14 17 20 24 28 33 37 41 45 47 48 48 48 46 44 42 42 46 52 58 65 71 78 84 89 94
32 32 24 24 23 21 18 17 16 14 13 13 13 13 14 15 17 19 21 24 27 30 35 36 37 35 33 32 33 33 34 35 39 44 50 55 61 68 74 81 87 92 95 94
33 32 28 27 26 25 23 20 18 16 17 18 20 22 23 23 24 26 29 30 32 36 35 34 35 35 34 36 39 41 43 46 49 55 60 65 70 76 83 89 95 96 91 84
32 32 30 28 29 29 27 26 24 24 22 24 25 26 27 29 30 32 33 35 38 37 35 36 38 38 39 41 44 46 50 54 58 63 68 73 78 85 90 96 97 90 84 79
32 32 31 33 31 29 30 29 27 27 28 29 30 31 32 34 35 35 38 40 41 37 37 39 41 42 43 46 49 51 55 59 64 69 74 79 85 91 95 98 91 85 77 72
33 32 32 33 34 33 32 31 31 31 31 32 34 35 36 36 37 39 41 44 40 40 42 43 44 46 48 50 53 57 60 64 70 75 80 85 91 95 98 94 85 76 71 64
37 36 36 35 35 35 35 34 34 34 34 34 35 36 37 39 41 44 45 43 43 43 44 45 47 49 52 55 59 62 65 70 75 80 85 90 95 97 94 87 78 71 63 54
42 41 39 38 40 41 40 38 37 37 37 38 39 40 42 46 47 48 47 45 45 46 47 48 51 54 58 60 63 66 70 75 79 85 89 95 96 94 89 81 72 65 55 48
49 48 47 47 46 44 43 43 43 42 43 44 45 47 49 51 50 48 47 47 48 49 51 53 56 59 62 65 68 71 75 79 83 88 93 95 91 90 84 76 66 59 49 44
55 55 54 54 52 50 49 49 49 48 50 50 52 52 50 49 49 49 50 51 53 55 57 59 61 64 67 70 73 76 80 83 87 92 94 91 88 86 79 69 62 53 46 41
58 57 57 57 55 55 54 54 54 53 54 55 55 53 51 52 53 55 55 56 58 60 62 63 66 68 72 75 78 80 83 87 91 94 91 84 83 80 70 63 56 48 42 39

GFSNGP_250_spd_045.txt.gz
Wind_Speed
21 18 15 15 15 21 23 22 25 29 24 22 30 29 30 44 45 38 35 32 31 32 30 34 38 40 42 41 47 52 61 64 64 62 56 53 47 44 45 45 48 52 55 57
14 13 12 13 16 16 16 12 7 8 17 15 25 25 26 26 29 27 22 15 11 10 12 15 19 26 32 35 40 43 41 49 51 50 50 50 48 45 43 44 48 50 53 52
13 11 10 12 14 14 6 7 13 16 20 22 29 28 27 27 24 25 19 13 7 3 5 8 9 12 14 16 21 28 34 36 40 42 41 43 43 42 42 45 48 50 49 51
10 7 9 13 15 13 5 10 13 19 17 28 34 29 21 28 30 30 29 29 28 26 24 23 23 24 24 24 22 22 24 27 29 32 36 37 38 40 44 47 47 47 51 55
7 9 13 21 13 7 6 14 15 19 20 25 31 27 19 23 30 29 29 28 29 28 27 26 26 26 25 23 20 19 19 20 22 24 28 32 35 40 44 45 45 46 55 59
8 15 19 21 16 10 8 13 19 18 25 21 27 25 19 10 19 22 25 29 32 33 33 32 28 26 25 23 20 17 16 15 19 22 26 30 36 37 44 48 49 45 52 57
12 18 20 21 16 12 12 16 18 24 25 21 20 23 15 10 14 12 20 20 21 24 21 17 18 18 14 12 11 12 10 14 17 23 28 33 35 39 41 43 50 55 58 59
14 19 22 25 18 17 16 19 20 22 25 19 19 18 16 4 11 6 10 17 13 11 19 12 11 11 15 9 11 9 11 16 19 23 29 31 34 38 44 52 57 61 61 60
15 20 21 17 17 16 12 16 19 22 25 17 17 17 14 9 4 3 2 7 4 3 9 15 12 4 3 12 4 9 14 20 23 26 27 30 35 46 47 47 51 53 55 58
17 23 21 16 11 8 9 16 17 17 17 11 12 16 13 11 7 3 1 1 6 5 3 10 12 12 12 13 15 17 18 22 29 33 38 41 43 40 40 43 48 53 57 62
18 23 20 16 11 10 14 14 18 14 13 7 4 10 12 10 8 7 7 5 2 2 3 4 6 9 11 14 14 14 15 18 21 24 27 31 35 40 45 49 53 57 61 65
22 23 21 16 12 14 16 14 16 11 12 8 5 8 9 7 7 8 7 5 3 4 4 5 6 7 8 9 11 13 16 19 23 29 34 39 43 47 51 55 59 63 66 68
26 25 19 18 15 19 21 16 15 12 10 11 9 7 8 8 6 6 6 5 3 3 4 6 7 8 10 12 15 18 23 27 32 38 43 47 50 54 57 60 64 65 60 60
26 29 27 22 18 19 23 15 15 14 11 11 13 11 10 9 8 7 9 7 6 7 7 8 9 12 16 20 24 28 33 38 44 49 53 56 58 58 57 53 50 53 60 67
32 33 29 20 18 21 23 13 14 12 12 12 11 11 10 9 9 8 8 9 8 6 8 11 16 20 24 29 33 38 42 42 40 38 38 37 36 39 44 51 57 63 71 76
35 34 29 23 24 25 20 15 15 14 13 12 9 9 10 8 7 6 6 7 9 12 16 19 24 28 33 35 36 35 33 33 35 37 39 42 45 49 54 59 66 71 77 85
32 31 28 25 30 24 20 17 17 17 15 13 10 9 9 8 8 9 11 14 16 19 22 26 30 35 36 34 34 36 37 38 40 42 46 49 53 57 61 67 73 79 87 92
32 31 30 28 30 24 23 19 19 20 18 15 15 14 14 14 15 17 17 19 22 25 29 33 35 39 37 34 36 38 40 42 44 47 51 55 59 63 69 75 80 88 94 96
30 28 31 31 28 25 25 23 23 23 21 19 19 19 19 20 22 23 26 28 29 32 34 37 38 42 38 37 40 43 45 47 49 53 57 61 65 70 76 80 88 94 96 97
30 32 34 32 29 28 29 28 27 25 24 24 23 22 22 24 26 28 30 32 34 36 38 39 43 40 39 41 44 46 48 51 53 57 62 66 71 75 81 87 94 98 97 88
34 35 34 29 28 29 29 29 28 26 28 28 27 25 26 28 30 31 34 36 36 38 40 42 43 41 43 44 46 49 51 55 58 62 67 72 76 81 87 93 98 98 88 81
34 32 29 29 30 31 30 29 30 30 31 31 30 29 29 30 32 35 36 38 38 41 44 46 46 46 45 48 49 52 56 59 63 68 72 77 82 87 92 97 96 90 82 73
35 34 33 32 32 31 31 32 33 33 34 36 36 35 36 34 35 36 37 39 42 45 48 48 47 48 49 51 54 57 61 64 67 71 76 82 87 91 94 94 91 81 77 68
38 39 38 37 35 36 36 37 39 40 40 40 39 39 38 39 40 41 43 45 47 49 48 47 48 50 52 55 58 61 64 67 71 76 81 86 91 93 92 89 84 76 70 64
42 42 42 42 41 41 41 42 44 43 43 42 43 43 45 46 46 47 48 50 51 50 49 50 53 55 58 60 63 66 69 72 76 82 85 90 92 92 87 84 77 70 65 59
48 49 50 49 48 48 48 48 50 49 49 49 50 51 51 52 52 53 54 55 55 54 54 55 57 59 63 66 69 71 74 78 81 85 90 92 91 85 82 77 69 65 61 54
56 55 56 56 56 56 56 56 56 57 57 57 56 56 56 57 57 57 59 60 61 60 58 60 63 66 68 71 75 78 81 84 87 90 93 88 82 80 78 72 65 61 56 47

GFSNGP_250_spd_048.txt.gz
Wind_Speed
26 27 25 25 26 25 26 27 28 29 31 34 32 33 29 32 37 38 38 52 45 40 40 42 40 42 45 48 54 54 53 52 55 54 52 54 60 69 64 54 47 44 48 50
23 21 21 22 20 20 21 25 22 18 22 21 22 24 25 26 29 33 28 34 37 32 26 22 25 26 26 29 32 34 33 38 41 42 47 53 57 59 57 51 51 50 47 50
22 21 19 18 18 19 18 18 16 10 10 15 16 23 23 22 29 27 23 24 24 22 15 11 5 4 5 11 16 19 26 28 32 39 46 49 44 42 43 45 47 47 46 47
18 15 16 16 15 18 19 16 13 16 17 19 17 24 28 23 27 16 19 18 19 22 20 16 11 11 12 16 15 14 15 17 19 21 22 26 31 32 34 39 42 44 45 43
16 16 14 14 18 23 27 23 16 13 18 18 19 24 23 21 24 13 14 18 17 21 25 27 28 29 29 27 25 24 23 20 19 20 18 21 23 26 30 36 40 42 46 51
17 13 12 14 21 23 20 17 16 15 20 20 20 20 16 19 18 11 9 12 17 20 25 26 29 30 31 30 30 31 28 20 20 17 18 20 28 30 33 40 42 46 49 50
14 11 11 18 27 24 20 18 14 20 24 22 20 19 15 14 14 2 6 10 15 16 14 20 19 19 23 26 25 20 18 20 16 16 18 22 27 31 35 36 38 40 45 51
13 12 15 22 26 26 23 17 19 21 25 26 21 17 16 14 14 3 1 9 7 13 6 6 10 12 10 10 9 9 14 11 12 15 18 20 26 29 32 34 38 40 42 49
16 15 18 21 27 28 24 21 21 22 25 24 13 14 14 13 11 15 11 12 7 5 6 4 12 8 8 8 4 3 2 5 8 12 17 20 21 26 31 35 39 43 50 50
16 15 21 22 23 25 24 16 18 23 21 16 7 11 10 15 11 5 7 4 4 1 4 9 11 10 8 7 7 9 13 13 12 15 18 22 25 30 35 39 43 45 49 55
16 17 21 25 25 24 19 16 15 16 14 12 7 10 8 11 13 11 8 6 4 4 6 6 7 8 7 8 10 11 12 13 15 18 21 24 28 33 38 44 48 53 57 61
17 17 17 22 25 20 19 19 16 17 14 10 11 10 11 9 11 13 11 9 7 6 4 4 4 5 6 8 10 12 15 17 20 24 29 34 38 43 48 54 57 57 55 51
22 18 18 21 25 21 19 17 17 15 17 13 13 12 12 12 13 14 12 8 7 7 8 7 7 8 9 10 13 17 21 25 29 33 37 41 42 39 32 32 37 44 50 54
25 22 19 21 23 22 21 20 20 15 16 13 13 12 12 14 14 15 13 12 12 12 11 9 7 8 12 15 19 24 28 31 31 31 30 31 35 37 38 42 45 49 53 58
28 27 24 24 27 26 25 23 20 16 16 13 13 13 13 13 12 11 10 10 9 9 8 8 12 15 18 22 25 31 32 29 30 31 33 36 39 42 45 48 52 57 62 68
33 32 29 29 31 31 27 26 22 18 19 14 13 14 13 11 11 10 9 8 8 11 13 16 19 22 26 30 32 36 35 33 33 35 39 42 44 47 50 54 58 63 69 77
37 36 35 33 32 32 30 30 25 20 20 16 15 14 13 10 11 12 13 13 15 17 19 22 25 29 32 35 37 41 39 37 38 41 43 46 49 52 56 60 65 70 75 83
41 40 38 34 35 35 30 28 28 23 22 21 16 19 19 18 18 18 18 19 21 22 25 28 32 35 36 37 40 41 38 39 41 44 47 51 54 58 62 66 70 75 82 88
41 38 34 36 38 37 34 31 28 25 24 24 21 22 24 23 22 22 22 24 26 28 30 32 35 36 36 39 42 42 43 44 45 48 51 53 58 63 66 69 74 81 86 91
33 30 34 36 36 36 35 33 26 27 28 26 23 25 26 25 25 25 26 28 30 31 33 35 37 38 39 42 45 45 45 48 50 51 53 58 61 65 70 75 81 86 92 92
35 33 37 37 37 38 36 33 28 26 25 23 25 25 26 26 27 28 29 30 32 33 35 36 37 40 42 46 47 46 48 50 51 54 58 62 66 70 75 81 87 92 92 84
38 37 40 41 39 36 33 32 30 28 26 26 27 28 29 30 31 31 31 34 36 35 37 39 42 45 47 50 49 50 51 54 56 59 63 67 72 75 82 86 91 92 84 78
37 37 38 36 35 35 34 32 30 29 30 29 30 33 35 34 33 33 36 38 39 40 41 44 46 48 50 52 53 54 57 60 62 66 69 74 78 83 86 91 91 87 82 77
40 40 39 39 39 40 39 37 36 35 35 36 36 36 37 36 37 39 40 41 43 46 47 49 51 52 55 58 60 62 64 66 68 71 75 80 84 89 92 90 84 79 77 72
43 43 42 40 41 42 41 41 41 40 40 40 41 41 41 41 42 43 45 47 50 52 54 55 57 57 60 63 65 67 69 71 74 78 82 85 87 92 89 80 78 74 71 68
43 42 42 43 44 43 43 44 45 44 44 44 44 45 47 47 48 51 53 54 56 58 60 61 61 63 65 68 71 72 74 77 81 85 88 89 90 86 81 75 73 68 65 62
52 51 50 50 49 49 50 50 50 50 50 51 51 52 54 56 56 58 60 61 63 64 66 67 65 67 71 75 77 78 81 84 87 89 90 89 85 78 75 73 66 60 59 57

GFSNGP_250_spd_051.txt.gz
Wind_Speed
35 37 36 34 32 33 32 31 29 33 35 37 38 40 44 48 49 50 49 52 52 52 55 52 53 47 43 47 50 53 56 62 63 63 65 66 63 64 67 68 65 62 61 66
29 29 27 27 29 28 26 28 29 30 30 32 35 36 36 34 33 34 30 37 43 46 51 49 42 38 35 33 32 34 38 41 44 47 49 50 52 53 52 50 54 53 54 56
27 25 26 27 27 26 25 24 24 27 29 25 22 24 27 29 31 24 24 33 35 40 42 40 37 28 20 17 14 14 19 24 26 28 31 33 36 39 38 39 43 45 45 42
24 25 25 24 23 23 25 25 25 23 21 22 26 28 31 25 27 18 23 30 28 29 29 27 25 19 12 7 2 2 5 8 11 9 11 15 16 18 18 20 25 28 29 34
25 24 22 23 24 24 24 24 21 21 18 23 24 25 23 25 20 15 22 23 21 27 25 24 20 18 15 12 10 15 17 15 21 19 17 15 13 12 16 14 11 14 25 30
22 21 22 22 23 22 23 25 24 23 22 29 24 19 22 22 17 12 14 17 17 23 26 22 23 19 19 21 24 28 26 24 27 30 24 24 19 15 19 22 19 24 40 42
20 22 21 19 20 21 25 26 27 26 25 27 24 26 22 19 15 8 16 13 17 16 18 22 23 25 25 26 23 17 14 18 14 13 14 17 12 15 16 22 28 37 45 44
20 21 17 13 17 23 26 28 24 23 24 28 30 29 19 13 10 7 14 17 20 19 11 11 13 13 17 19 20 18 15 12 8 6 5 4 8 12 17 23 29 34 40 44
22 20 16 14 16 24 28 28 27 28 27 30 31 24 13 9 8 8 11 15 18 18 6 4 6 8 7 10 11 9 10 7 1 3 6 10 14 17 22 26 28 32 35 38
23 19 15 15 17 20 30 28 29 29 29 24 23 19 16 7 6 9 8 10 15 15 14 10 7 6 7 8 9 10 10 10 10 11 12 14 17 21 24 28 32 36 41 46
23 19 17 16 20 20 23 24 22 24 21 20 18 17 19 11 8 8 10 10 11 13 13 11 9 8 7 8 9 11 11 12 14 16 18 21 24 28 32 36 39 42 42 40
22 22 18 14 17 21 24 25 24 25 23 22 17 15 17 18 13 12 13 13 11 12 14 14 13 11 10 10 10 12 13 16 20 23 26 29 31 32 31 30 32 37 43 44
27 21 17 15 15 19 24 26 22 23 17 20 18 15 15 18 17 16 17 16 16 13 14 14 14 13 13 13 13 15 18 22 27 30 30 28 30 31 33 35 38 43 45 48
27 23 21 19 17 18 21 24 23 24 21 19 18 15 15 15 17 19 18 18 18 15 15 15 15 14 14 16 18 21 24 27 30 34 33 32 32 34 36 40 43 46 50 54
28 26 24 22 21 19 19 24 26 24 24 17 18 17 15 13 15 15 15 14 15 16 15 14 14 16 18 20 23 27 30 33 35 39 37 35 37 40 42 44 49 52 56 61
32 30 27 27 25 25 24 22 27 29 28 20 19 17 14 13 13 14 15 17 17 16 14 16 19 22 23 26 29 32 34 36 38 40 39 38 40 42 45 50 54 57 62 64
35 33 32 32 32 30 29 27 29 31 32 29 21 19 17 16 16 15 15 15 16 18 20 21 23 25 28 31 34 36 36 38 40 42 42 42 43 46 50 52 56 59 62 67
39 38 37 36 36 33 33 33 31 33 34 30 23 22 21 20 21 22 21 21 22 24 25 26 28 31 33 35 35 36 38 41 44 45 45 46 48 49 52 55 58 63 68 77
45 43 42 42 40 39 38 37 33 35 35 32 26 24 23 24 23 25 27 28 28 28 29 31 32 33 33 34 36 37 39 42 45 47 48 49 52 54 58 62 67 73 80 83
48 46 44 45 47 46 43 37 34 37 39 38 29 25 23 28 28 26 27 27 28 31 32 33 32 33 35 37 39 42 44 46 49 51 53 55 58 61 65 69 75 81 86 87
53 53 51 50 47 44 42 38 37 40 41 39 32 30 28 31 31 29 29 30 31 33 32 32 34 36 39 41 43 46 48 51 53 56 59 62 66 69 72 77 82 86 89 88
45 46 45 44 43 40 40 40 42 43 43 41 36 35 34 34 35 34 31 32 34 34 34 36 38 41 43 45 48 51 54 56 58 61 64 67 72 75 79 83 86 89 85 83
40 41 41 42 44 44 43 43 43 43 45 41 38 37 37 36 37 38 37 36 35 36 37 40 43 45 46 48 52 56 59 61 63 65 69 73 77 81 84 88 88 84 83 78
42 44 44 44 46 43 43 44 44 42 41 40 41 41 41 40 40 39 38 37 38 39 42 44 46 48 50 53 57 61 64 66 68 70 73 79 83 86 89 88 86 83 76 71
37 38 39 42 42 43 43 43 44 44 44 44 44 44 42 42 42 42 41 42 44 44 46 49 51 54 56 58 62 64 68 71 74 76 79 84 87 88 88 86 80 75 72 66
41 41 43 44 46 47 49 50 50 50 49 47 47 47 47 47 47 47 48 47 48 50 52 55 58 61 63 64 67 70 73 76 78 81 84 88 90 93 85 77 75 71 67 62
49 50 50 49 49 49 49 50 49 48 49 50 51 51 51 51 52 52 52 51 52 55 58 61 64 67 68 68 72 75 77 80 82 86 88 89 91 82 75 73 71 67 64 54

GFSNGP_250_spd_054.txt.gz
Wind_Speed
34 35 34 33 35 36 36 39 43 41 42 41 41 44 44 43 44 45 47 49 53 57 57 51 53 55 51 53 50 47 47 52 55 57 59 63 67 69 71 69 71 69 65 64
35 36 38 36 35 36 38 41 35 39 38 33 32 33 38 39 39 40 36 39 43 42 35 39 46 47 46 47 45 38 34 35 36 38 43 48 51 52 57 63 64 61 59 59
33 33 34 34 35 33 30 28 23 25 25 28 30 31 34 35 35 32 31 37 38 27 30 36 37 46 45 45 41 31 26 23 20 20 24 28 33 38 42 46 49 50 52 49
23 23 23 24 24 23 21 21 23 24 24 26 27 29 30 29 29 31 28 36 29 24 28 30 29 35 37 37 37 28 22 16 7 2 4 7 11 15 18 16 16 20 23 20
21 21 21 22 21 21 23 23 22 23 26 27 28 28 24 30 29 29 28 32 23 21 22 25 23 26 32 32 35 34 25 15 15 15 15 17 18 17 17 14 12 7 9 3
21 22 23 22 22 22 22 22 24 26 28 25 25 25 26 26 25 27 28 25 22 19 20 24 19 17 26 26 27 29 28 25 22 19 21 18 20 19 16 15 10 9 10 17
23 22 22 22 22 22 22 24 26 28 24 23 25 31 28 26 24 23 22 21 19 18 17 19 17 16 15 20 22 18 18 22 23 20 21 16 10 9 5 3 8 13 18 23
22 21 21 21 21 21 23 27 29 27 25 26 29 31 28 24 16 18 15 13 13 14 16 15 14 16 17 18 17 17 19 19 19 17 13 12 12 10 9 11 13 17 22 27
20 21 21 19 19 18 23 28 28 26 26 27 29 32 28 20 15 14 9 10 11 11 12 12 14 16 20 13 11 11 11 10 10 11 13 14 13 13 14 16 19 22 24 26
19 19 21 21 17 18 22 26 29 26 25 26 29 29 25 21 16 14 11 10 12 14 13 10 10 10 11 11 10 11 12 14 15 17 18 19 20 21 23 25 28 31 33 34
19 21 23 21 17 16 18 21 24 28 26 26 27 28 28 22 19 15 14 12 13 14 16 19 15 15 16 15 14 15 15 14 14 17 20 23 26 28 28 28 29 29 31 34
25 25 26 22 16 14 18 19 20 23 23 25 25 30 27 22 21 16 17 15 14 15 16 18 18 16 16 16 16 15 14 17 19 22 24 26 28 29 29 30 31 32 35 39
27 25 25 23 21 17 18 21 23 24 24 24 22 22 22 22 21 19 17 16 15 15 16 17 18 19 19 18 15 15 18 21 24 26 29 30 32 34 33 34 36 40 42 45
31 29 28 27 25 19 17 16 18 21 21 23 23 19 20 20 20 20 19 19 18 17 18 19 19 19 20 17 18 21 23 26 29 31 33 34 36 39 38 37 39 42 45 48
34 31 32 31 27 24 20 16 15 20 21 23 23 21 20 19 19 17 19 19 18 18 19 20 20 19 18 20 23 27 29 32 34 36 35 36 38 42 42 41 43 45 48 51
38 34 33 33 29 27 24 22 19 18 17 23 28 27 20 19 19 17 17 19 19 21 21 21 21 22 24 27 29 31 33 36 37 36 36 38 39 41 42 43 45 49 52 54
40 35 34 34 32 30 27 26 25 23 23 24 25 29 28 25 21 20 19 20 22 23 23 25 26 28 30 32 33 35 37 37 37 37 38 41 41 44 47 49 52 56 59 64
40 38 38 36 34 32 30 29 30 29 28 28 29 30 31 29 25 24 25 25 26 28 30 31 32 33 35 35 36 37 38 38 39 40 43 45 47 49 52 56 59 63 67 72
43 44 42 42 40 37 35 35 35 34 34 34 33 35 33 33 28 28 30 30 32 32 35 36 37 37 37 38 39 39 40 41 43 45 48 50 52 54 56 60 64 68 72 78
46 45 44 45 44 42 42 42 41 40 40 39 38 40 37 35 33 30 34 34 36 36 37 37 38 39 38 39 40 42 43 45 47 49 50 52 54 58 61 64 68 72 78 81
51 50 50 50 49 48 47 48 47 46 46 44 43 44 42 38 38 35 38 39 40 40 40 40 41 41 41 42 43 44 47 50 51 52 54 56 59 62 66 69 72 79 81 85
50 54 55 55 54 52 51 51 51 52 51 49 48 46 45 42 40 41 42 43 42 43 44 45 45 43 43 44 46 48 51 54 54 56 58 61 62 65 69 73 79 81 84 83
35 39 45 50 53 55 55 55 55 55 53 50 48 46 44 45 45 44 46 46 45 45 47 49 49 46 46 48 50 52 55 56 58 60 62 65 68 70 73 78 83 83 87 79
33 37 38 41 44 47 49 50 49 49 50 48 47 47 47 45 46 47 46 47 47 46 47 47 49 50 51 52 54 56 58 59 61 64 67 69 72 74 78 82 84 86 81 78
31 31 33 39 44 46 46 47 48 48 48 50 49 47 47 47 47 46 48 48 49 49 49 50 52 54 56 58 59 60 60 62 65 67 69 72 75 80 82 85 84 84 77 78
36 36 37 38 39 41 43 44 46 46 47 47 46 46 47 48 50 51 51 51 52 53 54 54 55 57 59 61 62 62 63 66 68 71 72 75 79 81 84 85 84 76 76 77
43 44 44 44 45 46 47 48 48 49 51 51 52 53 54 54 54 53 53 52 52 53 53 55 57 59 62 64 66 66 67 69 71 74 76 80 80 81 84 81 74 72 76 75

GFSNGP_250_spd_057.txt.gz
Wind_Speed
34 37 39 43 44 44 43 42 48 48 44 45 44 47 49 51 52 53 50 50 51 50 50 50 49 55 58 57 56 59 58 57 58 59 59 60 62 62 62 61 63 65 61 63
33 32 37 38 38 36 35 38 34 37 33 32 35 40 39 37 39 41 41 40 40 40 44 42 46 47 43 45 44 44 43 43 38 37 36 36 38 40 43 43 44 46 53 57
30 32 34 37 37 33 28 25 23 26 31 34 32 34 35 34 33 33 34 35 33 35 38 39 41 34 32 33 36 36 36 37 35 30 27 24 21 21 23 25 28 31 37 42
28 30 32 33 31 28 28 29 30 28 28 27 27 28 30 31 31 30 30 31 30 34 36 38 30 21 22 25 29 32 30 32 37 33 26 20 14 8 6 8 11 15 19 24
26 27 27 27 27 28 27 26 23 22 22 25 27 28 28 28 29 26 25 26 31 37 35 28 24 16 19 22 26 29 28 30 30 34 38 37 30 22 15 10 6 2 4 7
18 19 19 20 21 22 22 22 22 22 24 25 25 24 26 28 25 22 27 32 31 31 29 23 25 20 17 22 24 24 24 24 27 27 29 29 27 26 28 22 18 16 14 6
17 18 20 20 20 21 21 22 22 23 26 26 27 27 27 28 24 23 27 30 25 26 22 18 21 20 18 18 22 21 20 17 18 21 24 25 26 24 21 21 19 17 17 18
21 20 21 22 22 22 22 22 22 25 26 28 28 25 24 25 22 20 21 19 19 15 10 12 14 15 18 17 14 11 13 17 19 20 21 22 22 23 22 21 19 19 19 20
21 23 23 22 21 20 20 21 24 29 30 27 25 26 25 25 18 18 19 17 16 12 11 11 12 11 13 13 11 11 12 12 12 16 18 20 21 21 22 22 22 23 24 25
26 24 22 22 20 21 22 23 26 28 28 27 26 25 26 27 19 22 18 21 19 16 14 13 14 14 15 15 14 15 14 12 13 16 18 20 22 24 26 28 28 27 27 28
25 24 24 23 23 21 20 22 23 25 26 27 26 27 26 29 26 25 19 20 21 19 17 16 16 16 16 16 15 14 13 13 14 18 21 23 24 26 26 27 29 29 30 32
25 24 22 22 22 21 21 20 21 24 26 24 22 26 26 29 23 22 20 17 21 21 19 18 20 19 18 18 17 16 15 17 19 21 25 27 29 30 29 29 31 32 32 33
27 25 22 22 23 25 21 19 20 21 20 21 23 25 27 25 26 18 19 18 18 20 20 21 21 20 22 21 19 18 19 22 24 27 30 32 33 31 31 33 35 35 34 35
30 29 26 25 26 27 24 22 20 20 22 23 24 24 25 23 23 21 19 18 20 22 23 24 23 22 24 23 22 22 24 26 29 31 34 35 35 32 32 35 37 40 41 42
35 35 31 28 26 29 27 24 20 18 17 19 21 23 24 24 24 24 22 20 19 20 23 23 23 23 23 22 23 25 28 31 34 35 37 37 36 36 36 39 42 46 47 50
38 37 36 32 29 31 31 29 25 23 21 19 17 18 22 26 27 25 26 25 22 20 22 24 25 26 26 26 28 31 33 36 38 39 40 39 40 39 41 44 48 50 52 55
43 40 40 36 33 31 34 33 31 29 26 24 23 23 21 21 26 28 29 30 28 26 27 28 28 29 30 32 34 35 38 41 42 42 41 41 43 44 46 49 50 53 57 60
46 44 44 41 39 35 36 37 35 33 32 30 28 28 27 24 27 31 32 31 33 33 33 34 35 35 36 38 38 39 42 44 45 44 44 45 47 48 50 52 55 58 60 62
44 44 44 43 42 41 38 40 39 38 37 35 34 31 32 32 32 34 35 36 34 36 38 38 39 41 42 43 43 43 44 46 47 47 48 50 52 52 54 56 59 63 65 66
46 46 46 46 44 43 43 44 43 42 41 40 40 38 36 37 37 39 41 39 40 39 40 41 43 44 46 47 47 46 47 49 50 52 53 55 56 57 59 61 65 66 67 70
52 49 48 47 46 48 49 49 48 47 47 46 44 44 44 42 43 44 46 43 43 45 43 43 45 46 48 49 50 51 51 52 53 54 56 57 59 61 63 66 68 68 70 73
52 53 53 52 51 50 50 49 49 49 49 50 50 51 49 48 49 50 50 48 46 45 44 44 46 48 51 51 52 53 55 56 57 59 60 61 62 65 68 68 69 71 72 76
40 45 50 55 57 56 55 55 54 54 55 54 54 54 55 55 54 54 51 48 47 46 46 48 48 50 52 52 52 53 54 55 57 60 62 64 65 67 69 70 71 74 77 77
31 34 36 41 46 51 55 58 59 60 60 61 61 60 60 57 54 52 51 49 49 49 48 49 50 50 51 52 53 55 56 57 60 62 63 65 66 68 70 72 74 75 78 79
30 31 34 37 39 41 42 43 45 48 51 53 53 53 52 51 49 49 50 51 54 53 52 52 51 51 52 54 57 58 60 62 63 62 62 64 66 70 73 74 77 79 74 75
32 32 32 34 36 37 39 41 43 46 48 49 50 50 50 51 52 52 52 55 52 50 50 52 52 55 56 56 57 58 61 63 63 62 62 67 70 73 77 79 78 73 72 65
40 40 40 40 40 40 41 41 41 42 44 45 46 48 49 49 50 51 51 52 53 54 54 56 56 55 54 56 57 59 61 63 65 67 68 70 74 76 76 73 67 62 59 61

GFSNGP_250_spd_060.txt.gz
Wind_Speed
33 37 40 39 40 40 44 46 49 49 50 53 51 47 48 52 53 56 59 61 62 63 63 63 64 66 66 62 62 61 66 64 63 65 66 64 62 56 55 54 56 58 57 55
32 34 40 42 42 41 38 38 37 41 40 41 43 46 49 49 48 49 50 52 55 55 56 54 52 52 49 51 54 57 54 51 49 44 44 37 34 34 35 36 37 34 34 36
30 32 35 39 42 40 38 37 38 36 39 40 42 42 41 41 42 44 45 44 45 43 42 42 44 44 45 44 43 43 41 38 33 33 32 33 35 32 29 22 19 18 19 19
29 28 29 30 30 33 34 31 30 29 30 30 30 33 35 36 35 36 38 36 35 34 35 39 42 44 42 38 32 37 32 34 28 28 28 29 32 32 31 30 25 19 17 11
26 29 30 31 32 32 28 27 27 27 27 30 32 29 31 32 33 31 31 31 31 32 37 39 39 38 36 30 31 34 32 28 26 23 20 24 27 29 29 28 28 26 26 22
24 27 29 30 32 36 35 34 32 29 28 28 28 29 29 29 28 28 26 27 32 36 41 38 38 34 30 31 31 32 30 23 17 17 19 20 20 23 26 27 27 26 22 19
22 25 27 29 30 31 31 31 30 29 26 27 29 29 28 27 26 26 27 30 34 38 35 31 32 28 27 28 26 29 26 21 18 16 17 19 22 24 27 29 30 29 27 25
21 20 22 25 27 28 29 29 28 28 28 30 29 27 27 28 29 29 26 25 28 29 26 26 26 24 23 23 19 18 19 19 19 18 17 19 21 22 24 25 26 26 25 24
26 27 27 28 27 28 29 29 27 28 29 27 26 28 31 29 30 28 23 21 22 24 24 23 23 23 20 19 19 19 19 20 20 19 19 21 23 25 27 28 27 27 27 26
25 25 25 25 27 26 26 25 25 25 24 26 28 30 30 27 28 28 22 23 21 25 25 25 24 24 23 22 23 23 22 22 22 22 22 22 24 27 30 32 31 29 29 31
27 26 25 26 26 25 24 22 22 22 26 28 30 30 28 28 28 29 21 20 20 23 26 27 26 25 25 25 24 23 22 22 24 25 24 25 27 30 32 33 31 30 31 32
29 29 28 26 25 24 22 22 21 21 23 25 26 27 28 30 28 29 25 22 22 21 24 26 28 27 26 27 27 25 24 24 26 26 26 27 30 33 35 35 34 32 32 35
33 30 29 27 25 25 24 22 21 20 22 25 27 28 26 26 27 28 29 24 22 20 22 25 27 29 28 29 30 27 25 26 28 29 30 31 33 35 37 38 37 37 39 40
34 31 29 29 27 25 24 24 22 21 21 24 25 25 26 29 29 26 27 28 24 22 22 23 26 27 28 29 29 26 28 30 31 31 33 35 37 39 41 41 41 41 44 46
38 35 32 30 27 25 24 26 26 24 24 23 24 26 28 28 28 26 27 27 28 25 23 25 25 26 27 28 27 27 29 31 32 34 37 40 40 42 43 44 45 46 48 50
41 38 35 33 32 29 27 27 29 29 26 24 24 23 23 23 24 25 27 26 27 29 29 28 29 29 30 31 31 31 32 33 35 38 42 45 45 46 47 48 49 52 54 55
44 42 40 37 36 35 33 31 29 33 32 31 29 28 28 26 25 25 25 26 27 28 31 34 34 34 34 36 37 38 38 39 40 43 46 49 50 51 51 52 53 56 59 61
48 46 45 43 40 38 38 37 35 34 37 37 35 33 34 32 31 31 32 30 30 30 30 32 36 39 41 40 41 41 43 43 45 47 49 52 53 54 56 57 58 59 61 65
52 53 51 48 46 44 42 41 41 38 38 40 40 39 39 38 37 37 36 35 37 37 36 37 38 39 42 45 45 44 44 44 45 48 51 53 54 56 57 59 60 63 66 67
50 52 52 51 51 51 49 46 46 45 43 42 44 44 44 44 44 43 42 41 40 42 43 43 43 44 43 45 48 49 48 47 48 50 52 54 54 56 59 61 63 65 66 69
50 49 48 48 49 49 50 49 49 49 48 47 47 48 48 48 49 48 48 47 46 47 48 48 49 48 46 46 46 47 49 50 52 54 54 56 57 58 58 60 62 65 67 68
49 52 52 51 49 50 51 52 52 52 52 51 52 52 52 53 53 54 53 51 51 51 51 52 54 53 49 47 48 48 51 52 54 55 56 58 58 58 59 62 64 66 67 70
41 45 49 53 55 55 54 54 55 55 54 54 55 55 55 55 55 55 56 56 55 55 58 59 58 55 52 50 49 50 51 53 54 55 57 58 58 59 60 62 64 66 70 73
29 32 36 41 45 50 54 56 58 58 58 57 57 58 58 59 60 60 59 60 61 63 63 59 56 53 53 52 53 54 53 54 55 58 61 62 59 57 58 60 64 68 71 72
25 27 28 30 32 35 38 42 47 52 56 58 60 62 63 64 64 64 64 63 62 60 57 56 54 53 55 56 57 55 54 56 58 61 63 61 59 58 61 64 67 69 66 61
29 29 30 30 31 32 35 37 40 42 44 47 49 50 51 52 52 52 53 54 54 55 54 55 57 58 58 57 55 55 57 59 60 62 63 63 63 64 67 67 68 63 56 56
35 36 37 38 38 38 38 38 39 40 41 43 44 45 47 48 49 49 51 52 52 53 53 53 55 56 58 56 57 57 59 60 63 65 68 68 68 68 69 66 59 54 55 56

GFSNGP_250_spd_066.txt.gz
Wind_Speed
26 27 31 34 37 40 45 51 53 58 63 66 72 77 82 86 88 92 94 95 96 97 97 97 96 95 95 96 97 98 98 98 98 97 95 89 86 80 76 71 69 65 61 60
28 29 30 32 36 39 41 45 47 51 55 60 64 70 71 73 76 78 81 83 85 86 86 83 81 84 86 84 84 85 86 83 80 78 75 73 71 66 62 61 60 55 53 53
29 31 32 33 33 34 38 41 44 45 50 54 57 59 62 66 68 70 73 75 76 76 78 78 77 78 76 76 75 71 70 69 68 67 63 61 61 60 56 51 53 46 46 46
24 27 30 35 34 36 37 37 42 43 43 46 46 49 51 54 57 59 61 63 66 66 67 69 69 70 69 64 63 62 60 60 59 56 54 54 54 54 49 48 45 42 43 44
25 26 28 32 33 34 37 38 39 39 41 42 45 44 46 51 55 57 59 60 61 61 62 61 62 58 55 54 52 53 55 55 51 50 51 52 52 51 46 45 41 39 42 40
23 25 28 30 32 33 33 35 37 40 42 42 44 47 49 50 51 53 55 54 53 53 53 51 50 49 46 48 51 52 50 48 47 49 50 49 48 46 43 41 39 38 39 39
21 24 28 29 29 29 31 36 38 38 39 41 42 42 43 43 43 44 45 45 44 46 44 42 40 41 44 47 49 46 43 44 44 44 44 42 41 39 37 39 38 37 39 39
22 22 26 28 29 31 33 37 40 39 39 39 39 41 42 41 38 37 40 40 39 36 35 34 36 40 43 44 45 39 38 38 39 38 36 36 36 36 38 40 39 39 41 40
22 23 26 27 31 32 34 35 38 41 43 42 39 38 36 36 34 35 37 35 32 31 33 35 35 38 42 45 40 37 35 34 31 32 34 35 37 39 41 42 41 41 42 42
23 25 27 29 31 34 36 38 36 37 39 40 40 39 41 40 36 35 32 29 30 32 30 33 36 37 38 40 38 36 35 32 32 34 36 37 37 39 40 41 42 43 43 44
27 26 26 30 33 35 35 36 36 38 40 42 40 38 36 36 33 30 30 30 31 30 33 33 33 31 32 34 34 33 33 33 33 34 35 36 37 38 40 42 43 44 45 46
31 32 29 29 29 30 33 34 34 33 34 35 36 36 35 33 31 31 31 31 31 31 29 33 28 27 27 29 30 29 30 32 34 35 35 37 39 41 43 44 45 47 47 48
35 38 36 36 34 32 29 28 28 29 29 30 29 31 31 31 31 31 30 31 30 30 31 31 29 27 26 25 26 27 29 31 33 35 37 40 42 44 44 45 47 47 48 49
40 41 41 41 40 35 34 31 29 29 30 31 31 31 31 30 31 32 31 32 30 31 30 30 31 29 27 27 26 25 27 29 31 35 38 39 41 43 44 45 46 47 48 50
43 42 43 45 41 39 36 35 34 34 34 33 32 31 30 31 30 31 31 32 34 32 32 33 31 27 27 27 28 29 29 31 33 34 36 38 40 42 44 46 48 49 51 51
44 41 44 46 44 42 38 36 36 34 34 33 32 31 31 30 29 31 31 32 33 33 33 32 32 28 26 26 25 25 27 28 30 32 35 38 41 45 48 50 50 51 53 54
42 42 44 46 44 42 38 38 37 35 35 34 33 34 33 32 30 30 31 32 32 32 32 31 31 32 33 33 34 34 35 37 38 39 41 43 44 46 48 50 52 54 56 58
43 42 45 45 42 40 41 40 38 35 34 33 34 34 35 35 34 33 34 35 36 36 36 36 37 37 38 39 41 42 43 44 45 47 47 48 50 51 52 53 54 54 55 57
42 42 44 42 41 42 43 41 39 37 36 35 35 34 34 34 33 33 36 38 40 41 42 42 42 43 44 45 46 47 48 50 51 53 55 56 57 57 57 59 59 58 57 55
41 42 43 42 43 45 45 43 42 42 41 40 39 39 39 38 38 39 40 41 41 43 45 46 48 49 50 50 51 52 54 55 56 58 60 60 63 63 63 65 60 58 57 57
41 42 44 44 45 47 47 47 47 46 45 45 45 44 44 43 43 44 45 47 47 48 49 48 50 52 53 53 55 55 57 59 62 63 61 63 65 66 69 64 60 58 57 58
42 45 47 48 48 50 52 52 52 51 51 51 50 50 50 50 50 51 51 53 53 54 54 56 56 56 57 59 59 60 62 64 64 64 65 67 70 70 67 64 61 61 60 61
39 46 49 50 52 53 52 53 53 54 55 56 56 56 57 58 58 59 59 58 58 58 58 59 60 61 61 63 65 66 66 67 68 69 71 73 71 68 64 63 64 63 61 61
32 41 47 49 51 52 54 56 57 58 59 60 61 62 62 62 61 60 60 60 60 60 60 61 62 64 65 67 68 69 70 71 73 74 73 68 65 64 65 64 64 64 66 68
29 33 38 43 48 51 53 55 56 57 58 59 61 61 62 62 62 62 62 62 63 63 64 65 66 68 69 71 72 73 74 73 70 66 65 64 63 63 64 66 67 67 70 69
26 29 33 38 40 42 44 46 48 49 50 52 54 55 57 59 60 62 64 65 66 67 68 68 69 69 68 66 63 62 62 63 62 62 62 63 64 67 68 68 66 65 67 67
24 26 28 29 32 34 36 37 38 38 39 41 43 44 45 47 48 49 50 51 52 53 54 55 56 56 57 58 58 59 60 62 63 65 67 67 67 65 64 64 64 64 63 61

GFSNGP_250_spd_072.txt.gz
Wind_Speed
28 29 31 31 33 35 37 39 39 47 52 58 61 64 67 72 78 86 90 93 99 106 107 105 103 104 105 106 106 106 106 106 108 109 110 111 110 107 104 102 98 100 100 97
28 29 31 33 36 38 39 38 39 41 46 53 56 59 63 66 70 76 83 86 88 91 94 99 102 102 103 104 105 105 106 107 107 108 104 97 93 94 94 96 97 94 91 87
27 29 32 32 36 36 38 38 40 39 47 48 52 55 60 62 66 71 76 80 84 86 87 88 91 92 94 94 93 93 91 91 92 91 87 86 89 91 91 90 86 84 79 73
24 26 31 37 36 38 39 39 39 43 44 46 50 53 55 58 61 64 68 72 76 79 81 83 84 85 86 86 88 88 89 86 84 87 89 88 86 86 83 81 77 73 68 64
22 26 29 31 32 36 39 39 40 42 42 45 48 49 50 54 58 60 62 65 68 70 73 76 78 79 80 81 83 84 84 84 83 83 83 81 77 78 74 72 69 63 60 60
19 22 28 28 30 32 35 39 42 42 43 45 45 47 49 52 52 54 56 58 61 62 64 65 67 68 70 71 71 75 77 76 74 72 75 71 69 68 64 62 58 55 57 57
19 20 22 26 29 32 33 36 37 40 44 44 45 44 47 48 48 50 49 51 53 54 55 56 56 56 58 59 62 63 63 65 64 62 64 63 61 59 54 52 52 52 53 52
21 19 19 22 27 30 31 32 32 35 38 39 43 46 47 47 47 46 43 45 45 45 45 44 42 42 43 45 47 50 53 54 56 56 54 52 50 48 49 51 49 48 46 43
21 19 19 18 22 25 29 32 32 32 35 36 36 41 42 42 45 42 39 39 37 37 37 38 38 41 42 43 44 44 46 47 48 47 47 46 47 48 47 46 45 42 43 42
22 22 20 20 20 22 24 29 32 31 31 32 34 36 38 40 41 40 37 37 39 41 41 40 40 40 42 44 44 42 41 40 41 44 46 46 43 42 42 43 40 41 42 43
25 25 24 23 19 21 23 24 29 31 31 32 34 35 38 43 42 41 40 39 37 37 39 39 38 37 35 35 36 34 37 37 43 45 44 41 40 39 38 39 40 42 44 46
25 27 26 25 24 24 24 25 26 30 31 30 31 36 39 41 42 41 39 39 38 39 38 35 35 36 35 35 33 34 35 38 40 40 39 38 35 33 34 36 39 42 43 44
28 28 29 29 28 27 27 27 28 30 32 33 33 34 39 42 42 41 41 40 41 39 37 37 36 35 34 34 33 35 36 37 34 35 34 36 35 32 31 31 33 35 36 37
32 31 32 31 32 32 32 32 31 30 33 33 35 35 36 37 39 38 38 38 38 39 40 38 38 35 35 35 35 36 35 34 33 31 30 28 27 26 26 28 30 33 35 38
31 34 35 36 36 35 36 37 36 34 32 31 33 35 36 35 37 39 41 42 42 42 40 39 38 36 36 36 35 36 35 35 35 31 30 30 30 32 34 35 37 39 42 45
32 37 41 41 39 40 40 41 41 39 35 31 28 29 31 33 34 36 36 36 36 37 36 37 37 37 38 37 36 37 38 38 36 35 35 37 37 38 39 40 43 45 47 50
35 40 42 43 43 47 48 40 41 42 39 35 32 30 30 30 30 30 30 32 33 33 34 36 37 39 39 38 38 38 40 40 39 40 41 43 44 46 47 48 49 52 53 55
36 37 40 43 45 47 47 38 41 43 41 39 36 33 32 32 32 32 33 35 36 36 36 36 37 39 41 41 41 42 43 44 45 45 47 50 51 53 53 54 54 56 57 59
35 35 35 39 40 41 42 36 39 41 40 39 38 35 36 35 36 37 37 37 38 38 35 36 37 38 39 40 42 44 46 47 48 50 51 52 54 56 57 58 59 61 63 64
33 34 34 34 33 32 33 35 39 38 37 37 39 38 37 35 37 38 38 38 37 38 37 39 40 40 41 43 43 45 46 47 50 52 55 57 58 60 63 64 65 65 66 67
29 30 30 29 29 29 29 33 36 36 36 36 38 39 39 37 38 39 40 38 38 39 38 39 40 41 43 44 45 48 50 53 55 57 59 62 64 65 67 68 68 68 69 72
27 25 24 25 25 26 28 31 34 35 36 37 38 39 40 39 41 42 41 41 42 42 42 42 44 45 47 49 51 53 56 58 60 62 64 67 69 70 71 71 71 72 73 75
22 20 19 20 21 24 27 30 32 34 35 37 37 37 39 40 43 44 44 45 46 46 47 47 49 51 53 56 58 61 63 64 65 68 70 70 70 70 71 73 73 75 77 76
20 20 19 19 21 23 27 31 33 35 37 38 38 37 39 44 46 47 48 48 49 51 52 54 56 58 60 63 65 66 68 70 71 71 71 71 72 72 74 76 76 74 70 67
20 20 21 23 24 27 30 32 34 37 40 40 40 41 41 44 47 49 51 53 55 56 58 60 62 64 65 67 69 70 71 71 72 72 73 72 71 70 67 64 62 64 65 66
19 20 20 22 24 27 30 32 35 37 39 41 43 45 46 47 49 51 54 56 58 60 62 64 65 67 68 70 71 69 67 66 64 62 61 60 60 61 62 63 64 65 64 63
20 20 19 21 23 25 26 28 31 34 37 40 43 45 47 49 51 53 55 57 57 58 57 56 55 55 55 55 55 56 56 56 57 58 60 61 62 62 62 62 62 61 60 59

GFSNGP_250_spd_075.txt.gz
Wind_Speed
26 29 32 36 39 39 40 47 46 50 51 58 66 71 74 78 82 82 82 84 86 92 96 101 101 101 101 103 104 105 105 107 107 107 105 105 107 107 105 106 104 105 104 104
25 27 30 31 34 37 39 41 41 46 48 54 58 63 68 71 75 77 78 79 81 83 85 88 95 100 100 100 100 101 102 100 97 99 100 98 100 102 99 99 101 101 93 86
25 25 26 31 35 35 36 38 41 40 48 46 50 53 59 63 64 69 73 75 75 77 79 79 84 90 94 94 93 91 92 95 99 102 102 100 97 97 97 90 83 83 81 81
25 22 25 36 32 35 37 37 38 40 41 43 46 48 52 56 59 63 65 69 71 71 72 75 77 81 84 86 86 85 84 84 85 84 85 83 80 78 73 76 84 78 79 85
23 23 30 32 30 32 38 41 40 43 42 42 43 45 48 50 54 57 59 62 64 66 68 70 71 74 76 77 78 79 78 76 73 73 75 74 71 76 82 81 75 80 85 89
25 24 26 28 29 31 36 38 37 39 41 43 44 46 43 44 48 52 54 57 60 62 63 65 66 69 71 73 75 76 76 76 77 78 77 77 79 80 78 82 86 81 75 70
23 25 28 25 26 30 32 36 36 38 40 42 44 43 42 44 45 46 48 51 54 57 59 60 62 63 65 67 69 69 71 72 72 70 68 68 66 64 66 68 66 64 61 59
23 24 23 26 25 26 29 33 34 35 39 41 41 43 45 44 44 45 45 46 47 49 51 53 54 56 58 59 60 59 59 61 57 54 52 52 55 56 57 57 55 54 52 53
25 24 22 24 24 24 25 29 31 34 35 38 39 41 41 43 43 44 45 45 45 45 44 46 47 48 48 49 48 45 43 41 42 44 47 47 48 48 50 50 49 49 52 51
26 25 23 23 24 24 23 26 28 30 33 34 35 37 41 42 44 45 45 43 43 42 39 39 39 39 37 36 35 35 37 40 40 39 41 42 44 45 46 46 48 46 46 47
28 26 25 24 23 24 23 23 25 27 29 32 32 32 35 39 38 40 42 43 41 38 36 35 34 32 33 36 36 36 36 38 39 37 37 39 42 45 46 42 39 41 42 41
29 28 28 24 24 24 24 23 21 23 26 30 32 32 33 35 37 37 39 40 37 35 35 34 35 36 36 36 35 34 34 33 34 34 36 37 41 43 43 40 39 37 34 34
28 31 29 27 27 26 25 24 24 23 23 25 28 31 32 30 33 36 37 38 37 37 37 37 36 38 38 37 36 35 36 35 35 35 37 37 38 39 36 36 34 34 32 31
29 31 30 27 29 29 28 28 27 27 26 25 26 29 30 30 31 33 35 37 38 39 39 39 39 37 36 36 37 36 36 36 36 37 37 37 37 35 36 33 30 31 33 36
32 33 32 32 31 30 30 31 31 31 31 30 28 28 32 34 34 33 34 37 38 39 39 39 39 40 40 41 41 39 38 38 39 39 38 38 37 36 35 36 37 38 41 43
32 33 33 34 34 34 33 33 35 36 37 36 35 33 32 33 37 38 37 37 37 38 38 39 38 39 44 44 41 42 41 40 41 41 40 39 38 39 39 42 42 44 46 48
34 35 35 37 38 38 38 38 38 38 40 41 43 40 36 33 33 35 37 37 38 39 39 39 39 42 46 46 42 42 42 42 42 42 42 42 43 44 46 47 48 50 50 51
33 36 37 38 39 41 42 43 44 44 45 45 41 42 40 37 34 31 31 32 33 33 34 33 35 37 40 40 38 40 42 43 44 44 46 47 48 49 50 51 52 51 53 55
35 37 39 39 41 43 44 46 48 48 48 44 39 42 43 40 38 35 34 34 33 34 31 33 33 34 37 38 38 40 42 44 45 47 48 49 50 52 53 53 54 57 59 61
37 38 40 39 40 42 43 44 43 42 42 42 39 42 42 40 40 38 37 36 35 36 37 38 37 38 39 40 40 41 42 43 45 46 48 49 51 53 55 58 60 64 67 69
35 36 37 37 37 36 36 36 36 36 36 37 39 38 38 39 40 39 39 39 39 39 39 40 39 39 39 40 41 42 44 45 46 48 50 52 54 57 60 63 66 69 72 74
32 32 33 32 32 31 31 30 29 28 30 32 33 34 37 39 40 41 41 41 40 39 39 40 41 42 42 43 43 45 46 48 50 52 54 57 59 63 67 69 71 72 74 76
29 29 29 30 29 28 26 26 25 24 25 28 30 32 35 37 38 40 40 41 41 40 41 43 44 45 46 47 48 49 51 52 54 57 60 64 66 69 71 72 74 75 76 76
28 27 27 25 24 22 21 23 24 24 25 28 30 33 35 37 38 39 40 41 41 43 45 46 47 48 50 51 52 55 57 59 61 64 66 68 70 72 74 76 76 77 75 73
25 24 24 23 23 22 22 23 25 26 28 30 32 33 36 37 38 38 38 39 41 44 47 49 50 51 53 55 58 60 62 65 67 69 71 72 73 74 75 72 68 63 61 62
25 24 24 24 23 22 23 24 26 28 29 31 32 34 36 38 39 40 40 41 42 45 49 52 55 57 59 61 62 64 66 68 70 71 69 67 63 62 62 62 63 62 62 61
25 24 25 25 24 24 25 25 27 28 30 32 34 35 36 38 41 43 45 47 48 50 52 55 57 59 60 62 62 61 60 58 58 59 59 60 60 61 61 61 61 60 59 58

GFSNGP_250_spd_078.txt.gz
Wind_Speed
21 22 25 33 42 45 44 48 54 60 64 72 78 80 80 83 84 86 89 93 92 91 88 88 85 88 89 86 86 89 91 92 92 91 94 96 96 96 97 99 99 101 101 102
23 23 23 24 29 37 44 47 48 55 57 71 73 73 75 77 78 80 84 85 83 82 80 80 77 79 85 86 87 89 88 87 88 87 87 91 92 92 93 96 98 99 102 101
24 23 23 26 30 29 32 39 44 46 54 53 56 61 64 69 73 74 75 76 76 77 78 76 75 75 75 77 79 82 83 84 87 90 93 97 96 95 95 93 93 92 92 89
26 22 23 34 27 28 31 35 36 42 47 47 47 49 51 54 58 62 67 70 71 72 73 75 74 73 72 72 73 75 76 78 80 82 87 89 89 88 87 86 82 81 80 75
25 24 29 32 30 27 30 33 32 37 38 39 40 43 47 49 48 48 51 56 61 64 68 70 70 69 70 69 69 69 71 73 75 76 77 78 79 80 79 77 73 67 65 70
28 26 29 33 28 27 30 34 32 36 36 37 40 42 42 37 41 46 48 49 52 56 60 63 66 66 67 67 66 65 66 67 68 67 68 68 67 65 65 64 64 66 72 75
26 26 31 27 25 28 29 33 33 35 36 39 40 38 35 40 40 41 43 46 47 51 53 55 58 60 62 63 63 63 62 62 62 62 62 62 63 66 67 68 73 73 76 71
26 28 30 23 28 27 28 31 32 34 36 36 38 38 37 39 38 37 39 40 42 43 46 49 51 53 56 56 57 56 57 58 60 61 64 65 65 65 68 72 72 61 57 57
26 31 28 26 26 25 26 28 29 31 34 34 36 37 41 39 39 38 39 40 41 42 41 41 41 44 46 48 51 53 55 56 58 59 60 58 57 53 50 49 48 49 51 50
27 26 27 28 27 25 26 26 27 29 32 33 35 35 36 39 38 39 38 38 39 40 39 41 42 41 41 42 43 45 46 45 45 45 42 41 40 40 44 44 45 46 46 45
32 27 25 28 27 27 27 26 25 26 27 28 31 31 33 35 36 37 38 39 39 40 41 39 38 37 37 37 37 36 36 35 34 35 35 37 39 40 41 41 42 44 44 44
27 25 30 28 29 28 26 26 26 25 26 26 27 30 31 33 35 37 37 38 38 38 39 40 39 36 35 35 35 33 32 32 33 35 35 37 38 37 39 40 40 42 43 42
27 28 30 28 29 29 28 29 27 25 24 23 23 25 29 31 32 33 34 36 37 36 36 35 35 34 33 33 34 34 36 38 38 37 36 36 37 38 40 39 39 41 40 39
33 31 31 29 31 32 32 30 28 28 27 26 24 24 25 28 31 33 34 34 35 35 35 36 35 34 34 35 36 37 38 39 40 40 38 39 40 40 41 40 39 38 39 38
32 33 33 32 32 31 32 31 31 31 29 28 28 28 27 26 28 30 32 33 33 35 34 36 37 38 38 40 41 39 41 39 38 39 40 41 41 42 42 42 42 41 41 41
32 33 33 32 31 32 32 32 32 32 31 31 32 32 32 32 31 31 32 34 35 34 36 38 39 36 36 41 42 43 44 42 43 44 45 44 43 43 45 45 45 45 45 45
33 33 33 34 34 35 34 33 34 35 35 35 34 35 36 38 38 38 36 37 39 39 38 37 35 37 39 41 42 41 43 45 47 47 46 46 47 47 47 49 50 50 51 51
32 35 36 36 37 37 38 38 38 39 39 40 40 40 41 43 43 41 41 41 40 40 40 39 40 42 42 43 44 44 45 46 47 48 47 47 48 49 50 51 53 54 55 55
30 32 34 35 37 38 39 40 40 41 43 45 45 46 45 46 47 42 43 44 41 40 37 38 38 39 38 35 36 40 40 40 41 42 42 45 48 51 52 54 55 55 54 55
29 33 35 36 38 39 40 41 42 42 44 45 45 47 48 48 46 41 42 46 44 41 36 36 35 35 34 33 33 36 36 37 39 42 44 44 45 46 48 50 52 54 55 58
33 35 37 38 40 41 41 41 42 41 42 42 41 41 42 42 40 38 41 44 44 42 40 39 39 38 36 36 37 39 42 43 43 43 44 45 47 47 49 52 54 57 59 62
34 37 38 38 38 38 38 38 37 37 37 37 34 33 33 33 33 34 36 39 43 43 42 42 42 42 40 40 41 42 42 42 43 45 47 49 50 51 53 55 57 60 63 67
32 33 34 35 36 35 35 35 34 33 33 31 30 27 27 26 29 31 34 38 41 42 42 42 43 43 42 42 42 42 43 44 46 48 50 52 54 55 58 61 64 67 70 73
31 31 32 33 32 31 31 31 31 30 29 27 26 25 25 26 28 30 33 36 38 40 42 42 42 44 44 43 44 45 47 49 51 53 55 57 59 62 64 67 71 73 75 77
30 31 31 31 30 29 28 27 26 26 26 26 26 26 27 28 29 31 33 35 36 38 40 41 42 43 45 46 47 49 52 54 56 58 60 62 64 67 69 72 75 76 77 74
29 30 29 29 29 28 27 26 25 25 26 27 28 28 29 30 31 32 33 35 37 39 39 40 41 42 44 46 49 52 54 57 60 63 65 67 69 72 74 73 71 67 66 66
29 29 30 29 29 29 28 28 26 26 27 28 30 30 31 31 33 34 35 37 39 41 43 44 46 47 48 50 52 54 57 60 63 66 68 67 66 65 64 65 64 62 59 58

GFSNGP_250_spd_081.txt.gz
Wind_Speed
25 30 34 42 49 50 53 57 59 60 63 70 75 77 74 74 78 79 82 85 85 87 88 89 90 90 91 93 92 92 96 94 94 94 95 94 92 90 90 91 91 94 96 95
23 27 31 33 36 43 50 54 54 63 63 74 73 73 73 73 74 77 78 80 80 81 84 84 84 83 85 84 80 81 79 80 83 83 85 86 85 85 84 84 84 87 88 89
22 24 25 29 36 33 34 41 45 47 60 59 65 69 70 71 71 72 74 75 78 80 80 81 81 80 79 77 75 73 73 73 75 81 83 79 80 79 80 82 84 84 86 88
23 20 23 32 28 28 31 33 33 40 49 49 52 54 55 60 65 65 66 70 73 75 77 77 75 74 73 72 71 71 70 69 70 72 73 74 75 76 78 78 80 80 80 81
23 22 28 30 26 26 28 30 29 34 36 37 39 40 48 47 46 45 45 52 58 61 66 70 73 72 70 66 64 63 62 64 65 65 65 65 66 67 69 72 73 74 76 75
25 24 26 31 23 21 24 28 29 32 31 32 32 36 36 32 34 36 39 43 45 46 50 55 61 63 66 65 63 61 60 58 58 60 60 61 62 64 66 66 66 67 67 64
24 24 28 30 21 20 24 28 30 32 33 33 33 35 31 28 31 34 35 34 35 37 41 43 47 52 57 60 62 61 60 60 59 59 60 60 60 61 60 58 56 53 51 53
26 25 29 19 22 24 25 28 30 32 33 33 34 34 33 32 33 32 31 31 33 33 34 36 38 42 45 50 53 55 59 60 60 60 59 59 57 56 54 54 54 55 56 59
25 29 27 23 26 25 26 28 29 30 32 33 33 34 34 35 34 33 33 32 32 34 34 33 32 34 36 39 42 46 48 50 52 53 53 53 52 51 52 54 56 58 59 63
28 26 27 24 23 26 27 29 29 29 30 31 32 32 34 35 34 35 35 35 34 34 35 35 35 34 34 35 36 37 39 42 44 46 48 49 49 49 50 54 57 56 47 43
30 28 26 26 25 30 29 29 28 28 28 28 29 29 31 32 33 34 33 34 36 35 35 35 36 36 36 35 34 37 37 38 40 42 42 42 43 43 43 42 40 40 41 42
29 21 28 29 29 29 27 27 27 27 27 26 26 26 27 28 30 32 32 32 33 34 35 37 37 37 38 38 36 33 34 35 37 37 37 35 34 35 36 37 39 40 41 43
26 27 31 30 30 27 26 26 27 26 26 26 27 27 26 25 26 28 29 30 31 32 33 35 36 35 36 39 39 37 36 37 35 33 32 33 33 34 37 40 40 40 40 42
29 29 28 31 30 29 28 26 26 24 26 29 29 28 27 26 25 27 29 31 31 31 31 32 34 36 36 35 35 35 35 36 35 35 36 36 39 42 41 40 40 41 43 44
29 29 29 32 30 30 30 30 28 27 28 29 29 30 30 29 28 26 28 30 32 33 32 34 35 33 33 35 36 35 37 39 40 40 41 43 42 44 46 44 43 44 46 47
28 29 29 29 30 32 31 30 30 29 30 30 31 32 32 31 31 31 31 31 31 32 33 33 33 33 35 38 39 39 39 40 41 43 44 45 46 45 45 45 46 46 48 49
26 28 28 29 31 32 33 32 33 34 34 34 34 34 34 33 34 34 35 36 37 36 35 36 38 37 39 41 42 43 44 45 47 45 47 46 47 47 46 48 49 51 52 52
26 28 30 30 32 33 33 33 33 33 35 35 35 36 36 36 37 38 39 41 42 42 42 42 40 41 43 43 43 43 44 44 44 46 45 47 47 50 53 54 54 54 54 54
27 29 29 30 33 34 34 34 35 35 35 37 38 39 40 41 41 42 43 45 47 48 47 47 46 45 43 44 45 45 44 45 45 45 48 50 50 51 53 53 52 53 54 54
27 29 30 33 34 36 36 37 37 39 40 40 41 43 44 45 46 46 47 47 48 50 50 49 48 47 44 42 43 44 43 42 42 42 42 44 44 43 44 45 46 48 50 52
26 29 32 34 37 37 37 39 40 41 41 41 41 42 43 44 45 45 46 47 46 45 43 43 47 47 44 40 39 38 37 37 37 39 39 38 39 42 44 46 48 49 50 52
30 32 35 37 39 39 38 39 40 39 39 39 40 41 41 40 41 40 40 41 39 38 39 42 42 43 42 40 39 38 38 37 38 39 42 44 46 48 48 48 49 51 53 55
30 31 34 36 37 37 38 38 39 38 38 38 37 37 37 37 35 33 33 31 31 29 30 33 36 40 40 41 41 41 41 42 42 43 45 47 47 47 48 49 52 54 56 58
30 31 32 34 35 35 36 36 36 35 34 33 33 32 32 32 30 28 26 26 27 27 28 32 35 39 41 42 42 43 44 45 46 46 45 46 47 50 52 54 56 58 60 63
31 30 31 31 31 31 31 31 31 31 31 30 30 29 28 28 27 26 26 26 27 29 30 32 35 39 42 42 43 43 43 45 48 49 49 49 51 53 56 58 61 63 65 68
30 30 30 30 29 29 29 29 30 29 29 28 28 28 27 27 28 28 29 28 30 31 31 32 34 37 39 40 42 43 44 45 46 48 49 51 53 56 58 61 64 66 69 71
31 31 31 31 30 30 30 29 29 29 28 28 28 29 29 29 30 31 32 32 32 33 34 35 37 39 41 43 44 45 46 48 49 51 53 55 57 60 62 64 64 64 63 63

GFSNGP_250_spd_084.txt.gz
Wind_Speed
36 38 38 42 44 45 53 60 58 66 67 72 75 75 71 69 69 71 73 77 80 84 87 89 91 93 94 93 92 91 90 89 88 88 89 93 92 91 95 97 98 98 101 100
34 39 39 39 40 42 48 60 62 67 66 76 74 73 72 71 69 69 72 76 79 80 83 84 86 88 87 87 87 86 84 83 82 82 84 82 84 88 87 89 90 92 95 95
30 37 37 38 44 43 43 47 53 56 70 66 70 69 69 68 68 71 73 72 73 75 77 78 79 79 82 82 82 82 83 83 82 80 81 82 83 83 85 84 84 83 82 82
26 34 36 44 35 36 39 45 44 52 61 58 58 59 63 64 65 67 67 67 69 70 73 74 74 75 76 78 78 77 78 76 74 74 76 78 78 78 78 78 79 79 80 81
22 30 39 39 32 33 38 38 40 45 49 51 53 54 59 54 54 55 56 57 59 63 68 69 70 71 72 72 72 72 71 71 69 70 72 73 72 71 70 71 70 71 69 72
20 27 35 36 31 31 32 32 37 39 39 40 40 43 43 45 47 48 47 48 48 50 53 55 58 62 65 68 70 70 68 66 65 64 63 62 63 63 63 64 64 64 64 65
19 26 31 33 27 25 27 27 31 34 37 38 38 38 36 36 39 39 39 39 40 41 40 42 45 46 50 54 57 60 62 62 62 61 61 57 56 57 57 56 58 60 60 59
18 23 31 26 22 23 27 30 29 30 30 31 32 35 36 37 38 37 37 36 34 34 35 36 35 37 38 41 44 46 48 50 52 53 58 59 57 57 57 57 57 56 56 57
19 25 29 24 22 26 27 27 27 26 27 27 28 29 30 33 35 37 38 38 37 36 35 35 35 34 33 34 35 37 40 42 43 46 49 52 55 56 56 55 56 57 55 54
25 22 27 26 25 28 29 30 28 27 27 25 26 27 29 29 32 36 37 38 39 39 38 37 37 37 37 35 32 31 32 33 36 39 41 44 47 50 52 53 53 54 55 54
24 23 26 26 27 29 28 28 27 27 26 25 24 25 27 28 30 33 37 39 38 38 39 40 38 38 39 38 37 35 33 34 34 36 38 40 42 44 46 48 49 50 50 51
19 21 28 29 29 29 29 30 29 28 28 27 26 25 26 26 28 30 32 35 37 38 38 38 38 37 39 39 38 38 38 39 38 37 39 40 41 42 42 43 44 44 43 41
14 22 30 29 29 29 30 29 29 29 29 29 28 27 27 27 27 27 29 31 33 34 36 36 36 36 36 39 40 39 40 41 40 39 39 38 39 39 41 41 37 36 37 39
15 19 27 30 31 31 30 30 30 31 31 31 30 29 28 27 27 27 26 28 30 33 34 35 36 36 37 37 38 38 38 40 42 43 41 40 38 38 39 38 37 38 40 42
22 18 22 29 33 33 30 29 29 30 31 31 32 31 29 28 28 28 28 27 27 29 32 34 34 33 35 36 37 38 38 38 39 41 41 40 41 41 41 41 43 43 45 47
23 23 23 28 32 33 29 29 29 30 30 31 32 32 30 30 30 30 30 30 31 30 31 32 33 35 36 38 39 40 38 38 39 40 41 41 43 45 47 47 47 47 49 48
23 23 26 28 31 31 29 29 29 29 30 31 32 33 33 33 33 33 33 33 34 35 36 37 36 36 37 38 39 40 41 42 43 45 44 43 46 49 51 51 51 53 52 52
25 25 26 29 29 30 30 29 29 31 33 34 35 37 38 38 38 38 39 39 39 40 40 41 42 43 44 43 43 44 44 44 45 47 49 49 49 50 51 54 55 55 55 54
24 25 26 28 30 31 30 30 32 33 35 35 36 37 37 38 39 41 42 43 44 44 45 46 47 48 49 50 50 49 47 47 47 48 50 51 51 53 53 54 55 53 53 53
25 25 26 29 30 30 32 33 34 36 36 37 38 38 39 40 41 42 43 44 45 46 47 49 51 52 53 54 52 53 52 49 47 49 50 50 51 51 52 51 50 51 51 51
26 27 28 29 30 34 36 37 37 38 38 39 40 40 40 41 41 42 44 45 46 48 49 50 51 51 52 52 53 52 51 51 48 46 48 48 49 48 46 45 45 45 46 46
29 26 28 31 35 36 37 38 37 38 38 39 40 40 40 40 41 42 43 45 45 45 46 44 44 43 42 44 46 46 46 49 47 44 43 41 41 41 41 41 42 44 47 50
28 28 28 31 34 37 38 38 38 39 39 39 38 37 38 39 39 40 40 40 40 39 38 37 34 34 32 32 34 37 37 41 42 40 39 39 41 43 44 45 46 48 51 53
29 29 30 31 34 36 37 38 38 38 38 38 37 37 38 37 38 37 36 34 32 32 31 28 27 26 26 27 29 31 34 38 39 40 41 43 45 46 48 50 50 50 50 51
31 32 32 31 32 34 35 36 36 36 36 36 35 35 35 34 33 32 31 29 29 28 26 27 27 27 27 28 30 32 35 38 41 43 45 47 47 48 49 50 53 54 54 55
33 32 32 32 33 34 35 36 35 34 34 33 33 33 33 32 32 31 30 29 29 29 28 30 30 30 30 31 33 36 39 42 45 47 48 49 49 49 50 51 52 53 55 57
35 34 33 32 34 35 35 35 35 34 34 33 32 31 31 32 32 32 31 32 32 32 32 33 34 34 34 35 37 39 41 44 46 47 48 49 50 52 53 54 55 57 59 62

GFSNGP_250_spd_090.txt.gz
Wind_Speed
28 23 24 30 39 48 47 50 48 57 61 68 74 75 74 73 74 70 73 75 78 77 77 80 83 85 86 87 89 91 91 92 93 95 98 99 101 101 101 102 103 102 102 103
30 22 23 26 31 38 46 47 48 54 56 66 69 70 71 71 70 69 71 72 74 73 75 76 78 80 83 88 91 92 93 93 94 94 97 99 101 103 105 105 103 103 103 103
32 25 21 23 28 32 42 47 48 48 58 57 61 63 66 67 68 70 71 71 70 69 72 73 74 74 76 79 84 88 92 95 96 97 98 100 100 101 100 102 102 103 103 104
33 27 22 23 27 33 37 43 44 47 53 52 52 56 62 64 62 64 67 68 67 67 69 70 71 73 74 76 79 81 84 87 89 92 95 97 98 99 101 101 102 101 100 99
33 28 24 23 28 32 34 42 45 46 48 45 45 51 55 55 60 63 65 64 63 64 66 68 70 72 74 75 76 76 78 80 82 84 87 90 90 92 93 94 94 94 93 93
36 28 25 24 27 27 30 38 41 43 43 42 41 45 48 50 53 56 57 58 58 60 58 62 66 69 70 71 71 72 74 76 78 80 84 85 85 85 86 86 86 86 86 86
43 31 24 26 24 24 26 35 37 38 39 39 40 41 43 46 45 47 50 50 52 54 56 58 61 61 61 64 64 64 68 69 71 74 74 74 75 76 78 78 79 79 78 78
41 36 27 24 20 19 24 32 35 37 37 36 37 38 39 41 42 42 44 45 47 50 53 54 55 55 57 57 59 62 63 64 64 64 64 64 64 64 63 64 64 65 66 68
47 37 30 23 22 18 23 31 35 37 37 36 35 36 36 37 38 39 39 40 42 43 44 46 48 51 53 54 55 55 56 56 56 56 56 55 55 54 53 53 52 52 52 52
54 42 31 25 20 22 26 35 36 37 39 37 36 35 36 36 36 38 39 41 41 42 43 44 45 46 47 48 49 49 50 51 50 50 49 48 47 47 45 45 45 44 43 43
53 43 33 26 24 24 26 33 35 37 38 37 36 35 34 34 36 37 37 38 39 40 41 42 43 45 46 47 49 50 50 50 51 50 49 48 48 45 42 40 41 42 42 43
57 46 34 26 24 22 27 31 38 38 38 36 35 34 34 36 36 36 36 36 37 37 38 39 41 43 45 46 47 49 51 51 51 51 52 51 50 48 46 44 41 41 40 40
58 46 36 28 23 19 22 33 38 39 37 37 35 35 34 36 36 35 34 34 34 34 35 35 36 38 41 43 45 47 49 46 47 49 51 52 51 51 50 49 47 47 47 45
57 49 36 28 25 18 21 26 35 39 40 38 36 37 35 35 37 37 36 34 33 34 34 33 33 34 36 38 40 42 39 43 46 45 45 47 49 49 50 50 52 51 51 51
65 52 36 28 24 24 21 25 32 37 38 40 38 37 37 37 36 35 35 35 34 34 34 32 32 34 35 35 35 36 37 38 40 41 43 44 46 46 47 48 49 49 50 52
67 53 41 31 24 23 24 24 27 37 36 38 40 39 38 37 36 36 36 36 37 36 35 35 35 35 35 34 34 34 35 36 38 40 41 42 43 44 45 46 48 49 50 50
72 58 45 34 28 23 25 24 24 30 36 36 37 37 37 37 36 37 37 38 38 38 38 37 36 36 36 36 36 36 37 38 40 41 42 43 44 45 45 47 48 49 49 49
70 59 48 39 31 26 25 26 24 25 30 33 33 35 37 37 38 38 37 37 38 38 38 38 38 38 38 39 40 41 41 42 43 45 46 47 47 47 47 48 48 49 49 49
78 63 53 41 33 28 26 26 26 26 26 29 34 37 39 39 39 39 40 40 40 40 41 41 41 41 42 43 44 46 47 48 49 51 52 53 54 54 54 54 54 53 53 52
80 69 58 44 36 30 27 27 27 26 28 31 36 39 40 41 42 41 42 43 44 45 44 44 44 45 46 48 49 50 51 53 54 55 56 57 59 60 59 59 59 58 57 56
92 74 59 48 38 32 29 29 30 31 33 36 39 42 42 42 44 45 46 46 46 47 47 47 47 48 49 49 49 50 52 53 55 57 58 59 59 60 60 60 61 61 60 58
99 84 61 49 39 35 31 31 33 34 36 38 40 43 43 44 44 45 46 47 47 48 48 47 47 47 49 50 50 51 52 53 52 51 53 52 52 52 52 54 55 55 56 56
108 84 62 48 39 35 34 33 34 36 37 39 39 40 41 42 43 43 44 45 45 46 47 47 48 49 50 50 51 50 49 48 46 45 44 44 43 43 43 43 44 44 46 50
108 84 62 48 39 36 33 34 35 36 39 40 41 42 43 43 44 45 46 46 46 47 48 48 48 49 49 49 47 46 45 43 42 41 39 38 37 35 34 35 37 37 38 41
101 82 60 47 39 36 34 34 35 36 38 40 41 43 44 44 44 45 46 46 47 47 48 47 47 47 45 44 44 42 42 41 40 39 37 36 35 34 33 32 32 33 35 36
92 73 55 47 40 35 34 34 34 36 38 40 42 43 44 44 45 45 45 45 46 46 46 45 45 44 44 43 42 42 40 39 40 40 39 38 38 37 36 35 35 35 37 40
82 65 49 43 41 37 34 35 35 36 37 39 41 43 44 44 44 44 44 44 44 45 45 44 44 43 43 43 42 41 42 42 42 42 42 42 42 41 41 41 41 42 44 46

GFSNGP_250_spd_093.txt.gz
Wind_Speed
43 33 21 20 23 26 36 48 52 61 62 64 67 72 75 76 73 73 73 74 75 77 79 82 84 85 83 82 82 83 84 85 85 86 87 90 92 94 95 97 98 98 100 102
43 36 24 17 19 22 27 36 46 56 57 64 65 66 69 72 71 70 70 73 75 78 78 80 81 80 78 78 79 80 83 84 85 85 86 88 89 91 93 93 94 95 96 97
45 37 28 20 18 20 26 29 39 49 61 60 58 60 62 63 64 67 70 73 73 73 75 76 77 77 74 73 74 76 78 81 84 86 88 89 91 93 94 95 96 97 97 97
46 37 33 25 21 20 24 28 32 42 55 53 52 53 55 56 57 60 65 69 72 71 72 72 71 73 72 72 71 71 72 74 78 81 85 88 90 92 94 95 96 96 97 97
52 44 38 31 21 21 22 25 30 39 47 48 48 48 51 50 52 53 54 59 63 65 67 67 68 69 67 67 68 68 69 68 71 74 76 77 80 84 86 88 90 91 91 92
58 48 42 38 27 19 19 20 26 34 41 44 46 45 44 45 45 47 48 50 52 54 57 57 59 63 64 65 66 68 66 67 70 70 71 73 76 78 81 84 85 86 86 87
69 61 48 39 31 21 20 20 23 28 36 42 45 44 43 43 43 45 46 47 49 50 49 51 55 57 60 62 64 64 65 67 67 68 70 72 74 75 77 78 80 81 82 83
73 62 53 44 35 27 25 23 24 26 32 38 42 44 43 41 40 41 42 44 46 46 47 49 54 55 56 59 61 62 63 65 66 67 69 70 71 72 72 73 72 72 69 69
72 62 55 49 39 33 27 26 27 29 30 36 39 41 40 40 41 40 40 42 44 44 47 49 51 53 55 56 58 59 61 62 63 64 65 65 66 66 65 64 63 60 58 56
79 71 61 51 40 32 29 27 26 29 29 35 39 38 37 36 37 38 38 39 40 40 41 43 43 44 44 46 47 50 54 56 58 59 58 57 56 54 55 55 54 53 52 49
83 76 64 55 44 34 29 28 25 27 30 35 38 36 35 35 35 36 36 37 37 37 37 38 39 40 41 43 44 45 47 48 50 51 51 51 51 52 53 52 52 51 49 47
81 77 65 57 45 37 26 26 26 25 28 33 38 38 36 36 36 36 37 37 37 36 36 38 39 40 41 42 43 44 45 47 48 50 52 53 53 53 53 54 54 52 50 48
83 75 69 56 45 36 30 24 27 21 25 31 38 39 38 37 37 37 37 38 38 37 38 39 40 40 39 40 41 42 44 45 47 48 50 51 52 52 54 54 54 53 51 49
89 78 68 58 45 35 30 24 25 23 21 30 37 40 40 39 38 38 39 39 39 39 39 39 40 40 39 40 39 40 40 42 43 44 46 48 51 52 52 51 50 49 49 49
91 74 67 60 46 36 30 26 23 24 22 27 36 40 42 41 41 40 40 41 41 40 40 41 41 40 39 38 38 39 39 38 38 39 40 42 44 46 47 47 47 47 46 47
92 80 72 58 48 36 28 26 22 23 24 26 33 40 42 44 42 41 41 42 42 41 40 40 40 40 39 38 38 37 37 37 36 36 37 37 38 40 41 43 44 46 47 46
98 94 82 65 52 42 31 25 24 22 24 26 30 35 40 41 41 42 42 42 42 42 41 41 41 40 40 40 39 39 38 38 38 37 37 37 39 40 42 43 44 45 47 47
98 93 93 75 57 46 35 27 24 24 25 27 28 32 36 38 39 40 42 42 42 42 42 41 41 41 41 41 41 41 40 39 40 41 41 41 43 44 45 46 48 50 51 52
102 103 91 76 60 49 39 29 25 25 26 28 29 30 34 38 41 43 42 42 42 42 42 42 42 42 42 42 43 43 42 42 43 44 45 46 47 49 51 53 55 56 58 59
108 103 99 78 67 56 45 31 26 25 27 27 29 34 35 39 42 42 42 42 43 43 44 44 44 45 44 45 45 45 46 46 46 47 48 50 52 55 56 58 59 61 62 63
114 109 101 79 72 60 50 39 29 27 27 30 32 37 39 41 42 44 44 44 45 45 46 46 46 46 46 46 46 47 48 50 51 51 52 54 56 58 58 60 62 62 62 62
113 112 106 99 76 63 51 42 33 30 29 31 34 37 40 42 44 45 44 46 46 46 47 48 48 48 48 49 50 50 50 51 53 54 55 56 56 57 58 57 57 55 54 54
110 118 110 102 82 66 52 43 37 31 32 33 35 38 40 42 43 43 44 45 45 46 48 49 49 49 49 50 50 51 52 53 53 53 54 55 54 53 53 51 49 48 48 48
115 115 117 106 81 67 53 43 39 35 34 35 35 37 40 43 45 46 47 47 48 49 49 50 51 51 51 51 51 52 52 53 53 53 53 52 51 49 48 47 47 47 46 44
119 117 119 103 84 70 54 44 41 39 36 36 38 38 40 43 45 47 48 49 50 50 49 50 51 51 51 51 52 52 53 52 52 51 50 49 47 47 46 46 46 45 44 43
123 120 114 95 83 69 56 44 42 40 38 38 39 39 40 43 45 47 49 50 50 50 51 51 52 52 52 52 52 52 51 50 50 49 48 47 47 47 47 46 47 47 45 44
122 121 111 89 78 65 55 47 41 39 40 39 39 41 43 45 46 48 49 49 50 49 48 48 49 50 50 51 51 50 49 49 48 48 47 48 48 48 48 48 48 48 47 47

GFSNGP_250_spd_096.txt.gz
Wind_Speed
60 46 33 24 19 18 21 30 40 56 64 68 71 74 74 72 71 70 70 71 71 72 73 75 78 79 81 84 86 87 88 89 89 87 87 87 86 86 88 90 91 90 91 93
55 44 35 25 19 18 19 24 33 45 54 64 67 71 73 74 74 73 72 70 71 73 75 75 75 76 78 79 80 81 82 82 82 83 83 85 85 85 86 88 89 89 90 91
53 47 38 28 18 14 17 20 29 35 52 59 63 64 69 72 71 72 72 72 72 74 73 72 73 73 75 76 77 79 80 77 77 78 79 80 81 83 85 85 87 88 89 91
57 56 43 34 26 17 15 18 22 32 44 48 53 57 59 62 66 69 69 68 70 72 72 72 72 73 73 74 76 77 78 76 74 74 74 75 76 78 80 83 86 88 90 91
69 61 51 41 33 26 19 15 20 29 37 41 47 49 55 59 60 61 63 62 64 66 67 69 71 72 72 73 74 74 74 73 71 70 70 71 71 71 74 78 81 83 85 88
76 69 60 52 40 33 25 19 20 26 30 34 42 46 50 53 53 55 56 56 58 59 61 62 64 65 66 68 69 70 70 68 66 66 68 68 68 69 71 73 74 77 78 80
80 75 67 59 49 39 31 25 24 26 30 32 36 42 45 48 51 50 50 50 50 50 53 55 56 58 59 59 61 62 62 63 64 65 66 67 69 70 71 72 73 75 76 78
80 77 75 67 59 48 38 29 27 26 28 31 35 40 45 47 49 49 48 46 45 46 48 49 51 53 52 54 57 60 62 64 65 66 67 68 69 70 71 72 73 73 73 73
76 79 78 74 69 58 46 37 30 27 27 28 30 37 44 46 48 49 48 47 47 48 49 50 52 53 54 55 58 59 61 62 63 64 64 64 66 67 68 69 69 69 68 68
87 87 85 80 74 68 53 40 34 28 27 29 28 33 41 45 46 47 45 44 43 45 47 48 49 51 53 53 55 56 56 56 56 57 58 60 61 62 64 64 63 63 62 61
90 90 85 83 80 76 58 44 37 32 27 28 29 29 36 42 43 44 44 43 43 43 45 45 46 47 48 49 49 49 50 51 50 50 51 51 52 53 53 54 53 52 52 51
85 88 87 82 78 78 61 49 39 32 30 27 30 30 33 39 43 43 41 41 41 40 40 42 43 43 43 43 45 46 46 46 46 47 47 48 48 49 49 49 49 49 49 50
84 90 82 79 77 73 62 48 38 32 29 26 29 31 32 34 40 42 42 41 40 40 41 41 41 41 42 43 42 42 41 42 42 43 44 45 46 47 47 48 50 51 52 53
85 85 88 75 74 74 60 44 37 30 28 27 28 31 29 32 36 40 41 41 41 41 41 41 41 41 41 42 42 42 41 41 42 43 43 43 44 44 45 46 48 49 49 48
87 90 95 83 74 71 58 48 38 31 27 26 27 30 26 31 35 39 41 41 42 41 41 41 41 41 41 42 42 43 43 43 43 43 44 44 44 44 43 43 44 44 44 44
90 91 94 94 79 68 60 50 41 33 28 27 27 29 31 29 34 39 41 43 42 42 43 42 42 43 43 43 44 45 45 44 44 44 44 43 43 43 42 42 41 41 41 42
87 91 97 98 88 73 63 47 39 33 29 28 27 28 30 31 33 36 40 41 43 44 44 45 45 45 45 45 45 46 45 45 44 43 43 43 42 42 42 41 40 40 41 41
88 92 100 101 92 81 68 56 46 37 30 28 27 28 29 33 32 34 38 40 42 44 46 47 47 46 46 45 45 45 45 45 44 44 44 43 43 42 42 42 42 43 44 45
92 95 101 102 101 81 72 60 51 44 34 29 29 28 30 32 36 37 39 41 44 47 47 46 46 46 46 46 45 44 45 45 45 44 44 44 44 43 43 44 45 47 49 50
97 99 104 104 103 87 76 65 55 48 38 31 30 30 31 33 35 40 42 45 46 47 46 46 46 46 46 47 47 46 46 46 46 45 45 45 45 45 47 49 50 52 54 55
95 99 106 107 111 98 91 69 60 51 44 36 32 31 32 37 40 42 45 46 47 48 49 48 48 48 48 48 47 47 46 46 46 47 47 48 49 50 52 53 54 54 56 56
94 102 106 109 112 103 101 73 64 55 46 39 34 32 32 34 39 42 44 46 47 47 47 48 49 49 49 49 49 49 50 50 49 50 51 52 53 54 54 55 55 56 56 58
96 103 106 113 111 106 102 76 66 58 50 42 36 34 32 33 36 39 43 45 46 47 48 49 49 49 50 51 51 52 53 53 53 53 54 54 55 56 56 56 56 55 55 54
102 106 110 110 114 104 110 82 68 60 51 44 40 36 34 34 35 38 41 43 46 48 49 49 50 51 51 52 52 53 53 54 54 55 56 56 56 56 55 55 54 53 50 50
103 108 115 114 121 107 108 84 71 61 52 45 41 38 36 35 35 37 39 42 44 46 49 50 51 51 52 52 54 54 55 55 55 56 56 56 56 55 55 54 52 50 49 49
108 111 117 113 123 104 100 81 72 62 53 47 43 41 38 36 36 37 39 42 44 46 48 50 51 52 52 53 54 55 55 56 56 56 56 56 55 55 53 51 50 49 48 47
112 115 122 119 111 109 97 81 70 61 53 48 46 44 41 39 38 38 40 42 43 45 47 49 51 52 52 54 55 56 56 57 56 56 55 55 54 52 51 49 48 46 45 46

GFSNGP_250_spd_099.txt.gz
Wind_Speed
66 59 45 34 24 18 13 20 25 43 52 59 63 65 67 68 70 74 77 78 78 78 78 78 79 80 82 84 86 88 88 89 92 93 94 96 96 95 95 94 92 92 94 94
70 58 48 35 28 21 16 16 22 31 39 52 57 60 64 66 69 71 71 72 74 73 75 76 78 82 81 80 81 81 83 86 86 88 89 90 90 89 87 87 87 88 89 90
68 61 52 47 36 27 20 17 21 27 41 44 48 57 64 67 68 67 69 71 72 72 72 73 75 75 76 77 77 77 78 79 81 82 82 82 82 82 83 83 83 84 85 86
73 67 62 53 44 34 26 19 20 27 32 34 39 47 56 62 65 67 69 70 71 72 72 73 72 71 72 72 73 75 76 76 77 77 76 77 77 77 77 79 79 79 80 82
75 74 67 64 53 44 35 27 21 24 28 29 33 36 44 52 59 65 66 67 68 69 71 71 72 71 70 72 73 73 74 75 75 74 73 73 73 73 74 74 75 75 77 79
74 76 75 69 63 54 48 34 26 22 23 26 29 33 39 42 51 56 60 63 65 67 68 69 69 69 70 71 72 72 73 73 71 70 71 72 71 71 69 69 71 73 76 77
74 78 78 74 67 63 57 42 32 23 20 23 27 33 37 40 44 50 56 60 63 63 63 64 64 64 64 66 69 69 69 69 70 70 69 69 69 69 68 68 71 73 75 76
77 79 80 76 74 70 65 49 39 29 22 20 22 28 34 38 42 45 52 56 59 60 60 60 60 60 59 60 60 60 62 63 63 63 65 67 68 68 69 70 71 73 73 74
74 78 84 80 80 76 72 60 45 33 27 21 21 23 29 34 38 43 48 52 55 56 56 55 55 56 55 54 54 56 58 59 61 62 65 67 68 70 70 71 72 73 72 72
75 79 85 85 86 83 74 64 51 41 31 25 21 23 26 31 34 39 45 50 53 54 54 53 52 54 54 55 56 57 59 61 63 64 66 66 66 67 66 66 67 66 65 64
73 78 83 87 88 84 77 72 57 46 37 28 24 24 27 29 32 35 40 47 51 53 54 54 54 54 55 55 54 56 58 59 59 59 60 60 60 60 59 59 59 58 57 58
75 80 84 84 84 85 81 77 60 49 37 29 24 24 26 28 31 33 36 42 47 49 52 52 51 50 49 49 51 52 53 53 53 54 54 54 54 53 54 53 53 52 51 51
74 76 82 85 83 78 80 77 67 52 38 27 24 23 25 27 28 32 34 38 44 47 49 49 49 48 48 48 48 47 47 47 48 49 50 50 50 50 49 48 48 48 48 50
74 76 78 83 84 81 77 75 67 56 40 30 24 24 25 27 26 31 35 36 41 44 45 45 45 45 45 45 45 45 46 46 46 46 46 45 44 44 44 44 45 45 46 46
73 77 79 85 88 82 75 73 66 56 43 33 26 24 25 26 26 31 33 36 39 43 44 44 43 44 44 44 44 45 45 44 43 43 43 42 41 42 43 44 44 45 45 45
77 80 83 89 88 89 82 77 69 61 50 40 30 25 24 25 28 30 33 36 38 40 43 44 45 45 45 45 45 44 44 44 43 43 43 43 43 44 44 44 45 46 45 44
79 82 85 89 93 100 87 82 79 69 57 45 37 29 24 24 27 31 33 38 40 42 44 46 46 45 45 46 46 46 45 45 44 44 44 46 46 46 46 46 45 44 43 43
78 83 87 91 94 96 95 88 82 74 60 52 41 33 27 25 27 31 33 36 39 42 43 43 44 46 47 47 47 47 47 46 47 47 48 47 47 47 47 47 46 46 45 44
78 82 86 90 96 97 101 96 84 77 67 56 46 38 31 27 28 31 34 37 41 42 44 46 46 47 49 51 50 49 49 49 49 50 50 49 48 48 47 47 47 46 46 46
82 85 90 90 97 100 96 101 89 88 71 63 51 41 35 30 29 30 34 36 39 41 45 47 49 49 50 52 52 52 52 51 51 50 50 50 50 49 48 48 48 48 49 50
83 89 92 90 99 104 100 106 96 92 77 65 57 45 37 33 31 31 33 36 41 42 43 46 49 51 52 52 53 53 54 54 53 52 52 51 51 51 51 51 51 52 53 54
85 91 92 97 103 107 104 106 101 88 83 73 62 50 41 35 32 32 34 36 40 42 43 45 45 47 49 51 51 53 55 55 55 55 55 54 54 54 54 55 55 55 55 56
89 91 95 95 104 107 104 110 99 90 79 75 65 53 44 36 33 32 33 36 39 43 44 45 46 47 49 51 52 53 55 56 57 57 57 57 57 57 57 57 57 58 57 58
90 92 96 102 102 106 105 105 105 95 84 76 66 55 47 39 34 34 35 36 37 39 42 45 47 48 50 51 52 53 54 55 55 56 56 57 57 57 57 57 57 58 59 59
93 94 98 105 104 103 112 113 97 92 86 76 66 58 50 43 38 35 35 37 39 40 40 42 44 46 49 51 52 54 55 55 56 57 57 58 58 59 58 58 58 58 58 58
97 98 101 109 114 109 117 104 95 94 87 77 66 58 53 48 43 38 37 37 38 40 41 41 42 43 45 47 50 51 53 55 56 57 58 58 59 59 59 60 59 59 58 57
100 105 109 111 116 115 115 104 102 92 85 76 65 60 55 50 45 41 39 38 38 40 41 42 43 43 44 45 47 48 50 51 53 54 56 57 57 57 57 57 57 57 56 56

GFSNGP_250_spd_105.txt.gz
Wind_Speed
59 59 56 49 41 32 28 20 13 17 25 38 50 57 64 70 76 79 82 81 82 85 87 91 96 104 109 113 115 118 119 121 122 123 124 126 127 127 128 130 128 130 131 130
59 62 59 55 47 43 35 27 19 15 19 25 33 53 62 67 73 78 82 83 84 84 86 90 94 96 100 103 108 113 118 119 119 121 122 123 123 125 127 126 128 128 129 128
57 62 60 55 57 43 40 28 22 20 18 19 25 32 48 59 67 72 78 81 83 85 88 90 91 92 93 95 97 100 106 110 114 117 120 123 123 124 123 126 126 127 128 129
54 61 67 66 59 55 44 38 33 21 19 18 23 29 36 43 52 63 72 79 85 89 91 93 93 91 91 92 92 94 95 96 97 103 107 109 112 111 113 113 116 118 122 121
52 59 62 68 69 64 56 51 41 32 21 18 19 26 33 39 43 50 61 72 77 83 89 92 93 92 91 91 90 90 92 94 95 97 101 102 102 102 102 104 104 105 106 106
51 57 65 69 70 70 62 59 54 41 34 23 20 22 27 35 41 44 51 59 67 75 81 84 86 88 90 90 90 90 88 87 88 91 95 95 96 97 98 99 97 97 96 95
51 57 62 67 71 72 71 72 60 55 49 38 27 21 23 28 36 42 46 50 57 65 72 76 78 81 83 84 84 83 83 83 86 88 90 92 94 95 96 95 91 89 89 88
52 54 62 69 72 75 75 74 69 63 63 52 36 25 22 25 30 37 44 46 49 53 60 67 73 76 78 78 78 79 80 80 81 83 84 86 86 83 81 81 81 83 83 84
49 55 58 67 73 75 77 76 75 72 67 62 45 29 23 23 26 32 38 43 46 48 51 53 57 62 69 74 75 76 77 77 78 77 77 77 77 75 75 76 76 75 76 76
51 57 59 64 70 72 77 81 81 76 70 69 55 40 24 23 23 26 31 36 40 44 45 47 51 56 60 64 67 70 72 73 73 72 72 71 70 70 70 70 71 72 73 73
50 55 59 59 63 72 73 76 81 80 78 66 59 47 33 22 20 22 26 31 33 38 40 43 45 51 56 57 59 61 63 64 65 66 67 67 66 66 67 67 68 69 69 69
48 53 54 56 58 67 70 72 76 80 76 71 61 51 38 29 21 19 23 27 31 33 37 39 42 44 49 54 57 58 59 60 61 62 63 64 64 65 65 65 65 65 64 63
47 51 57 55 58 66 68 70 73 77 71 70 66 59 46 38 28 23 20 24 28 32 37 39 40 43 48 50 53 54 58 58 60 61 62 63 65 64 64 64 62 60 60 60
49 51 54 54 58 59 66 73 71 73 71 70 69 61 58 49 42 31 24 22 25 29 33 37 39 42 45 48 50 53 55 58 59 60 61 61 62 63 62 60 59 59 59 59
49 52 57 58 57 56 62 65 77 80 79 77 76 73 60 56 51 44 32 25 25 27 30 33 36 38 41 45 48 51 53 56 57 58 59 60 61 61 60 59 59 58 58 58
50 54 57 61 53 63 68 66 78 84 86 80 80 85 76 68 62 53 46 35 26 25 29 32 34 35 37 41 44 46 49 51 52 54 54 54 55 55 56 54 55 55 55 54
48 54 58 63 57 69 74 69 81 87 90 95 85 85 89 78 72 61 54 47 38 29 26 30 33 34 35 38 41 43 45 47 49 50 50 51 51 51 52 53 54 54 53 53
49 56 60 64 67 68 76 70 87 86 94 92 94 97 95 89 78 68 59 53 44 38 32 29 32 35 36 38 39 43 45 47 48 49 49 49 51 52 53 54 54 54 53 52
52 56 62 66 69 73 78 77 86 88 93 93 95 99 97 96 86 75 66 59 49 41 37 33 31 34 37 39 42 42 47 49 48 50 52 52 53 54 56 55 54 54 54 53
52 57 64 66 71 77 80 81 85 91 94 92 97 94 98 97 91 82 71 63 55 46 39 36 34 34 37 39 42 44 47 48 50 52 54 56 57 58 58 57 56 55 55 55
54 60 65 67 73 76 83 84 89 90 98 98 99 97 95 93 89 81 74 64 56 48 43 39 37 36 37 38 41 44 47 49 51 53 55 58 59 59 59 58 56 57 57 58
57 63 68 71 74 80 85 87 90 92 95 102 101 98 102 96 90 82 73 65 54 47 43 40 38 37 37 38 40 42 44 46 48 50 53 55 57 60 62 61 60 60 60 60
61 66 69 72 75 82 84 90 92 97 96 101 103 106 106 96 90 83 74 67 57 48 44 40 38 37 37 38 39 42 43 44 46 48 51 52 54 56 58 59 60 61 61 61
65 66 70 73 78 85 88 92 95 97 97 102 105 104 101 100 91 83 74 65 57 50 44 40 38 38 37 38 39 41 42 44 44 45 47 49 52 54 56 57 58 59 61 62
66 69 72 77 82 88 93 93 99 101 101 108 105 104 102 97 89 82 73 65 57 50 45 41 39 38 37 37 39 40 42 43 43 43 44 46 48 51 54 55 57 59 60 61
71 73 76 81 86 92 94 96 98 103 105 103 105 106 101 97 89 79 71 64 59 51 46 42 39 38 37 37 38 40 41 43 43 44 45 46 47 48 50 52 54 56 58 59
72 76 79 84 89 94 99 97 102 105 105 106 110 105 102 91 81 75 67 62 58 52 46 42 39 36 36 36 37 39 40 42 42 43 44 44 44 46 48 49 50 52 54 56

GFSNGP_250_spd_111.txt.gz
Wind_Speed
47 51 46 49 48 44 41 32 25 18 14 10 19 31 51 75 88 109 129 133 141 141 142 145 143 132 133 130 118 126 130 120 116 122 118 118 121 124 121 116 115 117 114 113
46 51 52 50 49 52 48 39 36 26 17 13 11 20 31 48 78 94 119 134 136 140 139 141 142 138 147 141 134 128 130 131 122 109 116 124 122 126 128 129 127 124 122 118
44 50 54 55 53 52 55 53 48 37 31 17 13 15 22 35 50 74 94 117 143 148 148 149 147 148 145 141 147 140 137 131 129 132 128 127 128 126 124 124 131 131 132 131
42 48 53 56 57 56 58 59 55 50 41 33 21 14 22 27 37 51 72 98 119 149 157 155 153 153 152 152 148 145 144 141 133 135 139 133 129 134 139 135 134 133 131 128
38 45 50 54 58 58 63 60 56 50 46 41 35 20 15 23 32 40 50 69 90 110 149 158 159 160 161 159 156 156 154 149 145 143 140 139 138 139 137 133 133 137 140 144
35 40 47 53 54 60 60 62 63 56 55 42 39 34 25 15 21 33 42 51 65 80 104 135 156 156 160 159 159 158 156 158 158 155 155 153 152 150 149 150 151 151 149 150
33 39 44 50 54 58 61 63 64 66 62 56 48 46 40 31 19 19 28 41 50 60 77 93 111 126 152 163 161 163 165 164 165 163 162 161 161 159 160 161 160 159 161 165
31 36 40 47 51 57 62 65 64 66 66 66 60 54 48 45 37 24 19 26 37 49 57 66 80 92 108 134 143 156 162 171 168 168 172 174 172 177 174 172 171 169 174 171
30 35 39 44 50 53 60 61 62 65 66 70 66 61 57 52 42 35 26 23 27 35 45 54 61 69 82 93 106 116 132 145 143 141 139 143 146 152 157 152 156 158 156 158
28 33 38 40 46 49 55 61 63 61 67 68 69 67 61 58 57 46 33 27 24 27 35 42 50 58 63 69 76 87 96 103 110 115 119 120 126 129 132 134 135 136 137 137
27 31 35 40 44 50 55 58 58 59 62 66 65 63 62 60 57 53 49 36 28 26 28 34 39 45 52 57 64 69 74 78 83 88 93 97 101 105 108 112 113 114 115 116
25 30 33 39 43 48 51 56 59 59 59 59 62 64 65 64 59 56 51 49 37 28 26 29 32 37 43 48 54 59 63 67 71 74 78 82 86 89 91 94 97 100 102 102
26 29 33 37 42 47 50 53 59 60 55 61 60 65 66 68 65 64 59 57 52 39 32 28 27 32 37 42 46 50 55 60 65 69 73 75 77 79 80 80 82 84 86 86
27 30 34 37 40 46 50 55 60 61 64 59 59 64 64 68 69 67 64 63 61 55 44 35 32 30 32 37 43 47 51 55 58 61 64 68 70 70 71 74 76 76 76 74
28 32 34 37 40 45 50 54 58 64 66 65 63 62 65 70 70 72 70 67 66 63 59 49 37 34 33 34 38 42 47 51 54 55 58 62 64 65 65 66 68 70 69 69
28 33 36 39 40 44 49 54 58 61 64 65 62 63 65 72 73 75 73 73 73 70 66 62 52 39 33 32 35 39 42 45 50 54 56 59 61 62 62 63 65 68 68 68
28 31 37 40 43 45 48 54 58 62 64 67 66 69 69 70 76 76 79 77 78 75 71 69 63 51 43 38 34 36 40 42 45 49 54 58 60 61 63 63 63 65 67 68
28 32 38 41 46 47 50 53 59 64 65 69 66 71 77 74 75 81 79 80 81 81 77 75 69 58 49 43 39 37 37 40 43 46 49 53 57 59 61 61 62 62 63 65
31 34 39 42 46 49 52 57 62 62 66 69 66 72 77 75 77 84 84 82 82 85 81 81 72 62 54 47 44 42 39 40 42 45 46 49 53 56 57 58 59 59 59 60
33 36 40 43 46 49 51 57 61 65 69 69 71 69 81 80 80 80 87 88 87 87 84 83 74 63 56 51 47 44 42 42 42 44 46 48 48 51 53 54 58 58 58 59
34 39 43 44 46 51 54 58 64 68 69 70 73 71 80 84 80 83 88 88 93 93 88 84 77 65 57 53 49 47 45 43 42 44 45 47 48 49 52 54 55 58 59 60
36 40 43 45 49 53 56 60 64 68 72 74 76 75 78 85 86 88 91 93 95 95 91 85 75 65 57 52 49 46 45 44 43 43 44 45 46 48 50 52 54 57 59 61
38 42 46 48 51 54 58 62 68 71 76 77 78 78 85 89 90 88 94 94 96 96 93 85 76 66 58 52 47 45 43 42 42 41 41 43 44 46 47 49 51 53 56 59
43 46 49 51 53 55 60 65 71 74 77 82 82 88 84 88 90 92 98 99 100 98 92 82 72 63 56 50 45 42 41 40 39 39 39 40 42 43 44 46 48 50 52 54
46 49 51 54 55 58 62 68 74 78 82 83 82 90 90 95 93 97 100 101 100 94 89 78 67 60 54 47 43 39 36 35 35 35 36 38 39 40 42 44 45 48 50 50
49 51 54 57 59 62 66 70 76 81 85 88 90 90 94 94 97 99 103 102 102 92 83 73 63 58 53 46 40 37 35 34 34 33 34 35 36 37 39 40 41 43 45 48
51 54 58 59 62 66 71 75 80 85 88 91 91 96 95 98 99 101 104 104 101 89 79 70 61 56 51 46 40 38 37 36 34 33 32 32 33 35 36 36 38 40 42 44

GFSNGP_250_spd_114.txt.gz
Wind_Speed
42 44 45 43 43 36 39 29 21 19 12 5 11 28 35 53 69 86 97 113 123 131 133 135 135 137 120 110 114 114 112 110 105 109 109 104 104 105 104 107 106 107 107 103
43 47 49 48 47 45 37 41 33 19 13 15 10 11 29 37 45 69 92 103 117 123 130 137 138 139 138 126 118 112 111 118 113 114 110 110 104 104 105 109 106 103 103 103
41 44 50 52 53 52 50 51 49 46 28 20 15 13 15 29 43 48 67 96 100 121 131 137 140 142 145 141 129 125 120 113 111 112 114 109 104 103 101 106 106 108 107 106
37 43 48 52 55 53 53 53 57 55 48 38 24 11 15 18 29 48 54 64 88 109 125 134 145 148 152 148 146 136 133 128 123 118 119 120 117 111 112 111 117 119 117 117
35 40 46 50 52 57 56 55 57 57 51 48 36 28 18 13 19 29 46 61 66 81 103 122 139 151 155 153 157 153 146 142 142 137 130 126 125 125 124 127 130 126 121 119
32 36 41 46 51 55 58 60 62 61 57 50 47 39 31 25 19 16 26 39 57 74 77 96 115 132 141 150 156 159 156 158 151 148 144 144 136 134 137 134 131 129 128 130
28 33 38 42 47 52 55 62 64 66 65 59 54 45 44 38 32 28 16 20 32 50 67 87 95 115 121 134 149 157 165 165 164 163 159 155 149 145 145 143 138 136 134 134
27 30 33 38 42 47 54 58 67 67 67 67 66 64 58 49 43 35 30 19 19 27 40 59 77 97 121 132 144 150 161 162 165 169 165 164 165 161 159 153 153 153 146 149
25 28 31 35 40 45 49 54 59 63 68 69 69 68 63 60 54 45 35 29 22 16 22 33 49 67 82 96 115 130 152 160 156 154 163 170 171 170 167 164 165 161 159 167
26 28 30 34 39 43 44 49 53 60 68 68 69 67 63 61 60 57 46 40 28 24 20 20 27 37 52 68 84 102 115 138 160 156 158 164 159 163 167 164 169 174 170 167
27 30 31 33 38 43 44 46 50 55 59 66 71 69 65 63 65 63 57 49 43 37 30 25 22 26 33 43 55 70 85 100 124 137 135 158 174 173 170 163 151 154 164 167
29 31 33 33 37 41 45 45 50 54 57 62 66 63 61 66 65 64 61 55 50 42 43 37 35 30 28 32 38 48 58 69 81 93 105 117 125 129 142 160 178 167 164 169
28 32 34 35 37 41 44 46 48 51 56 59 61 63 64 65 68 67 68 68 62 53 52 45 43 40 34 31 32 37 43 51 60 68 74 82 87 93 100 108 115 120 129 136
28 31 33 36 37 41 44 47 49 53 55 59 61 65 63 64 66 68 69 70 70 69 65 60 58 51 45 37 34 34 37 42 48 55 61 66 72 78 84 89 92 95 97 98
28 30 33 35 38 41 44 48 49 51 56 58 62 62 65 66 64 68 71 72 74 74 74 72 68 64 55 47 40 36 37 38 42 48 52 56 61 65 73 72 76 79 81 83
30 31 32 35 39 41 43 46 49 52 54 58 62 67 66 64 68 73 76 73 76 80 76 75 77 73 68 59 50 43 39 39 41 43 47 52 55 58 63 66 69 71 73 75
32 32 31 35 39 42 44 45 49 53 55 57 61 67 68 70 68 72 76 77 77 79 82 82 80 79 72 66 59 52 46 41 40 42 44 46 50 54 56 60 63 68 71 71
33 32 30 35 38 41 44 47 50 53 56 57 60 65 69 72 73 75 78 80 81 83 87 86 86 85 81 72 64 57 51 46 44 43 44 45 47 50 53 55 58 62 66 67
35 33 33 38 38 40 44 47 51 56 58 61 62 65 68 73 75 79 79 82 85 89 90 88 89 93 85 75 67 59 53 49 46 45 45 45 46 48 50 52 55 56 59 62
37 36 37 40 38 40 44 48 54 58 60 64 65 67 71 72 78 81 85 88 90 90 90 91 97 93 86 75 68 60 54 50 47 45 45 45 46 47 48 50 52 54 55 57
34 34 36 38 39 42 46 51 54 59 61 65 66 68 73 73 82 86 90 92 91 92 97 96 97 97 84 74 67 61 55 50 47 44 43 43 43 45 46 48 49 51 53 54
34 34 37 39 42 45 50 53 56 60 64 67 70 71 75 77 83 89 91 94 94 95 96 98 101 93 82 73 65 58 54 49 45 43 42 41 41 41 44 45 46 48 50 52
37 36 38 41 45 49 54 56 59 64 67 71 73 75 77 80 84 94 96 97 98 99 99 101 101 92 81 71 63 57 51 47 44 41 39 38 38 38 40 42 43 44 46 49
40 41 42 45 49 52 57 58 61 65 69 72 76 78 81 85 87 94 95 98 98 102 101 104 104 93 79 69 62 56 50 45 42 40 37 36 36 36 37 39 40 41 43 45
45 45 47 49 53 56 58 59 64 69 71 72 77 79 84 86 90 98 99 100 101 103 105 108 104 90 77 69 62 54 48 43 39 38 37 36 36 36 37 37 39 40 41 42
47 48 51 54 57 58 59 62 68 70 71 74 78 82 87 90 92 99 100 102 104 106 108 109 99 85 76 68 62 52 47 42 39 38 37 36 35 34 35 35 36 37 38 39
46 48 51 54 56 59 62 64 69 69 72 75 80 84 89 92 97 98 100 103 106 108 110 108 95 81 74 68 60 51 46 43 42 40 37 34 32 31 32 33 34 34 35 36

GFSNGP_250_spd_117.txt.gz
Wind_Speed
44 47 48 49 44 43 41 26 23 28 22 21 10 10 19 28 39 54 58 90 95 103 103 109 111 107 115 113 112 108 108 103 108 102 101 100 98 100 100 96 98 98 94 91
45 48 51 50 49 48 44 40 36 23 24 26 21 13 12 20 31 35 51 61 87 101 107 110 113 111 121 119 118 119 114 115 110 107 109 106 105 101 101 102 104 100 100 98
42 46 50 50 53 52 53 47 43 42 33 29 25 23 15 11 18 29 37 55 66 90 105 109 116 116 126 126 124 121 121 117 117 116 113 110 115 114 109 105 104 103 103 107
38 42 45 52 53 53 54 54 54 45 44 36 32 22 17 16 10 16 29 40 53 66 96 109 114 121 126 130 131 128 128 125 123 119 120 116 114 113 117 120 116 112 115 114
34 38 42 47 50 53 55 54 54 53 53 45 40 37 28 21 14 7 14 27 40 56 75 86 95 119 127 136 136 137 133 132 131 131 129 124 122 118 115 116 115 117 116 118
29 33 38 42 45 48 51 53 54 56 56 53 55 44 36 33 24 18 13 10 23 38 53 71 90 106 120 129 134 137 143 146 142 142 139 132 129 126 127 123 122 122 124 124
25 28 32 36 41 45 46 48 51 56 57 63 60 53 45 42 36 25 27 26 14 20 32 46 62 80 109 127 131 136 140 147 146 150 144 146 145 136 131 130 125 128 129 128
23 26 28 32 37 41 44 47 49 51 53 56 61 61 60 49 45 44 34 31 29 24 18 31 44 54 67 87 118 139 137 150 150 156 157 157 155 151 147 145 141 143 140 137
23 24 27 29 33 37 41 44 47 50 53 55 58 62 64 63 57 52 49 44 36 33 30 21 23 33 48 60 74 90 107 131 148 152 161 164 164 161 157 157 159 159 151 155
25 25 27 29 32 35 38 40 45 49 52 54 55 60 61 67 65 63 55 55 52 45 40 32 31 28 27 37 47 60 74 89 107 119 135 154 159 161 164 167 169 170 170 168
26 27 28 29 30 34 37 39 43 45 48 53 56 58 61 64 69 67 63 62 59 54 51 47 42 36 33 30 31 39 49 60 71 83 97 112 125 135 143 152 161 161 163 169
25 26 28 29 29 32 34 37 40 43 46 49 52 55 58 63 67 69 69 67 66 66 62 60 53 50 44 44 35 34 38 43 51 60 70 81 90 101 110 120 130 142 150 157
26 24 26 27 29 32 34 36 39 41 44 47 51 54 56 59 63 64 70 67 69 69 72 67 66 65 61 60 53 39 35 39 44 49 56 62 70 78 85 94 103 111 118 124
27 26 26 27 29 32 34 36 39 42 43 46 50 55 59 59 64 66 68 72 74 74 77 76 75 71 69 68 70 57 46 40 40 44 48 53 57 62 68 74 81 89 96 101
30 28 27 27 30 33 35 35 38 42 45 47 51 56 59 63 63 67 68 69 74 79 79 80 80 78 79 76 75 71 59 49 43 40 44 47 51 55 59 63 66 72 77 82
31 31 28 29 31 34 36 36 37 41 45 48 50 56 58 63 66 68 70 70 74 80 81 85 85 84 84 83 84 83 76 64 52 46 42 45 47 50 53 56 60 62 66 71
32 31 29 32 33 35 36 39 38 38 44 47 49 54 59 61 65 68 71 75 75 80 84 87 89 89 87 88 91 91 85 73 63 55 49 45 45 48 49 51 54 57 61 64
32 32 32 34 35 37 38 40 40 40 44 48 51 54 58 63 67 70 70 76 76 80 86 85 90 92 91 91 93 94 89 74 65 58 54 49 46 46 48 50 51 53 56 58
34 33 34 36 38 39 39 39 40 42 44 50 55 58 60 64 69 72 72 76 78 81 86 88 91 95 94 98 96 98 90 73 64 59 54 51 47 46 46 48 49 51 53 54
36 35 36 36 39 40 37 36 39 42 46 50 56 59 61 65 71 74 74 77 79 84 88 89 94 98 97 98 100 97 91 74 64 59 55 51 47 45 44 45 46 47 49 51
39 36 37 36 38 38 37 37 38 43 48 52 57 60 64 68 74 75 78 80 81 86 90 93 96 101 102 103 100 98 87 73 65 60 54 51 47 44 41 41 42 44 45 47
41 37 37 38 39 39 37 38 41 46 49 55 59 62 65 71 73 76 81 84 82 88 92 97 99 102 105 106 101 97 84 72 65 60 54 49 46 42 39 38 39 39 41 44
43 39 38 39 40 41 40 43 46 50 54 58 60 63 67 72 74 80 82 85 86 91 94 99 102 104 108 107 102 93 82 72 66 58 52 47 43 41 38 38 37 38 38 40
44 41 38 41 43 43 44 48 50 53 54 57 61 65 68 72 76 81 86 88 90 95 97 100 105 108 112 105 101 90 82 74 67 57 51 47 42 40 38 38 38 39 39 39
47 45 42 41 44 46 47 51 51 53 56 59 64 67 71 76 80 84 87 88 93 95 100 103 106 111 111 106 100 89 80 74 66 58 51 47 44 40 39 38 38 38 37 37
51 48 43 40 42 44 47 52 55 59 61 63 67 70 73 77 82 87 89 89 95 97 104 107 108 114 110 107 96 86 78 73 65 58 52 46 44 42 39 38 37 36 34 33
51 49 46 44 45 48 53 55 57 61 64 66 69 71 75 79 83 89 90 90 96 99 106 108 110 112 109 102 92 84 76 69 63 58 51 46 43 42 40 38 37 35 34 32

GFSNGP_250_spd_120.txt.gz
Wind_Speed
43 48 49 50 52 50 47 43 38 32 26 25 16 4 14 22 28 30 48 59 56 87 84 87 88 88 90 83 78 90 103 100 95 96 89 87 91 92 98 95 94 93 98 97
41 45 46 47 50 49 54 52 44 36 32 27 22 18 9 9 21 35 33 41 53 62 76 91 90 95 94 85 83 90 100 103 104 103 98 94 98 101 96 101 101 96 97 99
37 41 45 45 47 47 48 49 51 47 41 33 26 24 20 13 5 16 28 36 39 50 56 73 73 94 97 99 94 93 96 106 107 101 103 103 101 99 99 98 100 100 99 99
32 36 38 43 46 48 48 49 48 47 51 40 34 30 23 17 16 11 10 21 35 45 63 71 69 76 93 99 102 105 107 105 104 108 113 114 115 107 104 109 109 107 106 105
25 29 33 36 40 42 46 49 50 48 51 53 53 39 33 25 13 12 12 10 13 24 37 51 61 82 101 94 104 106 114 109 111 112 114 117 119 118 114 113 116 116 116 114
21 23 25 30 33 37 40 42 45 48 50 49 52 56 56 31 28 28 22 15 13 8 14 27 41 53 66 79 105 119 116 119 118 116 121 122 124 123 118 120 122 121 124 123
20 21 23 25 28 32 35 37 39 41 45 47 47 49 55 55 48 42 29 26 25 19 15 13 17 29 43 58 72 85 106 124 124 121 123 128 133 132 134 133 132 129 126 124
23 23 23 24 25 27 30 32 35 38 39 43 45 45 51 53 55 55 50 38 32 30 23 18 12 15 20 30 46 62 78 93 108 126 133 135 138 139 141 147 140 138 135 136
29 27 26 26 26 24 27 29 31 33 35 38 41 44 46 51 53 55 56 56 49 42 34 26 23 17 14 17 22 32 47 68 84 101 114 128 134 145 146 149 159 152 150 143
29 30 28 28 26 24 24 27 28 31 34 37 38 41 44 45 50 53 57 57 57 55 50 45 39 23 22 14 20 20 24 38 52 67 85 102 115 128 143 153 159 162 160 157
27 29 28 27 26 24 23 25 28 29 31 34 37 39 41 44 46 51 53 56 60 61 60 57 51 52 42 32 28 26 21 23 29 44 58 68 78 91 106 122 141 161 167 168
27 29 30 28 27 27 24 24 26 28 29 33 35 37 39 42 46 49 52 56 58 60 65 65 64 61 62 55 49 42 33 29 33 35 40 50 59 66 77 87 98 113 126 136
30 29 30 31 29 28 28 26 27 29 30 31 33 37 38 40 45 47 51 54 59 63 65 68 69 70 71 71 67 62 53 48 42 41 40 42 47 56 60 66 75 83 91 99
33 32 31 33 31 31 29 28 28 29 30 32 32 35 39 42 44 48 50 52 58 62 65 69 72 73 75 76 77 74 65 66 58 54 50 46 46 47 53 59 62 65 69 77
34 36 32 34 34 33 31 30 29 30 31 33 35 35 36 39 43 48 50 54 58 63 65 71 72 74 78 80 82 80 79 79 72 69 64 56 50 48 48 52 56 59 62 65
38 38 35 36 35 35 32 31 32 33 32 34 37 38 39 40 44 48 51 56 60 64 67 70 74 77 81 81 84 85 85 86 82 82 76 65 57 50 48 50 52 54 56 60
44 42 37 39 36 37 36 33 32 34 35 35 38 38 39 43 46 49 54 58 61 65 66 71 76 79 83 83 87 88 90 90 88 89 82 71 62 55 50 49 50 52 54 56
48 44 42 40 40 40 37 35 34 34 36 38 37 38 39 43 47 50 55 59 62 64 70 73 79 81 83 85 91 90 93 93 92 90 85 72 62 56 54 51 49 49 50 52
51 46 45 42 42 43 40 37 35 35 36 38 38 38 42 46 51 56 58 61 64 67 73 78 83 86 87 87 93 94 96 94 95 91 84 73 63 56 53 51 48 47 47 48
56 51 47 44 44 44 43 40 37 37 38 39 38 40 45 48 54 57 59 62 67 70 75 80 84 86 91 92 95 100 99 98 98 91 82 71 63 57 52 49 46 44 44 45
62 57 54 49 45 46 45 44 41 41 39 40 40 42 47 52 55 57 62 65 68 71 77 82 87 91 95 97 99 105 102 101 99 91 81 71 64 57 51 47 44 42 41 42
68 62 59 53 48 48 46 45 46 43 41 41 42 45 50 54 56 60 64 68 70 73 78 82 89 92 97 101 102 107 105 102 100 89 80 71 63 57 51 47 44 42 39 38
73 68 63 57 52 49 48 46 47 47 46 46 48 49 52 55 60 64 67 70 73 76 79 84 91 94 98 104 105 110 106 103 98 88 79 70 62 56 51 47 44 41 39 38
76 73 68 62 56 52 48 48 47 48 49 50 51 53 55 58 62 67 70 73 75 78 81 88 93 97 100 105 108 114 107 104 97 88 78 67 60 55 51 47 44 41 39 37
78 75 70 66 58 52 50 50 49 50 49 50 52 55 60 62 66 70 73 76 78 79 86 91 95 100 102 105 112 114 108 104 95 85 75 66 59 55 50 47 43 41 38 36
82 77 74 68 60 55 54 51 50 50 50 51 54 58 61 66 69 71 74 78 80 82 89 94 97 101 103 108 116 112 109 102 93 82 72 66 59 54 50 46 44 41 39 36
83 80 76 71 64 58 56 53 50 52 53 54 58 61 65 68 72 74 77 82 85 86 92 95 99 102 104 111 115 110 106 97 87 77 70 64 59 53 49 45 42 41 38 36

GFSNGP_250_spd_123.txt.gz
Wind_Speed
35 40 44 49 50 50 47 46 44 37 33 31 25 17 10 5 15 22 28 27 50 52 54 83 87 98 93 105 101 95 92 97 104 101 99 94 87 86 89 92 90 91 94 90
30 32 39 40 44 46 50 50 44 44 38 35 30 26 19 13 6 13 16 39 37 50 71 64 84 83 93 88 91 93 93 98 96 102 102 91 92 91 95 100 102 99 96 97
28 30 31 32 36 38 40 42 46 49 45 41 39 36 28 22 11 16 26 18 26 33 57 67 73 78 82 80 80 96 95 90 100 99 98 102 98 95 97 97 108 105 101 100
26 27 29 30 31 34 34 35 39 42 46 42 41 40 38 31 23 17 13 12 38 48 46 57 69 64 74 96 93 90 98 101 96 104 107 99 99 95 99 99 103 109 107 110
21 23 25 28 29 31 32 33 34 36 35 37 43 45 39 40 39 32 20 14 6 11 19 29 43 56 61 67 78 83 87 88 97 101 103 101 96 97 95 109 116 117 116 110
20 20 22 26 28 28 29 30 31 33 33 35 34 36 40 41 36 36 39 37 29 17 11 6 15 29 40 47 58 69 79 90 89 102 96 100 104 113 100 100 113 119 118 119
22 21 21 22 25 29 27 25 25 28 29 31 32 33 33 35 34 36 39 42 38 40 35 26 16 10 11 20 32 43 54 65 78 89 98 101 105 107 107 109 112 118 124 126
24 23 22 22 23 25 27 26 23 22 23 25 27 30 31 32 31 32 33 32 36 35 30 33 31 30 23 19 18 21 29 41 50 61 73 84 97 111 110 113 119 122 126 130
28 27 24 23 23 24 23 27 27 22 20 20 21 23 27 27 30 32 32 34 36 36 33 33 31 29 33 31 22 20 22 24 30 39 45 56 71 88 100 116 123 130 132 135
29 31 29 27 23 25 25 24 26 27 23 23 22 22 22 24 26 29 30 31 33 36 35 36 37 37 44 45 41 34 24 19 21 25 34 36 48 64 76 87 100 108 126 139
30 31 32 31 29 28 27 28 27 27 27 25 24 25 26 25 24 27 29 30 32 35 39 39 39 43 46 50 49 51 52 48 40 36 27 36 41 53 65 73 81 88 94 103
36 31 34 31 33 33 30 31 31 30 28 28 27 26 27 30 29 28 30 33 34 36 39 42 43 46 49 53 57 59 60 60 61 57 47 42 40 40 48 61 69 78 86 89
43 37 33 34 33 34 33 34 34 34 32 30 28 27 28 31 32 31 32 35 36 37 40 41 46 49 52 55 58 63 65 70 70 67 64 55 53 51 52 52 56 60 70 76
47 47 39 36 36 34 33 33 34 35 36 34 31 29 28 32 34 34 33 37 40 41 42 45 48 52 53 59 61 65 70 75 75 76 74 73 65 62 57 57 59 59 57 62
52 51 48 43 39 35 33 33 33 34 37 38 37 35 32 34 35 36 36 38 42 45 46 48 51 54 58 61 64 67 73 76 78 84 79 82 80 77 71 67 62 61 61 57
57 56 58 53 44 38 36 33 34 33 36 40 40 39 36 35 37 38 38 40 43 47 50 51 53 57 60 65 68 70 75 79 82 86 88 88 90 86 81 75 69 64 61 60
62 60 63 59 50 46 43 36 36 35 35 39 41 41 38 37 39 40 41 42 46 48 51 54 56 59 63 67 70 73 79 84 85 88 94 92 95 90 85 79 70 65 62 60
61 64 63 63 58 53 50 43 40 39 38 39 40 41 41 39 41 43 42 43 47 50 52 55 58 62 67 70 73 75 82 86 89 91 94 97 97 91 86 78 70 64 60 58
54 64 65 64 64 58 57 51 46 41 41 41 41 41 43 43 44 46 43 45 49 52 54 59 62 66 70 73 77 78 85 88 94 95 96 99 98 90 84 75 68 61 57 54
56 60 67 68 66 64 62 57 51 48 45 42 44 44 45 45 46 47 48 48 52 56 59 62 66 70 73 75 80 83 90 89 96 99 101 103 98 90 83 72 65 59 53 50
57 59 63 70 69 68 65 62 58 55 49 46 45 47 48 48 49 50 51 52 56 60 63 67 71 73 76 79 83 86 94 93 97 101 102 105 98 89 81 71 63 56 51 47
57 58 61 66 71 70 69 66 63 61 56 51 49 49 50 51 53 52 53 55 57 63 68 71 74 77 80 82 87 89 94 97 98 104 103 106 96 88 78 69 61 55 49 45
57 58 61 65 70 72 70 69 67 64 62 57 54 52 51 53 54 55 54 57 62 66 70 74 77 80 82 84 90 93 97 98 103 107 106 105 96 87 77 67 59 54 49 44
62 59 63 64 67 72 73 71 69 67 64 63 60 57 54 54 55 56 57 60 65 69 73 77 80 83 84 86 91 97 100 101 107 107 107 105 95 85 74 65 58 54 50 44
67 63 60 65 64 68 72 72 71 69 67 65 63 61 57 57 56 57 62 66 69 73 76 80 82 85 87 90 94 99 100 104 109 105 109 101 90 79 70 62 57 53 50 46
67 67 62 62 63 65 69 72 73 70 68 66 64 63 60 58 57 59 65 69 72 76 79 82 86 88 90 93 96 99 103 107 108 108 106 95 84 75 66 59 56 53 49 46
64 67 64 60 59 63 67 70 73 71 68 65 64 63 61 59 59 63 68 72 75 79 81 85 88 89 91 94 98 99 106 108 104 107 98 87 77 68 61 58 56 53 48 45

GFSNGP_250_spd_126.txt.gz
Wind_Speed
33 33 37 42 44 46 45 40 36 34 33 26 20 18 16 6 4 8 11 15 18 27 31 36 45 60 70 79 82 83 81 81 84 93 96 98 104 105 107 105 102 94 92 93
25 27 29 32 35 38 40 44 43 40 38 35 32 23 19 17 10 5 7 12 8 25 28 34 34 35 55 79 79 76 92 87 86 94 94 92 99 109 114 114 112 103 94 91
28 23 23 26 29 30 31 34 36 41 42 41 40 36 28 25 22 16 10 8 14 16 19 15 27 33 37 35 45 80 86 78 89 90 94 103 105 103 105 107 105 99 101 89
26 29 24 21 24 26 26 27 28 30 35 39 42 42 41 37 31 24 18 7 14 27 30 38 40 41 45 50 45 51 49 68 80 79 92 95 97 100 108 107 106 100 98 101
21 25 29 29 23 25 25 26 23 22 23 26 29 32 36 39 38 34 31 26 22 13 20 43 40 47 45 51 58 57 59 58 64 67 74 85 85 86 99 106 105 101 101 98
22 21 24 28 32 28 25 26 25 24 21 20 20 23 24 23 27 32 31 30 29 22 16 11 7 6 11 23 34 43 54 60 65 71 73 70 73 75 95 97 102 105 106 108
25 23 21 22 26 31 32 27 25 25 23 22 22 21 19 19 18 21 21 20 26 29 30 28 28 23 18 8 8 10 16 25 35 46 57 67 72 78 81 91 91 93 93 95
28 26 23 21 20 23 27 30 26 24 22 22 20 20 21 22 21 20 20 22 18 18 19 19 20 22 26 28 28 23 19 19 18 20 25 31 40 53 70 81 90 98 103 112
32 30 30 25 23 20 21 23 28 25 22 23 22 19 19 19 21 20 18 18 17 17 19 19 15 23 19 16 19 19 17 20 22 19 20 24 30 39 44 51 61 73 87 100
33 33 33 30 30 26 22 22 23 26 26 23 22 23 22 21 19 22 21 19 18 18 18 18 19 19 21 21 21 22 20 21 28 28 33 31 27 26 27 48 51 53 62 76
36 36 33 36 33 31 29 25 24 25 26 26 25 24 24 23 24 22 23 23 22 20 21 23 23 23 25 27 28 30 33 34 32 37 43 48 48 44 36 35 41 45 50 56
38 40 35 41 36 35 35 33 28 28 28 27 27 27 26 27 26 27 27 27 27 27 25 26 27 28 29 30 31 32 35 37 42 45 46 55 56 58 53 54 52 52 55 59
41 41 41 46 42 38 40 38 34 31 30 30 29 27 28 29 30 31 32 33 32 33 32 31 33 34 34 35 34 36 41 44 46 50 56 60 64 67 67 63 62 63 61 63
40 39 46 50 49 46 45 41 39 37 34 34 32 32 30 30 32 34 34 36 36 37 37 37 37 39 39 41 40 43 46 49 53 55 58 64 70 72 74 69 75 78 73 70
45 43 42 50 56 53 48 46 43 41 38 38 37 34 34 32 34 35 36 37 38 38 40 42 41 43 44 45 45 48 51 55 58 61 64 67 74 77 82 75 78 79 82 86
46 46 48 50 56 59 53 51 49 45 45 42 42 38 37 35 36 36 38 38 38 39 41 45 46 46 48 50 52 54 57 60 62 67 70 72 78 82 87 84 86 84 83 85
48 48 47 50 55 60 61 56 54 52 48 48 47 42 41 39 40 38 37 39 39 40 44 47 47 50 52 55 57 58 62 65 67 70 73 77 81 86 89 88 90 88 89 85
49 52 51 51 49 58 64 62 59 57 55 52 50 48 45 43 43 42 41 40 41 41 45 47 50 52 55 57 61 64 67 68 71 73 77 82 85 91 94 93 92 89 89 83
56 51 51 54 52 51 59 66 63 62 58 58 55 53 48 48 47 47 45 44 45 45 46 49 52 54 56 60 64 66 70 73 76 78 84 88 91 94 98 99 92 89 87 79
60 53 52 53 54 54 56 60 64 65 64 61 59 58 54 52 51 52 51 49 50 51 51 53 54 56 59 63 67 70 75 79 81 82 90 90 95 99 102 100 94 93 86 76
63 56 56 55 52 55 56 57 62 65 67 66 65 61 59 57 56 55 54 55 55 55 56 58 60 60 63 67 73 76 79 82 84 85 92 95 99 104 105 100 93 90 82 73
67 66 58 56 55 55 56 57 59 64 66 69 69 67 63 62 59 58 59 59 60 60 60 62 64 66 69 72 76 79 82 85 87 89 93 99 103 106 103 98 94 87 77 70
68 70 65 58 56 57 55 57 58 62 67 68 72 72 69 67 65 62 61 62 63 63 65 66 68 70 73 76 79 83 86 90 91 94 98 101 104 106 103 94 92 83 75 68
67 65 67 60 58 59 57 53 56 60 64 67 70 73 73 71 68 65 64 63 64 65 68 69 72 74 76 79 82 86 90 93 95 97 103 103 106 103 95 94 87 79 72 65
67 66 66 63 58 60 59 56 53 58 61 64 68 70 72 72 71 67 64 63 64 66 70 73 75 77 80 82 85 89 92 97 99 101 102 102 105 97 94 90 78 74 68 60
68 69 66 63 61 61 62 60 56 54 58 60 64 69 71 71 70 69 66 64 64 66 71 76 78 80 83 85 88 93 95 98 102 103 100 105 96 93 92 83 74 68 62 57
69 69 68 64 61 61 61 60 59 55 53 57 61 65 68 69 69 68 67 66 66 70 72 74 77 80 83 87 91 95 98 101 102 100 103 98 90 90 85 75 69 63 58 54

GFSNGP_250_spd_129.txt.gz
Wind_Speed
25 29 29 31 34 36 36 35 32 34 29 25 17 10 7 5 4 3 5 3 4 6 4 3 8 35 42 46 52 52 53 53 58 65 71 80 79 81 85 87 91 91 92 95
27 20 23 24 26 28 31 33 36 35 29 31 28 23 16 6 1 3 4 3 1 3 3 1 6 1 12 42 48 50 54 54 56 62 70 80 91 88 91 87 90 86 95 95
28 30 23 21 22 23 24 26 29 31 33 33 29 33 27 22 12 7 7 8 6 3 2 5 3 5 5 8 25 47 47 54 59 60 63 63 83 97 99 98 99 93 96 103
25 26 28 27 21 19 20 20 21 25 27 28 31 32 30 31 28 23 15 9 5 4 11 18 17 15 16 19 24 24 29 33 38 44 61 69 69 88 95 102 100 94 96 96
20 22 25 27 26 20 19 17 16 14 17 20 21 24 26 27 27 25 25 22 17 11 2 5 14 18 21 25 27 32 33 35 40 38 39 47 58 59 74 71 87 97 98 102
21 20 22 24 27 27 19 17 14 15 13 14 16 15 16 17 20 19 22 21 21 19 17 13 9 4 5 9 14 20 22 31 37 42 43 46 50 54 55 61 71 77 80 85
26 23 23 22 24 26 27 21 15 13 13 11 12 14 15 10 9 8 8 13 14 13 13 14 13 12 10 8 3 2 5 10 16 20 26 32 37 45 48 58 67 76 71 72
30 30 24 25 24 24 25 27 25 17 13 13 10 9 11 15 16 12 8 5 3 4 2 5 10 11 13 15 13 9 8 2 3 11 14 17 20 25 29 33 39 44 51 55
37 34 31 30 26 28 25 27 27 27 24 15 13 12 10 11 14 16 14 12 10 10 10 6 5 6 2 5 5 6 3 3 3 4 4 5 9 13 17 20 25 31 36 46
36 38 34 37 35 30 31 28 29 28 27 28 25 16 13 13 14 15 17 17 16 15 15 16 16 15 15 13 11 10 9 8 11 12 18 22 24 26 30 33 37 34 35 42
38 38 33 35 39 37 35 33 32 32 29 30 29 29 25 20 17 18 19 20 20 21 21 20 21 21 20 19 19 20 19 19 20 20 21 23 26 29 33 37 40 44 49 53
39 36 37 39 41 39 41 39 37 34 33 31 32 30 29 29 27 23 22 25 24 24 26 26 25 25 26 26 26 27 28 28 29 30 30 30 32 36 41 45 47 51 54 61
36 35 41 39 41 43 42 45 44 43 38 34 34 34 33 31 30 30 29 27 28 30 30 29 30 30 29 30 33 33 34 34 35 37 37 38 40 43 47 49 52 56 60 65
37 36 40 41 41 44 44 43 45 48 47 43 38 38 39 37 33 32 32 33 32 32 32 34 34 33 33 34 35 37 39 40 41 43 43 43 45 47 50 56 62 66 69 74
36 34 34 36 41 44 48 46 44 45 49 51 46 44 44 41 37 39 36 35 35 35 35 36 37 36 35 35 38 40 42 44 46 47 47 48 51 53 56 60 66 72 73 78
42 37 36 36 37 42 45 49 50 48 45 49 54 53 51 45 43 45 43 40 40 39 39 39 38 39 39 39 40 43 45 48 49 50 52 55 58 62 65 65 70 75 79 84
46 47 47 47 42 39 43 48 49 49 52 49 49 54 54 54 52 51 47 47 47 45 43 43 43 43 43 44 44 47 50 52 53 56 58 62 65 68 70 73 76 81 84 90
49 52 52 54 53 47 45 47 50 47 46 51 51 50 55 60 60 56 54 53 52 50 49 48 48 49 49 50 52 53 54 57 59 62 65 67 72 74 77 81 82 85 91 96
52 52 51 54 60 58 53 49 49 52 46 48 52 53 53 56 62 61 61 58 57 56 54 54 54 54 54 56 58 59 61 63 65 67 71 73 78 79 82 85 87 90 94 96
58 55 53 55 56 61 63 53 51 48 51 47 50 54 53 55 58 63 65 65 64 61 59 59 58 59 59 61 63 65 67 70 72 74 76 78 82 84 87 89 92 94 97 94
61 62 57 55 56 56 63 60 58 51 51 52 49 52 53 53 59 61 65 68 67 67 65 63 63 63 63 64 66 68 71 74 76 79 80 83 85 88 89 93 95 95 97 94
65 63 59 58 55 59 61 63 62 56 52 53 52 51 53 54 56 61 65 66 68 70 69 67 67 66 67 68 69 71 74 77 80 82 82 85 87 89 90 94 94 97 93 93
67 66 62 62 62 62 62 60 61 58 57 54 53 52 52 54 56 60 64 66 69 70 71 71 70 70 70 72 73 74 77 81 82 83 83 86 88 87 89 90 92 92 93 91
69 68 65 64 62 62 59 60 62 58 57 58 57 53 50 53 56 58 61 65 70 71 71 71 71 71 72 75 77 79 81 81 82 83 84 87 86 86 88 90 92 91 89 92
73 68 67 67 66 62 60 62 62 61 60 60 59 56 52 49 52 57 60 62 65 69 72 72 71 72 74 77 81 82 82 82 82 83 85 86 83 87 89 91 89 89 89 91
73 71 69 71 67 60 60 61 63 65 62 62 60 58 56 51 48 53 57 61 62 64 67 69 70 71 75 78 79 80 81 82 82 83 84 82 85 87 89 88 88 87 88 85
75 74 72 71 64 61 62 63 63 66 62 56 53 55 56 53 50 49 53 58 60 60 62 65 68 71 74 77 78 76 78 81 82 84 82 83 84 86 86 86 85 86 82 77

GFSNGP_250_spd_132.txt.gz
Wind_Speed
18 19 22 21 23 24 22 19 21 24 23 25 22 21 16 11 7 4 3 4 6 8 6 2 5 11 18 28 33 41 46 47 43 42 48 58 66 71 75 83 79 78 77 77
20 14 16 18 20 20 21 21 20 21 20 20 22 24 22 17 10 6 5 10 15 13 11 11 9 11 12 22 30 35 42 39 40 43 45 52 64 70 75 84 90 90 87 84
24 21 16 13 17 18 18 18 19 20 20 22 21 21 23 24 16 8 7 8 12 16 17 15 11 8 7 10 16 27 37 39 40 41 41 43 50 63 70 74 79 80 81 86
29 26 23 22 13 14 16 16 15 17 17 16 17 22 19 19 19 17 12 4 6 9 13 17 19 16 22 19 17 16 16 33 45 43 44 46 49 55 61 68 74 80 85 88
32 30 28 24 24 17 13 14 15 13 13 13 12 12 15 20 18 17 19 19 16 11 6 3 13 22 29 28 29 26 28 27 27 34 39 46 45 54 57 66 80 86 90 91
37 32 28 31 28 26 22 16 15 17 13 13 11 8 8 8 9 14 15 15 14 14 13 12 7 1 8 18 31 40 40 38 39 42 40 43 40 41 45 53 61 84 83 86
40 37 33 29 27 28 27 24 21 17 18 15 14 14 8 5 5 4 3 4 5 6 7 8 8 8 10 6 3 8 17 26 34 39 41 49 51 52 54 53 55 61 70 73
44 40 35 33 31 26 28 28 26 24 19 15 15 15 17 15 10 7 7 6 6 6 7 4 3 2 2 3 5 4 0 5 10 14 18 21 25 30 34 39 42 48 48 55
40 41 39 35 32 31 30 29 31 29 28 23 19 15 14 17 17 18 15 12 12 12 12 11 11 12 10 9 5 6 10 11 13 13 16 19 21 22 22 23 27 30 34 36
34 34 42 36 36 34 31 31 31 34 34 30 29 25 20 16 18 21 22 21 20 17 16 15 15 16 16 14 14 13 12 13 15 19 20 22 23 24 26 29 29 31 32 32
34 29 33 38 34 36 32 33 33 33 36 38 34 32 30 26 23 21 22 25 26 25 24 23 22 21 21 22 21 19 20 21 22 23 25 26 28 27 31 35 33 36 39 40
38 29 29 37 33 36 33 32 30 35 37 34 39 41 35 35 32 30 28 26 28 30 30 30 30 29 27 27 28 28 28 27 29 29 31 34 35 36 38 41 39 41 40 42
52 31 32 31 31 33 39 37 34 31 30 38 38 39 43 43 40 39 36 34 33 32 33 34 34 34 34 34 33 33 33 34 34 35 35 36 38 41 42 42 44 42 43 45
51 37 37 31 31 30 34 38 40 41 36 31 34 42 40 42 48 48 45 43 39 38 37 37 37 37 37 37 39 39 38 39 40 40 40 40 42 43 44 43 45 45 47 49
52 45 43 42 38 33 36 38 35 38 41 43 36 35 45 47 44 48 52 53 49 46 45 43 41 41 41 41 41 42 42 43 44 45 44 45 46 47 48 50 52 55 59 60
56 51 46 42 44 39 40 41 41 41 38 39 46 45 38 47 50 49 49 54 58 55 54 51 49 48 46 46 46 46 46 46 47 48 48 50 52 52 54 57 60 62 66 68
57 56 49 49 48 47 43 44 43 47 48 44 41 43 47 44 50 52 50 49 54 59 63 61 57 56 54 53 53 52 52 52 51 52 53 55 56 59 61 63 67 71 73 73
61 58 52 55 52 50 51 50 44 43 49 51 49 45 44 48 49 50 55 53 54 57 61 65 66 64 63 61 61 60 59 60 60 60 60 62 63 66 68 70 74 78 75 77
65 63 60 59 57 53 51 49 45 44 48 49 55 51 48 48 51 53 49 55 57 55 57 63 69 70 70 69 68 67 67 67 66 67 67 69 71 72 74 77 80 81 79 82
69 71 70 66 63 54 49 51 52 48 46 46 54 55 56 54 54 55 56 51 57 58 57 62 66 70 73 75 75 74 74 73 73 73 73 75 76 79 82 84 86 84 86 85
73 75 77 77 69 63 55 55 56 50 50 48 50 55 57 57 55 56 58 56 53 59 60 61 64 68 72 76 78 79 79 79 79 79 79 80 83 86 87 88 89 87 86 88
77 75 75 78 74 74 65 61 60 53 53 54 52 56 58 60 58 54 55 57 56 56 59 62 63 65 69 72 76 78 80 81 82 83 84 86 88 90 90 90 90 86 86 89
80 81 79 79 77 75 68 65 65 58 54 57 54 55 58 63 61 59 54 53 56 57 58 60 62 64 67 69 71 75 77 79 81 82 84 86 88 90 90 91 87 85 86 86
80 82 80 80 79 75 72 69 66 63 60 57 58 57 59 65 67 62 57 54 53 54 58 61 62 63 65 67 70 73 75 76 77 81 84 85 86 88 88 85 85 84 85 84
82 82 82 80 78 76 70 68 66 66 63 62 62 59 61 65 66 66 61 54 52 52 53 56 60 64 65 66 68 70 71 74 75 78 80 83 85 85 83 84 82 81 80 78
83 80 76 77 77 72 71 72 70 68 66 66 64 62 63 64 67 67 61 55 52 52 55 56 56 60 65 66 66 68 70 70 72 76 77 79 80 81 82 80 78 77 75 78
80 78 71 71 72 72 73 72 69 65 68 66 63 64 66 68 68 65 62 58 55 56 57 57 57 60 64 67 66 66 66 67 70 71 71 73 76 77 77 75 73 72 76 80

GFSNGP_250_spd_135.txt.gz
Wind_Speed
36 29 25 22 16 14 17 20 19 21 21 21 21 19 15 12 6 5 6 10 14 14 8 4 7 9 10 15 13 15 21 26 33 40 46 48 52 58 60 61 63 62 59 56
41 37 29 25 25 19 13 12 15 18 20 20 20 20 22 20 14 7 5 8 13 15 13 9 10 14 14 14 15 19 26 31 33 35 37 40 43 50 55 58 49 59 62 62
42 40 39 32 24 23 25 21 17 16 18 19 18 19 17 17 16 16 13 10 12 17 14 13 10 12 14 15 18 22 30 32 26 29 28 38 42 47 52 53 68 70 65 68
42 42 41 40 34 27 21 24 22 18 17 16 17 15 15 13 11 13 15 14 12 12 17 18 17 19 19 20 20 24 29 36 36 37 41 42 41 47 55 66 69 72 71 73
55 46 39 39 38 33 29 23 22 22 19 18 14 14 12 11 10 8 6 7 6 8 6 9 18 22 21 26 25 26 27 32 37 43 44 44 45 42 47 52 63 72 77 79
46 51 49 42 39 36 32 28 26 23 23 21 18 16 13 11 8 11 12 11 6 4 5 7 8 5 6 15 27 31 31 32 35 33 31 36 44 48 49 52 53 51 58 71
47 44 48 47 43 38 35 31 28 26 25 24 22 19 17 16 13 12 9 9 12 10 8 8 9 7 5 3 7 15 23 35 36 38 39 41 44 46 49 51 53 56 57 62
49 44 47 41 44 41 37 31 31 28 27 26 25 24 20 17 19 18 17 17 15 15 14 14 15 15 14 13 11 8 6 12 25 39 41 44 45 49 48 52 57 60 62 67
50 40 39 41 42 42 40 34 30 30 29 27 28 29 27 25 21 21 23 22 21 21 21 21 21 19 18 19 18 15 14 12 12 14 18 22 29 36 46 52 57 62 62 66
48 41 39 40 38 43 41 37 34 29 30 29 25 27 31 32 31 28 26 25 26 26 25 24 25 26 26 23 22 20 20 19 21 22 23 23 23 25 27 30 34 36 38 42
51 43 42 43 32 36 42 41 40 37 31 32 33 32 30 30 32 34 34 33 32 31 31 32 31 31 30 30 29 27 27 27 28 30 31 34 35 37 39 40 42 43 45 46
48 48 45 50 32 35 40 42 41 42 39 36 35 33 33 34 32 33 36 39 39 37 37 36 37 36 35 35 35 35 33 33 34 35 35 36 39 41 41 43 47 48 50 51
50 45 50 54 48 41 41 38 42 43 44 46 41 40 38 37 35 37 39 38 39 44 45 43 42 41 40 41 40 41 41 41 41 39 40 42 45 46 46 47 49 52 53 54
55 52 50 53 53 49 43 39 42 40 40 44 47 45 46 43 42 40 40 41 43 43 44 46 48 48 48 47 45 45 46 46 47 47 47 47 48 49 49 50 51 52 53 52
60 54 54 52 56 58 50 45 44 44 42 43 46 46 46 47 46 45 44 46 47 46 45 48 52 53 53 54 54 52 51 51 51 52 52 52 52 53 53 54 55 55 55 56
59 62 63 56 57 61 54 47 43 42 42 44 48 48 48 49 49 49 49 48 46 49 50 51 53 55 57 59 60 61 60 60 60 59 58 58 57 57 59 60 61 62 63 64
63 69 67 61 60 65 61 55 49 46 43 44 46 48 49 52 55 52 50 50 51 48 50 55 54 56 59 63 65 66 67 68 69 69 68 67 66 66 66 66 67 68 71 72
72 72 68 65 62 62 65 61 57 50 49 44 42 45 48 54 56 58 56 52 49 50 50 51 55 58 60 63 66 70 71 73 75 75 76 76 76 76 75 76 76 77 78 79
73 71 67 68 62 67 70 67 63 62 54 48 44 46 46 48 51 54 57 57 56 51 53 52 53 57 63 65 64 66 69 74 77 79 81 82 83 84 86 86 86 86 87 89
75 72 70 70 64 71 70 68 70 67 66 63 53 47 44 48 49 50 55 55 60 58 57 55 54 55 59 63 67 67 68 72 75 78 82 85 87 89 89 91 92 93 94 94
72 68 73 72 68 71 79 72 70 69 68 72 65 62 54 51 50 52 54 56 58 59 59 56 53 56 58 61 65 68 69 69 72 76 80 82 85 88 91 92 95 96 96 98
71 68 72 75 75 74 78 78 76 75 74 73 69 65 62 57 57 55 56 58 58 60 61 62 56 53 58 63 64 66 69 70 71 72 73 76 79 82 85 88 90 91 93 93
75 71 72 76 77 77 77 81 77 75 77 75 73 71 66 63 62 60 60 59 60 61 62 64 62 57 57 60 65 68 69 71 71 71 73 75 76 78 80 83 83 83 85 88
77 74 73 75 78 78 80 80 76 75 78 77 74 73 68 67 64 62 61 61 62 63 62 64 67 64 60 60 62 65 70 72 73 73 73 74 74 76 78 77 77 78 80 80
77 76 74 74 77 78 79 80 79 78 80 78 71 68 67 69 68 66 65 63 64 65 64 65 68 68 65 63 62 63 66 68 71 74 75 75 73 72 71 71 72 74 74 73
73 74 73 75 77 79 80 82 79 77 78 76 69 68 69 70 69 67 66 64 65 67 66 68 68 68 66 65 64 65 66 68 69 71 73 74 73 70 68 67 67 68 68 69
69 71 73 75 76 76 78 78 76 76 74 67 66 67 69 69 67 68 67 66 67 67 68 69 68 67 66 66 66 65 67 69 67 67 67 66 65 63 62 64 64 64 65 63